<?xml version="1.0" encoding="UTF-8" standalone="no" ?>
<gpx xmlns="http://www.topografix.com/GPX/1/1" xmlns:xsi="http://www.w3.org/2001/XMLSchema-instance" xsi:schemaLocation="http://www.topografix.com/GPX/1/1 http://www.topografix.com/GPX/1/1/gpx.xsd" version="1.1" creator="VisuGPX - https://www.visugpx.com">
  <metadata>
    <name>sommet de la Cavale à partie d'Oris en rattier</name>
    <desc><![CDATA[Beau parcours, sans difficulté, mais la boucle par la baraque du Jas est peu intéressante...]]></desc>
  </metadata>
  <trk>
    <name><![CDATA[2020-07-06 15-38-56]]></name>
    <trkseg>
      <trkpt lat="44.91789" lon="5.87173">
        <ele>997.99</ele>
        <time>2020-07-06T07:04:01Z</time>
      </trkpt>
      <trkpt lat="44.91779" lon="5.8717">
        <ele>999.91</ele>
        <time>2020-07-06T07:04:24Z</time>
      </trkpt>
      <trkpt lat="44.91778" lon="5.87169">
        <ele>999.91</ele>
        <time>2020-07-06T07:04:25Z</time>
      </trkpt>
      <trkpt lat="44.91759" lon="5.87154">
        <ele>999.91</ele>
        <time>2020-07-06T07:04:43Z</time>
      </trkpt>
      <trkpt lat="44.91737" lon="5.87149">
        <ele>1001.35</ele>
        <time>2020-07-06T07:05:01Z</time>
      </trkpt>
      <trkpt lat="44.91735" lon="5.8715">
        <ele>1001.35</ele>
        <time>2020-07-06T07:05:03Z</time>
      </trkpt>
      <trkpt lat="44.91733" lon="5.8715">
        <ele>1001.35</ele>
        <time>2020-07-06T07:05:04Z</time>
      </trkpt>
      <trkpt lat="44.91718" lon="5.87171">
        <ele>1000.39</ele>
        <time>2020-07-06T07:05:21Z</time>
      </trkpt>
      <trkpt lat="44.91716" lon="5.87176">
        <ele>1000.39</ele>
        <time>2020-07-06T07:05:24Z</time>
      </trkpt>
      <trkpt lat="44.91716" lon="5.87178">
        <ele>1000.39</ele>
        <time>2020-07-06T07:05:25Z</time>
      </trkpt>
      <trkpt lat="44.91715" lon="5.8718">
        <ele>1000.39</ele>
        <time>2020-07-06T07:05:26Z</time>
      </trkpt>
      <trkpt lat="44.91709" lon="5.87207">
        <ele>1000.39</ele>
        <time>2020-07-06T07:05:41Z</time>
      </trkpt>
      <trkpt lat="44.91702" lon="5.87219">
        <ele>1000.87</ele>
        <time>2020-07-06T07:05:50Z</time>
      </trkpt>
      <trkpt lat="44.91701" lon="5.8722">
        <ele>1000.87</ele>
        <time>2020-07-06T07:05:51Z</time>
      </trkpt>
      <trkpt lat="44.917" lon="5.87221">
        <ele>1000.87</ele>
        <time>2020-07-06T07:05:52Z</time>
      </trkpt>
      <trkpt lat="44.91699" lon="5.87222">
        <ele>1000.87</ele>
        <time>2020-07-06T07:05:53Z</time>
      </trkpt>
      <trkpt lat="44.91698" lon="5.87223">
        <ele>1000.87</ele>
        <time>2020-07-06T07:05:54Z</time>
      </trkpt>
      <trkpt lat="44.91696" lon="5.87223">
        <ele>1000.87</ele>
        <time>2020-07-06T07:05:55Z</time>
      </trkpt>
      <trkpt lat="44.91677" lon="5.87228">
        <ele>1001.83</ele>
        <time>2020-07-06T07:06:11Z</time>
      </trkpt>
      <trkpt lat="44.91657" lon="5.87225">
        <ele>1000.39</ele>
        <time>2020-07-06T07:06:27Z</time>
      </trkpt>
      <trkpt lat="44.91656" lon="5.87222">
        <ele>1000.39</ele>
        <time>2020-07-06T07:06:29Z</time>
      </trkpt>
      <trkpt lat="44.91656" lon="5.8722">
        <ele>1000.39</ele>
        <time>2020-07-06T07:06:30Z</time>
      </trkpt>
      <trkpt lat="44.91656" lon="5.87218">
        <ele>1000.39</ele>
        <time>2020-07-06T07:06:31Z</time>
      </trkpt>
      <trkpt lat="44.91659" lon="5.8718">
        <ele>1002.31</ele>
        <time>2020-07-06T07:06:50Z</time>
      </trkpt>
      <trkpt lat="44.91652" lon="5.87158">
        <ele>1001.83</ele>
        <time>2020-07-06T07:07:05Z</time>
      </trkpt>
      <trkpt lat="44.91635" lon="5.87145">
        <ele>1001.35</ele>
        <time>2020-07-06T07:07:20Z</time>
      </trkpt>
      <trkpt lat="44.91615" lon="5.87134">
        <ele>1000.87</ele>
        <time>2020-07-06T07:07:35Z</time>
      </trkpt>
      <trkpt lat="44.91596" lon="5.87114">
        <ele>1000.87</ele>
        <time>2020-07-06T07:07:53Z</time>
      </trkpt>
      <trkpt lat="44.91579" lon="5.87088">
        <ele>1000.87</ele>
        <time>2020-07-06T07:08:12Z</time>
      </trkpt>
      <trkpt lat="44.91566" lon="5.87074">
        <ele>1000.87</ele>
        <time>2020-07-06T07:08:27Z</time>
      </trkpt>
      <trkpt lat="44.91561" lon="5.87049">
        <ele>1003.75</ele>
        <time>2020-07-06T07:08:45Z</time>
      </trkpt>
      <trkpt lat="44.91555" lon="5.87039">
        <ele>1004.72</ele>
        <time>2020-07-06T07:08:58Z</time>
      </trkpt>
      <trkpt lat="44.91554" lon="5.87039">
        <ele>1005.2</ele>
        <time>2020-07-06T07:09:17Z</time>
      </trkpt>
      <trkpt lat="44.91552" lon="5.87045">
        <ele>1005.2</ele>
        <time>2020-07-06T07:09:34Z</time>
      </trkpt>
      <trkpt lat="44.9155" lon="5.8704">
        <ele>1003.27</ele>
        <time>2020-07-06T07:09:47Z</time>
      </trkpt>
      <trkpt lat="44.91547" lon="5.87039">
        <ele>1005.2</ele>
        <time>2020-07-06T07:10:02Z</time>
      </trkpt>
      <trkpt lat="44.91536" lon="5.87054">
        <ele>1006.16</ele>
        <time>2020-07-06T07:10:23Z</time>
      </trkpt>
      <trkpt lat="44.91531" lon="5.87074">
        <ele>1009.04</ele>
        <time>2020-07-06T07:10:40Z</time>
      </trkpt>
      <trkpt lat="44.91525" lon="5.87078">
        <ele>1010.96</ele>
        <time>2020-07-06T07:10:53Z</time>
      </trkpt>
      <trkpt lat="44.91517" lon="5.87062">
        <ele>1014.33</ele>
        <time>2020-07-06T07:11:13Z</time>
      </trkpt>
      <trkpt lat="44.91513" lon="5.87035">
        <ele>1017.21</ele>
        <time>2020-07-06T07:11:39Z</time>
      </trkpt>
      <trkpt lat="44.91506" lon="5.87023">
        <ele>1020.58</ele>
        <time>2020-07-06T07:11:58Z</time>
      </trkpt>
      <trkpt lat="44.91503" lon="5.87019">
        <ele>1021.54</ele>
        <time>2020-07-06T07:12:04Z</time>
      </trkpt>
      <trkpt lat="44.91474" lon="5.87033">
        <ele>1024.42</ele>
        <time>2020-07-06T07:12:29Z</time>
      </trkpt>
      <trkpt lat="44.91469" lon="5.87043">
        <ele>1026.34</ele>
        <time>2020-07-06T07:12:39Z</time>
      </trkpt>
      <trkpt lat="44.91467" lon="5.87053">
        <ele>1027.31</ele>
        <time>2020-07-06T07:12:48Z</time>
      </trkpt>
      <trkpt lat="44.91466" lon="5.87056">
        <ele>1027.31</ele>
        <time>2020-07-06T07:12:50Z</time>
      </trkpt>
      <trkpt lat="44.91464" lon="5.87062">
        <ele>1027.79</ele>
        <time>2020-07-06T07:12:55Z</time>
      </trkpt>
      <trkpt lat="44.91465" lon="5.87074">
        <ele>1029.23</ele>
        <time>2020-07-06T07:13:06Z</time>
      </trkpt>
      <trkpt lat="44.91465" lon="5.87083">
        <ele>1030.19</ele>
        <time>2020-07-06T07:13:13Z</time>
      </trkpt>
      <trkpt lat="44.91465" lon="5.8709">
        <ele>1031.15</ele>
        <time>2020-07-06T07:13:20Z</time>
      </trkpt>
      <trkpt lat="44.91464" lon="5.87115">
        <ele>1034.52</ele>
        <time>2020-07-06T07:13:42Z</time>
      </trkpt>
      <trkpt lat="44.91462" lon="5.87118">
        <ele>1035</ele>
        <time>2020-07-06T07:13:46Z</time>
      </trkpt>
      <trkpt lat="44.91447" lon="5.87157">
        <ele>1037.88</ele>
        <time>2020-07-06T07:14:17Z</time>
      </trkpt>
      <trkpt lat="44.91441" lon="5.87196">
        <ele>1040.76</ele>
        <time>2020-07-06T07:14:46Z</time>
      </trkpt>
      <trkpt lat="44.91466" lon="5.87228">
        <ele>1043.65</ele>
        <time>2020-07-06T07:15:10Z</time>
      </trkpt>
      <trkpt lat="44.91471" lon="5.8725">
        <ele>1046.53</ele>
        <time>2020-07-06T07:15:29Z</time>
      </trkpt>
      <trkpt lat="44.91468" lon="5.87276">
        <ele>1049.9</ele>
        <time>2020-07-06T07:15:52Z</time>
      </trkpt>
      <trkpt lat="44.91463" lon="5.873">
        <ele>1052.78</ele>
        <time>2020-07-06T07:16:15Z</time>
      </trkpt>
      <trkpt lat="44.91452" lon="5.87327">
        <ele>1056.15</ele>
        <time>2020-07-06T07:16:40Z</time>
      </trkpt>
      <trkpt lat="44.91464" lon="5.8735">
        <ele>1058.55</ele>
        <time>2020-07-06T07:16:58Z</time>
      </trkpt>
      <trkpt lat="44.91464" lon="5.87374">
        <ele>1061.91</ele>
        <time>2020-07-06T07:17:20Z</time>
      </trkpt>
      <trkpt lat="44.91466" lon="5.87394">
        <ele>1064.8</ele>
        <time>2020-07-06T07:17:39Z</time>
      </trkpt>
      <trkpt lat="44.91463" lon="5.87415">
        <ele>1068.16</ele>
        <time>2020-07-06T07:17:59Z</time>
      </trkpt>
      <trkpt lat="44.9146" lon="5.87444">
        <ele>1071.53</ele>
        <time>2020-07-06T07:18:24Z</time>
      </trkpt>
      <trkpt lat="44.91459" lon="5.87463">
        <ele>1074.41</ele>
        <time>2020-07-06T07:18:43Z</time>
      </trkpt>
      <trkpt lat="44.91457" lon="5.87486">
        <ele>1077.78</ele>
        <time>2020-07-06T07:19:05Z</time>
      </trkpt>
      <trkpt lat="44.91455" lon="5.87506">
        <ele>1080.66</ele>
        <time>2020-07-06T07:19:22Z</time>
      </trkpt>
      <trkpt lat="44.91456" lon="5.87528">
        <ele>1084.02</ele>
        <time>2020-07-06T07:19:42Z</time>
      </trkpt>
      <trkpt lat="44.91457" lon="5.87551">
        <ele>1086.91</ele>
        <time>2020-07-06T07:20:00Z</time>
      </trkpt>
      <trkpt lat="44.91453" lon="5.87573">
        <ele>1089.79</ele>
        <time>2020-07-06T07:20:22Z</time>
      </trkpt>
      <trkpt lat="44.91459" lon="5.87598">
        <ele>1092.68</ele>
        <time>2020-07-06T07:20:44Z</time>
      </trkpt>
      <trkpt lat="44.91461" lon="5.87616">
        <ele>1096.04</ele>
        <time>2020-07-06T07:21:00Z</time>
      </trkpt>
      <trkpt lat="44.91461" lon="5.87635">
        <ele>1099.4</ele>
        <time>2020-07-06T07:21:17Z</time>
      </trkpt>
      <trkpt lat="44.91457" lon="5.87659">
        <ele>1102.29</ele>
        <time>2020-07-06T07:21:42Z</time>
      </trkpt>
      <trkpt lat="44.91454" lon="5.87682">
        <ele>1105.17</ele>
        <time>2020-07-06T07:22:01Z</time>
      </trkpt>
      <trkpt lat="44.91446" lon="5.87709">
        <ele>1108.54</ele>
        <time>2020-07-06T07:22:25Z</time>
      </trkpt>
      <trkpt lat="44.9144" lon="5.87734">
        <ele>1111.42</ele>
        <time>2020-07-06T07:22:46Z</time>
      </trkpt>
      <trkpt lat="44.91436" lon="5.87756">
        <ele>1114.79</ele>
        <time>2020-07-06T07:23:06Z</time>
      </trkpt>
      <trkpt lat="44.91432" lon="5.87774">
        <ele>1117.67</ele>
        <time>2020-07-06T07:23:22Z</time>
      </trkpt>
      <trkpt lat="44.91422" lon="5.87803">
        <ele>1120.55</ele>
        <time>2020-07-06T07:23:45Z</time>
      </trkpt>
      <trkpt lat="44.91422" lon="5.87816">
        <ele>1121.03</ele>
        <time>2020-07-06T07:23:54Z</time>
      </trkpt>
      <trkpt lat="44.91422" lon="5.87823">
        <ele>1121.03</ele>
        <time>2020-07-06T07:23:58Z</time>
      </trkpt>
      <trkpt lat="44.91421" lon="5.87845">
        <ele>1122.48</ele>
        <time>2020-07-06T07:24:15Z</time>
      </trkpt>
      <trkpt lat="44.91421" lon="5.87866">
        <ele>1125.36</ele>
        <time>2020-07-06T07:24:34Z</time>
      </trkpt>
      <trkpt lat="44.91425" lon="5.87883">
        <ele>1128.24</ele>
        <time>2020-07-06T07:24:52Z</time>
      </trkpt>
      <trkpt lat="44.91423" lon="5.87898">
        <ele>1131.61</ele>
        <time>2020-07-06T07:25:09Z</time>
      </trkpt>
      <trkpt lat="44.91425" lon="5.87912">
        <ele>1134.49</ele>
        <time>2020-07-06T07:25:26Z</time>
      </trkpt>
      <trkpt lat="44.91422" lon="5.87929">
        <ele>1137.38</ele>
        <time>2020-07-06T07:25:46Z</time>
      </trkpt>
      <trkpt lat="44.91418" lon="5.87949">
        <ele>1140.74</ele>
        <time>2020-07-06T07:26:09Z</time>
      </trkpt>
      <trkpt lat="44.91415" lon="5.87958">
        <ele>1143.63</ele>
        <time>2020-07-06T07:26:22Z</time>
      </trkpt>
      <trkpt lat="44.91413" lon="5.87974">
        <ele>1146.99</ele>
        <time>2020-07-06T07:26:41Z</time>
      </trkpt>
      <trkpt lat="44.91407" lon="5.87984">
        <ele>1149.87</ele>
        <time>2020-07-06T07:26:56Z</time>
      </trkpt>
      <trkpt lat="44.91402" lon="5.87994">
        <ele>1153.24</ele>
        <time>2020-07-06T07:27:07Z</time>
      </trkpt>
      <trkpt lat="44.91397" lon="5.88001">
        <ele>1156.12</ele>
        <time>2020-07-06T07:27:20Z</time>
      </trkpt>
      <trkpt lat="44.91392" lon="5.88008">
        <ele>1158.05</ele>
        <time>2020-07-06T07:27:29Z</time>
      </trkpt>
      <trkpt lat="44.91384" lon="5.88023">
        <ele>1161.41</ele>
        <time>2020-07-06T07:27:47Z</time>
      </trkpt>
      <trkpt lat="44.91396" lon="5.88039">
        <ele>1164.29</ele>
        <time>2020-07-06T07:28:08Z</time>
      </trkpt>
      <trkpt lat="44.91399" lon="5.88039">
        <ele>1164.77</ele>
        <time>2020-07-06T07:28:11Z</time>
      </trkpt>
      <trkpt lat="44.91404" lon="5.88041">
        <ele>1166.22</ele>
        <time>2020-07-06T07:28:16Z</time>
      </trkpt>
      <trkpt lat="44.91421" lon="5.8805">
        <ele>1169.58</ele>
        <time>2020-07-06T07:28:37Z</time>
      </trkpt>
      <trkpt lat="44.91427" lon="5.88059">
        <ele>1172.47</ele>
        <time>2020-07-06T07:28:53Z</time>
      </trkpt>
      <trkpt lat="44.9143" lon="5.8807">
        <ele>1175.83</ele>
        <time>2020-07-06T07:29:10Z</time>
      </trkpt>
      <trkpt lat="44.91431" lon="5.88072">
        <ele>1176.31</ele>
        <time>2020-07-06T07:29:14Z</time>
      </trkpt>
      <trkpt lat="44.91436" lon="5.88083">
        <ele>1178.71</ele>
        <time>2020-07-06T07:29:27Z</time>
      </trkpt>
      <trkpt lat="44.91436" lon="5.88101">
        <ele>1181.6</ele>
        <time>2020-07-06T07:29:46Z</time>
      </trkpt>
      <trkpt lat="44.91436" lon="5.88106">
        <ele>1183.04</ele>
        <time>2020-07-06T07:29:52Z</time>
      </trkpt>
      <trkpt lat="44.91435" lon="5.88109">
        <ele>1183.52</ele>
        <time>2020-07-06T07:29:56Z</time>
      </trkpt>
      <trkpt lat="44.91438" lon="5.88119">
        <ele>1185.44</ele>
        <time>2020-07-06T07:30:06Z</time>
      </trkpt>
      <trkpt lat="44.9144" lon="5.8812">
        <ele>1185.44</ele>
        <time>2020-07-06T07:30:08Z</time>
      </trkpt>
      <trkpt lat="44.91442" lon="5.88135">
        <ele>1188.81</ele>
        <time>2020-07-06T07:30:27Z</time>
      </trkpt>
      <trkpt lat="44.91443" lon="5.88143">
        <ele>1191.21</ele>
        <time>2020-07-06T07:30:40Z</time>
      </trkpt>
      <trkpt lat="44.91444" lon="5.88159">
        <ele>1194.58</ele>
        <time>2020-07-06T07:31:01Z</time>
      </trkpt>
      <trkpt lat="44.91443" lon="5.88174">
        <ele>1197.46</ele>
        <time>2020-07-06T07:31:18Z</time>
      </trkpt>
      <trkpt lat="44.9144" lon="5.88188">
        <ele>1199.86</ele>
        <time>2020-07-06T07:31:35Z</time>
      </trkpt>
      <trkpt lat="44.91439" lon="5.88192">
        <ele>1201.3</ele>
        <time>2020-07-06T07:31:41Z</time>
      </trkpt>
      <trkpt lat="44.91437" lon="5.88208">
        <ele>1204.19</ele>
        <time>2020-07-06T07:32:04Z</time>
      </trkpt>
      <trkpt lat="44.91436" lon="5.88222">
        <ele>1207.55</ele>
        <time>2020-07-06T07:32:20Z</time>
      </trkpt>
      <trkpt lat="44.91431" lon="5.88236">
        <ele>1209.96</ele>
        <time>2020-07-06T07:32:35Z</time>
      </trkpt>
      <trkpt lat="44.91429" lon="5.88245">
        <ele>1211.4</ele>
        <time>2020-07-06T07:32:47Z</time>
      </trkpt>
      <trkpt lat="44.91426" lon="5.88257">
        <ele>1213.32</ele>
        <time>2020-07-06T07:33:01Z</time>
      </trkpt>
      <trkpt lat="44.91417" lon="5.88265">
        <ele>1214.76</ele>
        <time>2020-07-06T07:33:13Z</time>
      </trkpt>
      <trkpt lat="44.91415" lon="5.88274">
        <ele>1216.69</ele>
        <time>2020-07-06T07:33:27Z</time>
      </trkpt>
      <trkpt lat="44.91412" lon="5.88282">
        <ele>1218.61</ele>
        <time>2020-07-06T07:33:39Z</time>
      </trkpt>
      <trkpt lat="44.91409" lon="5.88293">
        <ele>1221.49</ele>
        <time>2020-07-06T07:33:52Z</time>
      </trkpt>
      <trkpt lat="44.91406" lon="5.88299">
        <ele>1224.38</ele>
        <time>2020-07-06T07:34:02Z</time>
      </trkpt>
      <trkpt lat="44.91399" lon="5.88309">
        <ele>1227.74</ele>
        <time>2020-07-06T07:34:16Z</time>
      </trkpt>
      <trkpt lat="44.91387" lon="5.88318">
        <ele>1230.62</ele>
        <time>2020-07-06T07:34:31Z</time>
      </trkpt>
      <trkpt lat="44.91379" lon="5.88327">
        <ele>1233.99</ele>
        <time>2020-07-06T07:34:48Z</time>
      </trkpt>
      <trkpt lat="44.91375" lon="5.8834">
        <ele>1236.87</ele>
        <time>2020-07-06T07:35:05Z</time>
      </trkpt>
      <trkpt lat="44.91375" lon="5.88341">
        <ele>1237.35</ele>
        <time>2020-07-06T07:35:07Z</time>
      </trkpt>
      <trkpt lat="44.91374" lon="5.88342">
        <ele>1237.35</ele>
        <time>2020-07-06T07:35:09Z</time>
      </trkpt>
      <trkpt lat="44.91372" lon="5.8835">
        <ele>1238.32</ele>
        <time>2020-07-06T07:35:20Z</time>
      </trkpt>
      <trkpt lat="44.91372" lon="5.88352">
        <ele>1238.8</ele>
        <time>2020-07-06T07:35:22Z</time>
      </trkpt>
      <trkpt lat="44.91373" lon="5.8836">
        <ele>1239.76</ele>
        <time>2020-07-06T07:35:33Z</time>
      </trkpt>
      <trkpt lat="44.91369" lon="5.88366">
        <ele>1241.2</ele>
        <time>2020-07-06T07:35:43Z</time>
      </trkpt>
      <trkpt lat="44.91367" lon="5.88377">
        <ele>1242.64</ele>
        <time>2020-07-06T07:35:55Z</time>
      </trkpt>
      <trkpt lat="44.91363" lon="5.88384">
        <ele>1244.08</ele>
        <time>2020-07-06T07:36:04Z</time>
      </trkpt>
      <trkpt lat="44.9136" lon="5.88388">
        <ele>1245.04</ele>
        <time>2020-07-06T07:36:09Z</time>
      </trkpt>
      <trkpt lat="44.91356" lon="5.88397">
        <ele>1246.01</ele>
        <time>2020-07-06T07:36:20Z</time>
      </trkpt>
      <trkpt lat="44.91355" lon="5.88407">
        <ele>1247.93</ele>
        <time>2020-07-06T07:36:32Z</time>
      </trkpt>
      <trkpt lat="44.91351" lon="5.88417">
        <ele>1249.85</ele>
        <time>2020-07-06T07:36:45Z</time>
      </trkpt>
      <trkpt lat="44.91352" lon="5.88432">
        <ele>1252.25</ele>
        <time>2020-07-06T07:37:00Z</time>
      </trkpt>
      <trkpt lat="44.91348" lon="5.88443">
        <ele>1254.66</ele>
        <time>2020-07-06T07:37:14Z</time>
      </trkpt>
      <trkpt lat="44.91345" lon="5.88446">
        <ele>1255.62</ele>
        <time>2020-07-06T07:37:18Z</time>
      </trkpt>
      <trkpt lat="44.91336" lon="5.88454">
        <ele>1258.5</ele>
        <time>2020-07-06T07:37:30Z</time>
      </trkpt>
      <trkpt lat="44.9133" lon="5.88464">
        <ele>1261.87</ele>
        <time>2020-07-06T07:37:44Z</time>
      </trkpt>
      <trkpt lat="44.91318" lon="5.88472">
        <ele>1264.27</ele>
        <time>2020-07-06T07:37:55Z</time>
      </trkpt>
      <trkpt lat="44.91306" lon="5.88479">
        <ele>1267.16</ele>
        <time>2020-07-06T07:38:08Z</time>
      </trkpt>
      <trkpt lat="44.91301" lon="5.88481">
        <ele>1268.12</ele>
        <time>2020-07-06T07:38:14Z</time>
      </trkpt>
      <trkpt lat="44.91298" lon="5.88492">
        <ele>1271.48</ele>
        <time>2020-07-06T07:38:32Z</time>
      </trkpt>
      <trkpt lat="44.91289" lon="5.885">
        <ele>1274.36</ele>
        <time>2020-07-06T07:38:46Z</time>
      </trkpt>
      <trkpt lat="44.91277" lon="5.8851">
        <ele>1277.73</ele>
        <time>2020-07-06T07:39:04Z</time>
      </trkpt>
      <trkpt lat="44.91272" lon="5.88522">
        <ele>1280.61</ele>
        <time>2020-07-06T07:39:22Z</time>
      </trkpt>
      <trkpt lat="44.91265" lon="5.88537">
        <ele>1283.98</ele>
        <time>2020-07-06T07:39:42Z</time>
      </trkpt>
      <trkpt lat="44.91259" lon="5.8855">
        <ele>1285.42</ele>
        <time>2020-07-06T07:39:58Z</time>
      </trkpt>
      <trkpt lat="44.91255" lon="5.88559">
        <ele>1288.78</ele>
        <time>2020-07-06T07:40:13Z</time>
      </trkpt>
      <trkpt lat="44.91249" lon="5.88568">
        <ele>1291.19</ele>
        <time>2020-07-06T07:40:32Z</time>
      </trkpt>
      <trkpt lat="44.91243" lon="5.88569">
        <ele>1293.11</ele>
        <time>2020-07-06T07:40:40Z</time>
      </trkpt>
      <trkpt lat="44.9125" lon="5.88579">
        <ele>1295.99</ele>
        <time>2020-07-06T07:41:00Z</time>
      </trkpt>
      <trkpt lat="44.91242" lon="5.88587">
        <ele>1298.4</ele>
        <time>2020-07-06T07:41:13Z</time>
      </trkpt>
      <trkpt lat="44.91223" lon="5.88587">
        <ele>1300.8</ele>
        <time>2020-07-06T07:41:24Z</time>
      </trkpt>
      <trkpt lat="44.91204" lon="5.88593">
        <ele>1304.17</ele>
        <time>2020-07-06T07:41:39Z</time>
      </trkpt>
      <trkpt lat="44.91203" lon="5.886">
        <ele>1306.57</ele>
        <time>2020-07-06T07:41:52Z</time>
      </trkpt>
      <trkpt lat="44.91204" lon="5.88603">
        <ele>1307.53</ele>
        <time>2020-07-06T07:41:58Z</time>
      </trkpt>
      <trkpt lat="44.91197" lon="5.88612">
        <ele>1310.9</ele>
        <time>2020-07-06T07:42:14Z</time>
      </trkpt>
      <trkpt lat="44.91195" lon="5.88612">
        <ele>1311.38</ele>
        <time>2020-07-06T07:42:15Z</time>
      </trkpt>
      <trkpt lat="44.91182" lon="5.88621">
        <ele>1314.26</ele>
        <time>2020-07-06T07:42:33Z</time>
      </trkpt>
      <trkpt lat="44.91176" lon="5.88632">
        <ele>1316.18</ele>
        <time>2020-07-06T07:42:53Z</time>
      </trkpt>
      <trkpt lat="44.91165" lon="5.88645">
        <ele>1319.07</ele>
        <time>2020-07-06T07:43:14Z</time>
      </trkpt>
      <trkpt lat="44.91164" lon="5.88664">
        <ele>1321.47</ele>
        <time>2020-07-06T07:43:35Z</time>
      </trkpt>
      <trkpt lat="44.91173" lon="5.88681">
        <ele>1324.83</ele>
        <time>2020-07-06T07:43:50Z</time>
      </trkpt>
      <trkpt lat="44.91184" lon="5.88692">
        <ele>1326.28</ele>
        <time>2020-07-06T07:44:00Z</time>
      </trkpt>
      <trkpt lat="44.9117" lon="5.88701">
        <ele>1328.2</ele>
        <time>2020-07-06T07:44:12Z</time>
      </trkpt>
      <trkpt lat="44.91159" lon="5.88711">
        <ele>1331.56</ele>
        <time>2020-07-06T07:44:28Z</time>
      </trkpt>
      <trkpt lat="44.91158" lon="5.88711">
        <ele>1332.04</ele>
        <time>2020-07-06T07:44:29Z</time>
      </trkpt>
      <trkpt lat="44.91133" lon="5.88714">
        <ele>1335.41</ele>
        <time>2020-07-06T07:44:41Z</time>
      </trkpt>
      <trkpt lat="44.91124" lon="5.88726">
        <ele>1338.29</ele>
        <time>2020-07-06T07:44:59Z</time>
      </trkpt>
      <trkpt lat="44.91116" lon="5.88738">
        <ele>1339.73</ele>
        <time>2020-07-06T07:45:14Z</time>
      </trkpt>
      <trkpt lat="44.91107" lon="5.88749">
        <ele>1341.66</ele>
        <time>2020-07-06T07:45:29Z</time>
      </trkpt>
      <trkpt lat="44.91096" lon="5.8876">
        <ele>1343.1</ele>
        <time>2020-07-06T07:45:43Z</time>
      </trkpt>
      <trkpt lat="44.91094" lon="5.88771">
        <ele>1343.58</ele>
        <time>2020-07-06T07:45:56Z</time>
      </trkpt>
      <trkpt lat="44.91091" lon="5.88779">
        <ele>1345.02</ele>
        <time>2020-07-06T07:46:10Z</time>
      </trkpt>
      <trkpt lat="44.91092" lon="5.88785">
        <ele>1345.98</ele>
        <time>2020-07-06T07:46:40Z</time>
      </trkpt>
      <trkpt lat="44.9109" lon="5.88789">
        <ele>1345.5</ele>
        <time>2020-07-06T07:47:01Z</time>
      </trkpt>
      <trkpt lat="44.91094" lon="5.88784">
        <ele>1345.02</ele>
        <time>2020-07-06T07:47:33Z</time>
      </trkpt>
      <trkpt lat="44.91094" lon="5.88789">
        <ele>1345.02</ele>
        <time>2020-07-06T07:48:05Z</time>
      </trkpt>
      <trkpt lat="44.91093" lon="5.88787">
        <ele>1345.02</ele>
        <time>2020-07-06T07:48:28Z</time>
      </trkpt>
      <trkpt lat="44.91095" lon="5.88782">
        <ele>1345.02</ele>
        <time>2020-07-06T07:48:50Z</time>
      </trkpt>
      <trkpt lat="44.91096" lon="5.88786">
        <ele>1345.02</ele>
        <time>2020-07-06T07:49:09Z</time>
      </trkpt>
      <trkpt lat="44.911" lon="5.88791">
        <ele>1347.43</ele>
        <time>2020-07-06T07:49:41Z</time>
      </trkpt>
      <trkpt lat="44.91107" lon="5.88801">
        <ele>1347.91</ele>
        <time>2020-07-06T07:49:57Z</time>
      </trkpt>
      <trkpt lat="44.91113" lon="5.88809">
        <ele>1349.83</ele>
        <time>2020-07-06T07:50:10Z</time>
      </trkpt>
      <trkpt lat="44.9112" lon="5.88817">
        <ele>1350.79</ele>
        <time>2020-07-06T07:50:26Z</time>
      </trkpt>
      <trkpt lat="44.91128" lon="5.88829">
        <ele>1353.67</ele>
        <time>2020-07-06T07:50:47Z</time>
      </trkpt>
      <trkpt lat="44.91136" lon="5.88838">
        <ele>1357.04</ele>
        <time>2020-07-06T07:51:06Z</time>
      </trkpt>
      <trkpt lat="44.9114" lon="5.8885">
        <ele>1359.92</ele>
        <time>2020-07-06T07:51:24Z</time>
      </trkpt>
      <trkpt lat="44.91148" lon="5.88855">
        <ele>1362.81</ele>
        <time>2020-07-06T07:51:42Z</time>
      </trkpt>
      <trkpt lat="44.91155" lon="5.88862">
        <ele>1365.69</ele>
        <time>2020-07-06T07:51:59Z</time>
      </trkpt>
      <trkpt lat="44.91161" lon="5.88866">
        <ele>1369.05</ele>
        <time>2020-07-06T07:52:14Z</time>
      </trkpt>
      <trkpt lat="44.9117" lon="5.88869">
        <ele>1372.42</ele>
        <time>2020-07-06T07:52:28Z</time>
      </trkpt>
      <trkpt lat="44.91177" lon="5.88877">
        <ele>1374.82</ele>
        <time>2020-07-06T07:52:44Z</time>
      </trkpt>
      <trkpt lat="44.91182" lon="5.88884">
        <ele>1378.19</ele>
        <time>2020-07-06T07:53:01Z</time>
      </trkpt>
      <trkpt lat="44.9119" lon="5.88887">
        <ele>1381.07</ele>
        <time>2020-07-06T07:53:17Z</time>
      </trkpt>
      <trkpt lat="44.91199" lon="5.88893">
        <ele>1383.96</ele>
        <time>2020-07-06T07:53:35Z</time>
      </trkpt>
      <trkpt lat="44.91208" lon="5.88901">
        <ele>1386.84</ele>
        <time>2020-07-06T07:53:55Z</time>
      </trkpt>
      <trkpt lat="44.9121" lon="5.88902">
        <ele>1387.32</ele>
        <time>2020-07-06T07:53:56Z</time>
      </trkpt>
      <trkpt lat="44.91223" lon="5.88909">
        <ele>1390.2</ele>
        <time>2020-07-06T07:54:14Z</time>
      </trkpt>
      <trkpt lat="44.91229" lon="5.88916">
        <ele>1393.57</ele>
        <time>2020-07-06T07:54:32Z</time>
      </trkpt>
      <trkpt lat="44.91234" lon="5.88921">
        <ele>1396.45</ele>
        <time>2020-07-06T07:54:47Z</time>
      </trkpt>
      <trkpt lat="44.9124" lon="5.88924">
        <ele>1399.82</ele>
        <time>2020-07-06T07:55:03Z</time>
      </trkpt>
      <trkpt lat="44.91249" lon="5.88929">
        <ele>1402.7</ele>
        <time>2020-07-06T07:55:20Z</time>
      </trkpt>
      <trkpt lat="44.91255" lon="5.88937">
        <ele>1406.07</ele>
        <time>2020-07-06T07:55:36Z</time>
      </trkpt>
      <trkpt lat="44.91253" lon="5.88944">
        <ele>1408.95</ele>
        <time>2020-07-06T07:55:54Z</time>
      </trkpt>
      <trkpt lat="44.91252" lon="5.88952">
        <ele>1412.31</ele>
        <time>2020-07-06T07:56:11Z</time>
      </trkpt>
      <trkpt lat="44.91257" lon="5.88956">
        <ele>1414.24</ele>
        <time>2020-07-06T07:56:30Z</time>
      </trkpt>
      <trkpt lat="44.91259" lon="5.88961">
        <ele>1415.68</ele>
        <time>2020-07-06T07:56:50Z</time>
      </trkpt>
      <trkpt lat="44.9127" lon="5.88969">
        <ele>1419.04</ele>
        <time>2020-07-06T07:57:10Z</time>
      </trkpt>
      <trkpt lat="44.91271" lon="5.8897">
        <ele>1419.04</ele>
        <time>2020-07-06T07:57:11Z</time>
      </trkpt>
      <trkpt lat="44.9127" lon="5.88979">
        <ele>1421.93</ele>
        <time>2020-07-06T07:57:28Z</time>
      </trkpt>
      <trkpt lat="44.91261" lon="5.88985">
        <ele>1424.81</ele>
        <time>2020-07-06T07:57:45Z</time>
      </trkpt>
      <trkpt lat="44.91257" lon="5.88994">
        <ele>1427.21</ele>
        <time>2020-07-06T07:58:00Z</time>
      </trkpt>
      <trkpt lat="44.91261" lon="5.89005">
        <ele>1430.58</ele>
        <time>2020-07-06T07:58:19Z</time>
      </trkpt>
      <trkpt lat="44.91268" lon="5.8901">
        <ele>1433.46</ele>
        <time>2020-07-06T07:58:37Z</time>
      </trkpt>
      <trkpt lat="44.91277" lon="5.8901">
        <ele>1436.83</ele>
        <time>2020-07-06T07:58:57Z</time>
      </trkpt>
      <trkpt lat="44.91284" lon="5.89014">
        <ele>1439.71</ele>
        <time>2020-07-06T07:59:15Z</time>
      </trkpt>
      <trkpt lat="44.91288" lon="5.89019">
        <ele>1442.11</ele>
        <time>2020-07-06T07:59:29Z</time>
      </trkpt>
      <trkpt lat="44.91293" lon="5.89028">
        <ele>1445</ele>
        <time>2020-07-06T07:59:46Z</time>
      </trkpt>
      <trkpt lat="44.91304" lon="5.8903">
        <ele>1447.88</ele>
        <time>2020-07-06T08:00:02Z</time>
      </trkpt>
      <trkpt lat="44.91314" lon="5.89035">
        <ele>1451.25</ele>
        <time>2020-07-06T08:00:18Z</time>
      </trkpt>
      <trkpt lat="44.91324" lon="5.89041">
        <ele>1454.13</ele>
        <time>2020-07-06T08:00:38Z</time>
      </trkpt>
      <trkpt lat="44.91333" lon="5.89042">
        <ele>1456.53</ele>
        <time>2020-07-06T08:00:54Z</time>
      </trkpt>
      <trkpt lat="44.91345" lon="5.89048">
        <ele>1459.42</ele>
        <time>2020-07-06T08:01:12Z</time>
      </trkpt>
      <trkpt lat="44.91353" lon="5.89055">
        <ele>1462.3</ele>
        <time>2020-07-06T08:01:29Z</time>
      </trkpt>
      <trkpt lat="44.91361" lon="5.8906">
        <ele>1465.19</ele>
        <time>2020-07-06T08:01:45Z</time>
      </trkpt>
      <trkpt lat="44.91367" lon="5.89064">
        <ele>1467.59</ele>
        <time>2020-07-06T08:01:59Z</time>
      </trkpt>
      <trkpt lat="44.91373" lon="5.89069">
        <ele>1470.47</ele>
        <time>2020-07-06T08:02:17Z</time>
      </trkpt>
      <trkpt lat="44.91379" lon="5.89076">
        <ele>1473.36</ele>
        <time>2020-07-06T08:02:36Z</time>
      </trkpt>
      <trkpt lat="44.91385" lon="5.89081">
        <ele>1476.24</ele>
        <time>2020-07-06T08:02:55Z</time>
      </trkpt>
      <trkpt lat="44.91391" lon="5.89087">
        <ele>1478.65</ele>
        <time>2020-07-06T08:03:11Z</time>
      </trkpt>
      <trkpt lat="44.91393" lon="5.89095">
        <ele>1482.01</ele>
        <time>2020-07-06T08:03:24Z</time>
      </trkpt>
      <trkpt lat="44.91399" lon="5.89103">
        <ele>1484.89</ele>
        <time>2020-07-06T08:03:44Z</time>
      </trkpt>
      <trkpt lat="44.91407" lon="5.89111">
        <ele>1488.26</ele>
        <time>2020-07-06T08:04:02Z</time>
      </trkpt>
      <trkpt lat="44.91413" lon="5.89114">
        <ele>1489.7</ele>
        <time>2020-07-06T08:04:13Z</time>
      </trkpt>
      <trkpt lat="44.91416" lon="5.89118">
        <ele>1490.18</ele>
        <time>2020-07-06T08:04:17Z</time>
      </trkpt>
      <trkpt lat="44.91425" lon="5.89123">
        <ele>1493.55</ele>
        <time>2020-07-06T08:04:35Z</time>
      </trkpt>
      <trkpt lat="44.91428" lon="5.89128">
        <ele>1496.43</ele>
        <time>2020-07-06T08:04:53Z</time>
      </trkpt>
      <trkpt lat="44.91435" lon="5.89133">
        <ele>1499.79</ele>
        <time>2020-07-06T08:05:09Z</time>
      </trkpt>
      <trkpt lat="44.91434" lon="5.89144">
        <ele>1502.2</ele>
        <time>2020-07-06T08:05:24Z</time>
      </trkpt>
      <trkpt lat="44.91427" lon="5.89157">
        <ele>1504.6</ele>
        <time>2020-07-06T08:05:43Z</time>
      </trkpt>
      <trkpt lat="44.91417" lon="5.89162">
        <ele>1507</ele>
        <time>2020-07-06T08:05:58Z</time>
      </trkpt>
      <trkpt lat="44.91405" lon="5.89164">
        <ele>1509.89</ele>
        <time>2020-07-06T08:06:15Z</time>
      </trkpt>
      <trkpt lat="44.91397" lon="5.89167">
        <ele>1512.29</ele>
        <time>2020-07-06T08:06:32Z</time>
      </trkpt>
      <trkpt lat="44.91391" lon="5.89172">
        <ele>1514.21</ele>
        <time>2020-07-06T08:06:46Z</time>
      </trkpt>
      <trkpt lat="44.91387" lon="5.8918">
        <ele>1517.1</ele>
        <time>2020-07-06T08:07:01Z</time>
      </trkpt>
      <trkpt lat="44.91385" lon="5.89192">
        <ele>1519.98</ele>
        <time>2020-07-06T08:07:16Z</time>
      </trkpt>
      <trkpt lat="44.91385" lon="5.8921">
        <ele>1521.42</ele>
        <time>2020-07-06T08:07:32Z</time>
      </trkpt>
      <trkpt lat="44.91388" lon="5.89228">
        <ele>1524.79</ele>
        <time>2020-07-06T08:07:50Z</time>
      </trkpt>
      <trkpt lat="44.91396" lon="5.8924">
        <ele>1526.71</ele>
        <time>2020-07-06T08:08:06Z</time>
      </trkpt>
      <trkpt lat="44.91401" lon="5.89256">
        <ele>1529.11</ele>
        <time>2020-07-06T08:08:23Z</time>
      </trkpt>
      <trkpt lat="44.91404" lon="5.89271">
        <ele>1531.04</ele>
        <time>2020-07-06T08:08:41Z</time>
      </trkpt>
      <trkpt lat="44.91408" lon="5.89286">
        <ele>1533.44</ele>
        <time>2020-07-06T08:08:58Z</time>
      </trkpt>
      <trkpt lat="44.91414" lon="5.89295">
        <ele>1535.36</ele>
        <time>2020-07-06T08:09:12Z</time>
      </trkpt>
      <trkpt lat="44.91417" lon="5.89308">
        <ele>1537.77</ele>
        <time>2020-07-06T08:09:29Z</time>
      </trkpt>
      <trkpt lat="44.91418" lon="5.89318">
        <ele>1541.13</ele>
        <time>2020-07-06T08:09:44Z</time>
      </trkpt>
      <trkpt lat="44.91421" lon="5.8933">
        <ele>1544.01</ele>
        <time>2020-07-06T08:10:00Z</time>
      </trkpt>
      <trkpt lat="44.91422" lon="5.89341">
        <ele>1546.42</ele>
        <time>2020-07-06T08:10:15Z</time>
      </trkpt>
      <trkpt lat="44.91422" lon="5.89358">
        <ele>1548.82</ele>
        <time>2020-07-06T08:10:33Z</time>
      </trkpt>
      <trkpt lat="44.91423" lon="5.89374">
        <ele>1551.71</ele>
        <time>2020-07-06T08:10:52Z</time>
      </trkpt>
      <trkpt lat="44.91425" lon="5.89385">
        <ele>1553.63</ele>
        <time>2020-07-06T08:11:06Z</time>
      </trkpt>
      <trkpt lat="44.91431" lon="5.89398">
        <ele>1556.51</ele>
        <time>2020-07-06T08:11:23Z</time>
      </trkpt>
      <trkpt lat="44.91438" lon="5.8941">
        <ele>1559.4</ele>
        <time>2020-07-06T08:11:38Z</time>
      </trkpt>
      <trkpt lat="44.91447" lon="5.89423">
        <ele>1560.84</ele>
        <time>2020-07-06T08:11:52Z</time>
      </trkpt>
      <trkpt lat="44.91457" lon="5.89436">
        <ele>1562.76</ele>
        <time>2020-07-06T08:12:10Z</time>
      </trkpt>
      <trkpt lat="44.91465" lon="5.89449">
        <ele>1564.68</ele>
        <time>2020-07-06T08:12:25Z</time>
      </trkpt>
      <trkpt lat="44.91477" lon="5.89464">
        <ele>1567.09</ele>
        <time>2020-07-06T08:12:46Z</time>
      </trkpt>
      <trkpt lat="44.91484" lon="5.89474">
        <ele>1569.01</ele>
        <time>2020-07-06T08:13:01Z</time>
      </trkpt>
      <trkpt lat="44.91492" lon="5.89482">
        <ele>1571.41</ele>
        <time>2020-07-06T08:13:16Z</time>
      </trkpt>
      <trkpt lat="44.91498" lon="5.8949">
        <ele>1573.82</ele>
        <time>2020-07-06T08:13:31Z</time>
      </trkpt>
      <trkpt lat="44.91506" lon="5.89497">
        <ele>1575.74</ele>
        <time>2020-07-06T08:13:46Z</time>
      </trkpt>
      <trkpt lat="44.91513" lon="5.89505">
        <ele>1577.66</ele>
        <time>2020-07-06T08:14:02Z</time>
      </trkpt>
      <trkpt lat="44.91518" lon="5.89515">
        <ele>1581.03</ele>
        <time>2020-07-06T08:14:20Z</time>
      </trkpt>
      <trkpt lat="44.91521" lon="5.89523">
        <ele>1582.95</ele>
        <time>2020-07-06T08:14:32Z</time>
      </trkpt>
      <trkpt lat="44.91527" lon="5.89532">
        <ele>1585.83</ele>
        <time>2020-07-06T08:14:51Z</time>
      </trkpt>
      <trkpt lat="44.91534" lon="5.89542">
        <ele>1589.2</ele>
        <time>2020-07-06T08:15:10Z</time>
      </trkpt>
      <trkpt lat="44.91539" lon="5.89555">
        <ele>1591.6</ele>
        <time>2020-07-06T08:15:27Z</time>
      </trkpt>
      <trkpt lat="44.91544" lon="5.89567">
        <ele>1593.52</ele>
        <time>2020-07-06T08:15:41Z</time>
      </trkpt>
      <trkpt lat="44.91546" lon="5.8957">
        <ele>1591.12</ele>
        <time>2020-07-06T08:15:54Z</time>
      </trkpt>
      <trkpt lat="44.91546" lon="5.89571">
        <ele>1594.48</ele>
        <time>2020-07-06T08:15:59Z</time>
      </trkpt>
      <trkpt lat="44.91546" lon="5.89572">
        <ele>1594.48</ele>
        <time>2020-07-06T08:16:00Z</time>
      </trkpt>
      <trkpt lat="44.91547" lon="5.89572">
        <ele>1591.6</ele>
        <time>2020-07-06T08:16:18Z</time>
      </trkpt>
      <trkpt lat="44.91547" lon="5.89572">
        <ele>1593.52</ele>
        <time>2020-07-06T08:16:23Z</time>
      </trkpt>
      <trkpt lat="44.91552" lon="5.89584">
        <ele>1593.04</ele>
        <time>2020-07-06T08:16:37Z</time>
      </trkpt>
      <trkpt lat="44.91558" lon="5.89597">
        <ele>1592.56</ele>
        <time>2020-07-06T08:16:54Z</time>
      </trkpt>
      <trkpt lat="44.91561" lon="5.896">
        <ele>1596.41</ele>
        <time>2020-07-06T08:16:59Z</time>
      </trkpt>
      <trkpt lat="44.91565" lon="5.89607">
        <ele>1596.89</ele>
        <time>2020-07-06T08:17:17Z</time>
      </trkpt>
      <trkpt lat="44.91566" lon="5.89608">
        <ele>1599.77</ele>
        <time>2020-07-06T08:17:30Z</time>
      </trkpt>
      <trkpt lat="44.91566" lon="5.89607">
        <ele>1598.81</ele>
        <time>2020-07-06T08:17:40Z</time>
      </trkpt>
      <trkpt lat="44.91567" lon="5.89608">
        <ele>1600.25</ele>
        <time>2020-07-06T08:17:46Z</time>
      </trkpt>
      <trkpt lat="44.91571" lon="5.89611">
        <ele>1601.21</ele>
        <time>2020-07-06T08:18:10Z</time>
      </trkpt>
      <trkpt lat="44.91581" lon="5.89622">
        <ele>1603.14</ele>
        <time>2020-07-06T08:18:27Z</time>
      </trkpt>
      <trkpt lat="44.91582" lon="5.89622">
        <ele>1604.1</ele>
        <time>2020-07-06T08:18:41Z</time>
      </trkpt>
      <trkpt lat="44.91583" lon="5.89622">
        <ele>1607.46</ele>
        <time>2020-07-06T08:18:46Z</time>
      </trkpt>
      <trkpt lat="44.91587" lon="5.89636">
        <ele>1607.46</ele>
        <time>2020-07-06T08:19:03Z</time>
      </trkpt>
      <trkpt lat="44.91589" lon="5.89654">
        <ele>1609.38</ele>
        <time>2020-07-06T08:19:21Z</time>
      </trkpt>
      <trkpt lat="44.91592" lon="5.89683">
        <ele>1610.83</ele>
        <time>2020-07-06T08:19:47Z</time>
      </trkpt>
      <trkpt lat="44.91591" lon="5.89685">
        <ele>1612.27</ele>
        <time>2020-07-06T08:19:50Z</time>
      </trkpt>
      <trkpt lat="44.91591" lon="5.89692">
        <ele>1614.19</ele>
        <time>2020-07-06T08:20:09Z</time>
      </trkpt>
      <trkpt lat="44.91591" lon="5.89695">
        <ele>1614.19</ele>
        <time>2020-07-06T08:20:12Z</time>
      </trkpt>
      <trkpt lat="44.91592" lon="5.89714">
        <ele>1613.23</ele>
        <time>2020-07-06T08:20:28Z</time>
      </trkpt>
      <trkpt lat="44.9159" lon="5.89729">
        <ele>1616.11</ele>
        <time>2020-07-06T08:20:40Z</time>
      </trkpt>
      <trkpt lat="44.91587" lon="5.89743">
        <ele>1617.56</ele>
        <time>2020-07-06T08:20:58Z</time>
      </trkpt>
      <trkpt lat="44.91586" lon="5.8975">
        <ele>1617.56</ele>
        <time>2020-07-06T08:21:13Z</time>
      </trkpt>
      <trkpt lat="44.91587" lon="5.89759">
        <ele>1620.44</ele>
        <time>2020-07-06T08:21:30Z</time>
      </trkpt>
      <trkpt lat="44.91589" lon="5.89768">
        <ele>1623.32</ele>
        <time>2020-07-06T08:21:49Z</time>
      </trkpt>
      <trkpt lat="44.91593" lon="5.89775">
        <ele>1626.69</ele>
        <time>2020-07-06T08:22:08Z</time>
      </trkpt>
      <trkpt lat="44.91596" lon="5.89781">
        <ele>1629.57</ele>
        <time>2020-07-06T08:22:26Z</time>
      </trkpt>
      <trkpt lat="44.91602" lon="5.89784">
        <ele>1632.94</ele>
        <time>2020-07-06T08:22:44Z</time>
      </trkpt>
      <trkpt lat="44.91605" lon="5.89787">
        <ele>1635.82</ele>
        <time>2020-07-06T08:23:00Z</time>
      </trkpt>
      <trkpt lat="44.91611" lon="5.89786">
        <ele>1639.19</ele>
        <time>2020-07-06T08:23:17Z</time>
      </trkpt>
      <trkpt lat="44.91618" lon="5.89787">
        <ele>1642.07</ele>
        <time>2020-07-06T08:23:35Z</time>
      </trkpt>
      <trkpt lat="44.91623" lon="5.89789">
        <ele>1644.95</ele>
        <time>2020-07-06T08:23:51Z</time>
      </trkpt>
      <trkpt lat="44.91625" lon="5.89792">
        <ele>1647.36</ele>
        <time>2020-07-06T08:24:07Z</time>
      </trkpt>
      <trkpt lat="44.91625" lon="5.89799">
        <ele>1649.28</ele>
        <time>2020-07-06T08:24:24Z</time>
      </trkpt>
      <trkpt lat="44.9163" lon="5.89799">
        <ele>1652.16</ele>
        <time>2020-07-06T08:24:41Z</time>
      </trkpt>
      <trkpt lat="44.91629" lon="5.89807">
        <ele>1654.57</ele>
        <time>2020-07-06T08:24:56Z</time>
      </trkpt>
      <trkpt lat="44.91631" lon="5.89812">
        <ele>1656.97</ele>
        <time>2020-07-06T08:25:15Z</time>
      </trkpt>
      <trkpt lat="44.91633" lon="5.89819">
        <ele>1659.85</ele>
        <time>2020-07-06T08:25:30Z</time>
      </trkpt>
      <trkpt lat="44.91635" lon="5.89827">
        <ele>1662.74</ele>
        <time>2020-07-06T08:25:48Z</time>
      </trkpt>
      <trkpt lat="44.91637" lon="5.89835">
        <ele>1665.62</ele>
        <time>2020-07-06T08:26:05Z</time>
      </trkpt>
      <trkpt lat="44.91641" lon="5.89839">
        <ele>1668.02</ele>
        <time>2020-07-06T08:26:22Z</time>
      </trkpt>
      <trkpt lat="44.91645" lon="5.89844">
        <ele>1670.43</ele>
        <time>2020-07-06T08:26:38Z</time>
      </trkpt>
      <trkpt lat="44.91649" lon="5.89842">
        <ele>1672.83</ele>
        <time>2020-07-06T08:26:52Z</time>
      </trkpt>
      <trkpt lat="44.91653" lon="5.89841">
        <ele>1675.23</ele>
        <time>2020-07-06T08:27:07Z</time>
      </trkpt>
      <trkpt lat="44.91653" lon="5.89848">
        <ele>1677.64</ele>
        <time>2020-07-06T08:27:21Z</time>
      </trkpt>
      <trkpt lat="44.91654" lon="5.89853">
        <ele>1679.08</ele>
        <time>2020-07-06T08:27:44Z</time>
      </trkpt>
      <trkpt lat="44.9166" lon="5.89863">
        <ele>1681.96</ele>
        <time>2020-07-06T08:28:02Z</time>
      </trkpt>
      <trkpt lat="44.91663" lon="5.89871">
        <ele>1684.85</ele>
        <time>2020-07-06T08:28:19Z</time>
      </trkpt>
      <trkpt lat="44.91669" lon="5.89875">
        <ele>1688.21</ele>
        <time>2020-07-06T08:28:36Z</time>
      </trkpt>
      <trkpt lat="44.91676" lon="5.89878">
        <ele>1691.58</ele>
        <time>2020-07-06T08:28:54Z</time>
      </trkpt>
      <trkpt lat="44.91683" lon="5.89879">
        <ele>1694.46</ele>
        <time>2020-07-06T08:29:12Z</time>
      </trkpt>
      <trkpt lat="44.91686" lon="5.89886">
        <ele>1697.34</ele>
        <time>2020-07-06T08:29:30Z</time>
      </trkpt>
      <trkpt lat="44.91688" lon="5.89893">
        <ele>1700.23</ele>
        <time>2020-07-06T08:29:47Z</time>
      </trkpt>
      <trkpt lat="44.91693" lon="5.89899">
        <ele>1702.63</ele>
        <time>2020-07-06T08:30:04Z</time>
      </trkpt>
      <trkpt lat="44.91698" lon="5.89904">
        <ele>1705.52</ele>
        <time>2020-07-06T08:30:22Z</time>
      </trkpt>
      <trkpt lat="44.917" lon="5.89909">
        <ele>1708.4</ele>
        <time>2020-07-06T08:30:39Z</time>
      </trkpt>
      <trkpt lat="44.917" lon="5.89915">
        <ele>1710.8</ele>
        <time>2020-07-06T08:30:52Z</time>
      </trkpt>
      <trkpt lat="44.91702" lon="5.89924">
        <ele>1713.69</ele>
        <time>2020-07-06T08:31:09Z</time>
      </trkpt>
      <trkpt lat="44.91705" lon="5.89932">
        <ele>1714.17</ele>
        <time>2020-07-06T08:31:24Z</time>
      </trkpt>
      <trkpt lat="44.91706" lon="5.89935">
        <ele>1712.25</ele>
        <time>2020-07-06T08:31:40Z</time>
      </trkpt>
      <trkpt lat="44.91705" lon="5.89935">
        <ele>1715.61</ele>
        <time>2020-07-06T08:31:43Z</time>
      </trkpt>
      <trkpt lat="44.91705" lon="5.89936">
        <ele>1718.01</ele>
        <time>2020-07-06T08:31:47Z</time>
      </trkpt>
      <trkpt lat="44.91705" lon="5.89936">
        <ele>1715.13</ele>
        <time>2020-07-06T08:31:51Z</time>
      </trkpt>
      <trkpt lat="44.91705" lon="5.89936">
        <ele>1713.69</ele>
        <time>2020-07-06T08:31:53Z</time>
      </trkpt>
      <trkpt lat="44.91705" lon="5.89936">
        <ele>1716.57</ele>
        <time>2020-07-06T08:31:57Z</time>
      </trkpt>
      <trkpt lat="44.91706" lon="5.89938">
        <ele>1716.57</ele>
        <time>2020-07-06T08:32:25Z</time>
      </trkpt>
      <trkpt lat="44.91706" lon="5.89938">
        <ele>1716.09</ele>
        <time>2020-07-06T08:32:54Z</time>
      </trkpt>
      <trkpt lat="44.91711" lon="5.89942">
        <ele>1717.05</ele>
        <time>2020-07-06T08:33:09Z</time>
      </trkpt>
      <trkpt lat="44.91714" lon="5.89951">
        <ele>1717.05</ele>
        <time>2020-07-06T08:33:25Z</time>
      </trkpt>
      <trkpt lat="44.91715" lon="5.89963">
        <ele>1717.05</ele>
        <time>2020-07-06T08:33:40Z</time>
      </trkpt>
      <trkpt lat="44.91719" lon="5.89973">
        <ele>1717.05</ele>
        <time>2020-07-06T08:33:58Z</time>
      </trkpt>
      <trkpt lat="44.91721" lon="5.89977">
        <ele>1727.15</ele>
        <time>2020-07-06T08:34:10Z</time>
      </trkpt>
      <trkpt lat="44.91721" lon="5.89977">
        <ele>1727.15</ele>
        <time>2020-07-06T08:34:11Z</time>
      </trkpt>
      <trkpt lat="44.91724" lon="5.89987">
        <ele>1730.03</ele>
        <time>2020-07-06T08:34:32Z</time>
      </trkpt>
      <trkpt lat="44.91726" lon="5.89994">
        <ele>1732.43</ele>
        <time>2020-07-06T08:34:48Z</time>
      </trkpt>
      <trkpt lat="44.91727" lon="5.9">
        <ele>1735.32</ele>
        <time>2020-07-06T08:35:05Z</time>
      </trkpt>
      <trkpt lat="44.91728" lon="5.90006">
        <ele>1734.36</ele>
        <time>2020-07-06T08:35:16Z</time>
      </trkpt>
      <trkpt lat="44.91728" lon="5.90009">
        <ele>1738.68</ele>
        <time>2020-07-06T08:35:24Z</time>
      </trkpt>
      <trkpt lat="44.91731" lon="5.90019">
        <ele>1741.08</ele>
        <time>2020-07-06T08:35:45Z</time>
      </trkpt>
      <trkpt lat="44.91734" lon="5.90028">
        <ele>1743.97</ele>
        <time>2020-07-06T08:36:02Z</time>
      </trkpt>
      <trkpt lat="44.91737" lon="5.90035">
        <ele>1746.37</ele>
        <time>2020-07-06T08:36:17Z</time>
      </trkpt>
      <trkpt lat="44.91739" lon="5.90044">
        <ele>1748.78</ele>
        <time>2020-07-06T08:36:32Z</time>
      </trkpt>
      <trkpt lat="44.91741" lon="5.9005">
        <ele>1751.66</ele>
        <time>2020-07-06T08:36:46Z</time>
      </trkpt>
      <trkpt lat="44.91744" lon="5.90058">
        <ele>1754.54</ele>
        <time>2020-07-06T08:37:05Z</time>
      </trkpt>
      <trkpt lat="44.91748" lon="5.90064">
        <ele>1757.91</ele>
        <time>2020-07-06T08:37:26Z</time>
      </trkpt>
      <trkpt lat="44.91753" lon="5.9007">
        <ele>1760.79</ele>
        <time>2020-07-06T08:37:42Z</time>
      </trkpt>
      <trkpt lat="44.91758" lon="5.90072">
        <ele>1763.68</ele>
        <time>2020-07-06T08:37:59Z</time>
      </trkpt>
      <trkpt lat="44.91763" lon="5.90077">
        <ele>1767.04</ele>
        <time>2020-07-06T08:38:20Z</time>
      </trkpt>
      <trkpt lat="44.91765" lon="5.90083">
        <ele>1769.92</ele>
        <time>2020-07-06T08:38:37Z</time>
      </trkpt>
      <trkpt lat="44.91767" lon="5.90089">
        <ele>1772.81</ele>
        <time>2020-07-06T08:38:54Z</time>
      </trkpt>
      <trkpt lat="44.9177" lon="5.90096">
        <ele>1775.69</ele>
        <time>2020-07-06T08:39:12Z</time>
      </trkpt>
      <trkpt lat="44.91776" lon="5.901">
        <ele>1779.06</ele>
        <time>2020-07-06T08:39:30Z</time>
      </trkpt>
      <trkpt lat="44.91782" lon="5.90102">
        <ele>1782.42</ele>
        <time>2020-07-06T08:39:48Z</time>
      </trkpt>
      <trkpt lat="44.91783" lon="5.90109">
        <ele>1785.31</ele>
        <time>2020-07-06T08:40:09Z</time>
      </trkpt>
      <trkpt lat="44.91784" lon="5.90116">
        <ele>1788.19</ele>
        <time>2020-07-06T08:40:27Z</time>
      </trkpt>
      <trkpt lat="44.91786" lon="5.90124">
        <ele>1790.59</ele>
        <time>2020-07-06T08:40:46Z</time>
      </trkpt>
      <trkpt lat="44.91787" lon="5.9013">
        <ele>1793.48</ele>
        <time>2020-07-06T08:41:01Z</time>
      </trkpt>
      <trkpt lat="44.91789" lon="5.90137">
        <ele>1795.88</ele>
        <time>2020-07-06T08:41:15Z</time>
      </trkpt>
      <trkpt lat="44.91791" lon="5.90144">
        <ele>1797.8</ele>
        <time>2020-07-06T08:41:31Z</time>
      </trkpt>
      <trkpt lat="44.91798" lon="5.90148">
        <ele>1801.17</ele>
        <time>2020-07-06T08:41:50Z</time>
      </trkpt>
      <trkpt lat="44.91804" lon="5.90152">
        <ele>1804.05</ele>
        <time>2020-07-06T08:42:08Z</time>
      </trkpt>
      <trkpt lat="44.91808" lon="5.90157">
        <ele>1806.94</ele>
        <time>2020-07-06T08:42:27Z</time>
      </trkpt>
      <trkpt lat="44.91815" lon="5.90161">
        <ele>1809.82</ele>
        <time>2020-07-06T08:42:46Z</time>
      </trkpt>
      <trkpt lat="44.91813" lon="5.90166">
        <ele>1811.74</ele>
        <time>2020-07-06T08:42:59Z</time>
      </trkpt>
      <trkpt lat="44.91814" lon="5.90173">
        <ele>1814.15</ele>
        <time>2020-07-06T08:43:14Z</time>
      </trkpt>
      <trkpt lat="44.91819" lon="5.90177">
        <ele>1816.07</ele>
        <time>2020-07-06T08:43:30Z</time>
      </trkpt>
      <trkpt lat="44.91825" lon="5.90183">
        <ele>1819.43</ele>
        <time>2020-07-06T08:43:49Z</time>
      </trkpt>
      <trkpt lat="44.91829" lon="5.90186">
        <ele>1819.43</ele>
        <time>2020-07-06T08:44:05Z</time>
      </trkpt>
      <trkpt lat="44.9183" lon="5.90186">
        <ele>1822.8</ele>
        <time>2020-07-06T08:44:08Z</time>
      </trkpt>
      <trkpt lat="44.91831" lon="5.90187">
        <ele>1823.76</ele>
        <time>2020-07-06T08:44:10Z</time>
      </trkpt>
      <trkpt lat="44.91834" lon="5.90191">
        <ele>1823.76</ele>
        <time>2020-07-06T08:44:27Z</time>
      </trkpt>
      <trkpt lat="44.91837" lon="5.90196">
        <ele>1825.68</ele>
        <time>2020-07-06T08:44:42Z</time>
      </trkpt>
      <trkpt lat="44.91843" lon="5.90202">
        <ele>1828.56</ele>
        <time>2020-07-06T08:45:01Z</time>
      </trkpt>
      <trkpt lat="44.91848" lon="5.90209">
        <ele>1831.45</ele>
        <time>2020-07-06T08:45:19Z</time>
      </trkpt>
      <trkpt lat="44.91854" lon="5.90215">
        <ele>1834.81</ele>
        <time>2020-07-06T08:45:35Z</time>
      </trkpt>
      <trkpt lat="44.91859" lon="5.90224">
        <ele>1837.22</ele>
        <time>2020-07-06T08:45:55Z</time>
      </trkpt>
      <trkpt lat="44.91863" lon="5.9023">
        <ele>1840.1</ele>
        <time>2020-07-06T08:46:12Z</time>
      </trkpt>
      <trkpt lat="44.91865" lon="5.90236">
        <ele>1842.98</ele>
        <time>2020-07-06T08:46:27Z</time>
      </trkpt>
      <trkpt lat="44.91865" lon="5.90242">
        <ele>1845.87</ele>
        <time>2020-07-06T08:46:45Z</time>
      </trkpt>
      <trkpt lat="44.91869" lon="5.90248">
        <ele>1848.75</ele>
        <time>2020-07-06T08:47:05Z</time>
      </trkpt>
      <trkpt lat="44.9187" lon="5.90254">
        <ele>1851.64</ele>
        <time>2020-07-06T08:47:23Z</time>
      </trkpt>
      <trkpt lat="44.91875" lon="5.90263">
        <ele>1855</ele>
        <time>2020-07-06T08:47:40Z</time>
      </trkpt>
      <trkpt lat="44.91879" lon="5.90276">
        <ele>1854.52</ele>
        <time>2020-07-06T08:47:52Z</time>
      </trkpt>
      <trkpt lat="44.91882" lon="5.90279">
        <ele>1857.4</ele>
        <time>2020-07-06T08:47:56Z</time>
      </trkpt>
      <trkpt lat="44.91894" lon="5.90289">
        <ele>1855.96</ele>
        <time>2020-07-06T08:48:12Z</time>
      </trkpt>
      <trkpt lat="44.91903" lon="5.90299">
        <ele>1855.48</ele>
        <time>2020-07-06T08:48:25Z</time>
      </trkpt>
      <trkpt lat="44.91918" lon="5.90318">
        <ele>1854.52</ele>
        <time>2020-07-06T08:48:44Z</time>
      </trkpt>
      <trkpt lat="44.91921" lon="5.90324">
        <ele>1854.52</ele>
        <time>2020-07-06T08:48:50Z</time>
      </trkpt>
      <trkpt lat="44.91928" lon="5.90338">
        <ele>1854.52</ele>
        <time>2020-07-06T08:49:05Z</time>
      </trkpt>
      <trkpt lat="44.91946" lon="5.90351">
        <ele>1852.6</ele>
        <time>2020-07-06T08:49:25Z</time>
      </trkpt>
      <trkpt lat="44.91959" lon="5.9036">
        <ele>1851.64</ele>
        <time>2020-07-06T08:49:41Z</time>
      </trkpt>
      <trkpt lat="44.91963" lon="5.90364">
        <ele>1855</ele>
        <time>2020-07-06T08:49:48Z</time>
      </trkpt>
      <trkpt lat="44.9197" lon="5.90371">
        <ele>1856.44</ele>
        <time>2020-07-06T08:50:04Z</time>
      </trkpt>
      <trkpt lat="44.91969" lon="5.9037">
        <ele>1857.89</ele>
        <time>2020-07-06T08:50:18Z</time>
      </trkpt>
      <trkpt lat="44.91962" lon="5.90358">
        <ele>1856.44</ele>
        <time>2020-07-06T08:50:32Z</time>
      </trkpt>
      <trkpt lat="44.91962" lon="5.90349">
        <ele>1853.56</ele>
        <time>2020-07-06T08:50:48Z</time>
      </trkpt>
      <trkpt lat="44.91962" lon="5.90348">
        <ele>1852.6</ele>
        <time>2020-07-06T08:51:12Z</time>
      </trkpt>
      <trkpt lat="44.91961" lon="5.90348">
        <ele>1851.16</ele>
        <time>2020-07-06T08:51:35Z</time>
      </trkpt>
      <trkpt lat="44.9196" lon="5.90346">
        <ele>1851.16</ele>
        <time>2020-07-06T08:52:13Z</time>
      </trkpt>
      <trkpt lat="44.9196" lon="5.90346">
        <ele>1845.87</ele>
        <time>2020-07-06T08:52:27Z</time>
      </trkpt>
      <trkpt lat="44.91959" lon="5.90345">
        <ele>1850.19</ele>
        <time>2020-07-06T08:52:32Z</time>
      </trkpt>
      <trkpt lat="44.91959" lon="5.90345">
        <ele>1854.04</ele>
        <time>2020-07-06T08:52:35Z</time>
      </trkpt>
      <trkpt lat="44.91959" lon="5.90345">
        <ele>1854.04</ele>
        <time>2020-07-06T08:52:36Z</time>
      </trkpt>
      <trkpt lat="44.91961" lon="5.90346">
        <ele>1851.64</ele>
        <time>2020-07-06T08:53:04Z</time>
      </trkpt>
      <trkpt lat="44.91962" lon="5.90345">
        <ele>1850.19</ele>
        <time>2020-07-06T08:53:31Z</time>
      </trkpt>
      <trkpt lat="44.91963" lon="5.90352">
        <ele>1852.12</ele>
        <time>2020-07-06T08:53:49Z</time>
      </trkpt>
      <trkpt lat="44.91965" lon="5.90364">
        <ele>1853.08</ele>
        <time>2020-07-06T08:54:04Z</time>
      </trkpt>
      <trkpt lat="44.91973" lon="5.90375">
        <ele>1855.96</ele>
        <time>2020-07-06T08:54:21Z</time>
      </trkpt>
      <trkpt lat="44.91979" lon="5.90387">
        <ele>1858.85</ele>
        <time>2020-07-06T08:54:40Z</time>
      </trkpt>
      <trkpt lat="44.91984" lon="5.90394">
        <ele>1861.25</ele>
        <time>2020-07-06T08:54:56Z</time>
      </trkpt>
      <trkpt lat="44.9199" lon="5.90402">
        <ele>1864.13</ele>
        <time>2020-07-06T08:55:13Z</time>
      </trkpt>
      <trkpt lat="44.91996" lon="5.90407">
        <ele>1867.5</ele>
        <time>2020-07-06T08:55:30Z</time>
      </trkpt>
      <trkpt lat="44.91998" lon="5.90414">
        <ele>1870.38</ele>
        <time>2020-07-06T08:55:47Z</time>
      </trkpt>
      <trkpt lat="44.92001" lon="5.90422">
        <ele>1873.27</ele>
        <time>2020-07-06T08:56:02Z</time>
      </trkpt>
      <trkpt lat="44.92002" lon="5.90433">
        <ele>1876.15</ele>
        <time>2020-07-06T08:56:18Z</time>
      </trkpt>
      <trkpt lat="44.92008" lon="5.9044">
        <ele>1879.03</ele>
        <time>2020-07-06T08:56:35Z</time>
      </trkpt>
      <trkpt lat="44.92012" lon="5.90445">
        <ele>1882.4</ele>
        <time>2020-07-06T08:56:54Z</time>
      </trkpt>
      <trkpt lat="44.92015" lon="5.90453">
        <ele>1885.28</ele>
        <time>2020-07-06T08:57:13Z</time>
      </trkpt>
      <trkpt lat="44.92018" lon="5.90461">
        <ele>1888.65</ele>
        <time>2020-07-06T08:57:31Z</time>
      </trkpt>
      <trkpt lat="44.92021" lon="5.90467">
        <ele>1890.57</ele>
        <time>2020-07-06T08:57:45Z</time>
      </trkpt>
      <trkpt lat="44.92025" lon="5.90474">
        <ele>1893.45</ele>
        <time>2020-07-06T08:58:05Z</time>
      </trkpt>
      <trkpt lat="44.92029" lon="5.90479">
        <ele>1896.34</ele>
        <time>2020-07-06T08:58:23Z</time>
      </trkpt>
      <trkpt lat="44.92034" lon="5.90492">
        <ele>1898.26</ele>
        <time>2020-07-06T08:58:39Z</time>
      </trkpt>
      <trkpt lat="44.92038" lon="5.90502">
        <ele>1901.63</ele>
        <time>2020-07-06T08:58:58Z</time>
      </trkpt>
      <trkpt lat="44.92043" lon="5.90509">
        <ele>1903.55</ele>
        <time>2020-07-06T08:59:12Z</time>
      </trkpt>
      <trkpt lat="44.92044" lon="5.90511">
        <ele>1896.34</ele>
        <time>2020-07-06T08:59:18Z</time>
      </trkpt>
      <trkpt lat="44.92044" lon="5.90511">
        <ele>1896.34</ele>
        <time>2020-07-06T08:59:19Z</time>
      </trkpt>
      <trkpt lat="44.92046" lon="5.90516">
        <ele>1896.34</ele>
        <time>2020-07-06T08:59:48Z</time>
      </trkpt>
      <trkpt lat="44.92048" lon="5.90519">
        <ele>1896.34</ele>
        <time>2020-07-06T09:00:12Z</time>
      </trkpt>
      <trkpt lat="44.92047" lon="5.9052">
        <ele>1906.43</ele>
        <time>2020-07-06T09:00:19Z</time>
      </trkpt>
      <trkpt lat="44.92047" lon="5.9052">
        <ele>1906.43</ele>
        <time>2020-07-06T09:00:20Z</time>
      </trkpt>
      <trkpt lat="44.92047" lon="5.9052">
        <ele>1906.43</ele>
        <time>2020-07-06T09:00:50Z</time>
      </trkpt>
      <trkpt lat="44.92046" lon="5.9052">
        <ele>1905.95</ele>
        <time>2020-07-06T09:01:26Z</time>
      </trkpt>
      <trkpt lat="44.92047" lon="5.9052">
        <ele>1905.47</ele>
        <time>2020-07-06T09:01:59Z</time>
      </trkpt>
      <trkpt lat="44.92046" lon="5.90519">
        <ele>1905.47</ele>
        <time>2020-07-06T09:02:39Z</time>
      </trkpt>
      <trkpt lat="44.92045" lon="5.9052">
        <ele>1906.43</ele>
        <time>2020-07-06T09:03:09Z</time>
      </trkpt>
      <trkpt lat="44.92046" lon="5.90519">
        <ele>1906.91</ele>
        <time>2020-07-06T09:03:40Z</time>
      </trkpt>
      <trkpt lat="44.92047" lon="5.9052">
        <ele>1907.87</ele>
        <time>2020-07-06T09:04:05Z</time>
      </trkpt>
      <trkpt lat="44.92048" lon="5.90521">
        <ele>1908.35</ele>
        <time>2020-07-06T09:04:48Z</time>
      </trkpt>
      <trkpt lat="44.92048" lon="5.90522">
        <ele>1908.35</ele>
        <time>2020-07-06T09:05:34Z</time>
      </trkpt>
      <trkpt lat="44.92048" lon="5.9052">
        <ele>1908.35</ele>
        <time>2020-07-06T09:06:13Z</time>
      </trkpt>
      <trkpt lat="44.9205" lon="5.90525">
        <ele>1906.43</ele>
        <time>2020-07-06T09:06:26Z</time>
      </trkpt>
      <trkpt lat="44.92057" lon="5.90527">
        <ele>1908.83</ele>
        <time>2020-07-06T09:06:40Z</time>
      </trkpt>
      <trkpt lat="44.92061" lon="5.90533">
        <ele>1910.28</ele>
        <time>2020-07-06T09:06:56Z</time>
      </trkpt>
      <trkpt lat="44.92062" lon="5.90536">
        <ele>1909.32</ele>
        <time>2020-07-06T09:07:11Z</time>
      </trkpt>
      <trkpt lat="44.92065" lon="5.9054">
        <ele>1907.39</ele>
        <time>2020-07-06T09:07:34Z</time>
      </trkpt>
      <trkpt lat="44.92067" lon="5.90542">
        <ele>1907.39</ele>
        <time>2020-07-06T09:07:37Z</time>
      </trkpt>
      <trkpt lat="44.92076" lon="5.90555">
        <ele>1906.43</ele>
        <time>2020-07-06T09:07:56Z</time>
      </trkpt>
      <trkpt lat="44.92082" lon="5.90568">
        <ele>1909.8</ele>
        <time>2020-07-06T09:08:16Z</time>
      </trkpt>
      <trkpt lat="44.92089" lon="5.90577">
        <ele>1911.24</ele>
        <time>2020-07-06T09:08:34Z</time>
      </trkpt>
      <trkpt lat="44.92096" lon="5.90582">
        <ele>1913.16</ele>
        <time>2020-07-06T09:08:51Z</time>
      </trkpt>
      <trkpt lat="44.92101" lon="5.90594">
        <ele>1915.56</ele>
        <time>2020-07-06T09:09:10Z</time>
      </trkpt>
      <trkpt lat="44.92107" lon="5.90605">
        <ele>1918.93</ele>
        <time>2020-07-06T09:09:31Z</time>
      </trkpt>
      <trkpt lat="44.92111" lon="5.90614">
        <ele>1921.81</ele>
        <time>2020-07-06T09:09:48Z</time>
      </trkpt>
      <trkpt lat="44.92115" lon="5.90621">
        <ele>1925.18</ele>
        <time>2020-07-06T09:10:03Z</time>
      </trkpt>
      <trkpt lat="44.9212" lon="5.90629">
        <ele>1928.06</ele>
        <time>2020-07-06T09:10:24Z</time>
      </trkpt>
      <trkpt lat="44.92124" lon="5.90637">
        <ele>1931.43</ele>
        <time>2020-07-06T09:10:43Z</time>
      </trkpt>
      <trkpt lat="44.92128" lon="5.90642">
        <ele>1934.31</ele>
        <time>2020-07-06T09:11:01Z</time>
      </trkpt>
      <trkpt lat="44.92134" lon="5.90647">
        <ele>1937.19</ele>
        <time>2020-07-06T09:11:19Z</time>
      </trkpt>
      <trkpt lat="44.92136" lon="5.90651">
        <ele>1940.08</ele>
        <time>2020-07-06T09:11:37Z</time>
      </trkpt>
      <trkpt lat="44.92137" lon="5.90658">
        <ele>1942.96</ele>
        <time>2020-07-06T09:11:53Z</time>
      </trkpt>
      <trkpt lat="44.9214" lon="5.90666">
        <ele>1945.36</ele>
        <time>2020-07-06T09:12:13Z</time>
      </trkpt>
      <trkpt lat="44.9214" lon="5.90677">
        <ele>1948.73</ele>
        <time>2020-07-06T09:12:33Z</time>
      </trkpt>
      <trkpt lat="44.92145" lon="5.90678">
        <ele>1951.13</ele>
        <time>2020-07-06T09:12:50Z</time>
      </trkpt>
      <trkpt lat="44.92149" lon="5.90678">
        <ele>1953.54</ele>
        <time>2020-07-06T09:13:05Z</time>
      </trkpt>
      <trkpt lat="44.92151" lon="5.90682">
        <ele>1956.42</ele>
        <time>2020-07-06T09:13:22Z</time>
      </trkpt>
      <trkpt lat="44.92155" lon="5.90686">
        <ele>1959.3</ele>
        <time>2020-07-06T09:13:42Z</time>
      </trkpt>
      <trkpt lat="44.92159" lon="5.90694">
        <ele>1962.19</ele>
        <time>2020-07-06T09:14:02Z</time>
      </trkpt>
      <trkpt lat="44.92162" lon="5.90702">
        <ele>1964.59</ele>
        <time>2020-07-06T09:14:22Z</time>
      </trkpt>
      <trkpt lat="44.92166" lon="5.90711">
        <ele>1966.99</ele>
        <time>2020-07-06T09:14:44Z</time>
      </trkpt>
      <trkpt lat="44.92169" lon="5.90716">
        <ele>1969.4</ele>
        <time>2020-07-06T09:15:02Z</time>
      </trkpt>
      <trkpt lat="44.92171" lon="5.90724">
        <ele>1972.28</ele>
        <time>2020-07-06T09:15:20Z</time>
      </trkpt>
      <trkpt lat="44.92174" lon="5.90733">
        <ele>1974.69</ele>
        <time>2020-07-06T09:15:39Z</time>
      </trkpt>
      <trkpt lat="44.92178" lon="5.90736">
        <ele>1977.57</ele>
        <time>2020-07-06T09:15:56Z</time>
      </trkpt>
      <trkpt lat="44.92183" lon="5.90738">
        <ele>1980.93</ele>
        <time>2020-07-06T09:16:13Z</time>
      </trkpt>
      <trkpt lat="44.92187" lon="5.9074">
        <ele>1983.82</ele>
        <time>2020-07-06T09:16:31Z</time>
      </trkpt>
      <trkpt lat="44.92191" lon="5.90744">
        <ele>1986.7</ele>
        <time>2020-07-06T09:16:48Z</time>
      </trkpt>
      <trkpt lat="44.92194" lon="5.90748">
        <ele>1989.59</ele>
        <time>2020-07-06T09:17:03Z</time>
      </trkpt>
      <trkpt lat="44.92196" lon="5.90755">
        <ele>1992.47</ele>
        <time>2020-07-06T09:17:20Z</time>
      </trkpt>
      <trkpt lat="44.92196" lon="5.90763">
        <ele>1995.83</ele>
        <time>2020-07-06T09:17:36Z</time>
      </trkpt>
      <trkpt lat="44.92198" lon="5.90772">
        <ele>1998.72</ele>
        <time>2020-07-06T09:17:51Z</time>
      </trkpt>
      <trkpt lat="44.92198" lon="5.90778">
        <ele>2001.12</ele>
        <time>2020-07-06T09:18:04Z</time>
      </trkpt>
      <trkpt lat="44.92199" lon="5.90788">
        <ele>2003.52</ele>
        <time>2020-07-06T09:18:22Z</time>
      </trkpt>
      <trkpt lat="44.922" lon="5.908">
        <ele>2006.41</ele>
        <time>2020-07-06T09:18:43Z</time>
      </trkpt>
      <trkpt lat="44.92202" lon="5.90809">
        <ele>2009.77</ele>
        <time>2020-07-06T09:19:00Z</time>
      </trkpt>
      <trkpt lat="44.92203" lon="5.90818">
        <ele>2012.18</ele>
        <time>2020-07-06T09:19:20Z</time>
      </trkpt>
      <trkpt lat="44.92204" lon="5.90827">
        <ele>2015.06</ele>
        <time>2020-07-06T09:19:37Z</time>
      </trkpt>
      <trkpt lat="44.92208" lon="5.90836">
        <ele>2017.94</ele>
        <time>2020-07-06T09:19:56Z</time>
      </trkpt>
      <trkpt lat="44.92209" lon="5.90841">
        <ele>2020.83</ele>
        <time>2020-07-06T09:20:14Z</time>
      </trkpt>
      <trkpt lat="44.92211" lon="5.90848">
        <ele>2022.27</ele>
        <time>2020-07-06T09:20:30Z</time>
      </trkpt>
      <trkpt lat="44.92212" lon="5.90857">
        <ele>2025.15</ele>
        <time>2020-07-06T09:20:47Z</time>
      </trkpt>
      <trkpt lat="44.92211" lon="5.90867">
        <ele>2028.04</ele>
        <time>2020-07-06T09:21:04Z</time>
      </trkpt>
      <trkpt lat="44.92211" lon="5.90879">
        <ele>2030.92</ele>
        <time>2020-07-06T09:21:23Z</time>
      </trkpt>
      <trkpt lat="44.92213" lon="5.90889">
        <ele>2033.81</ele>
        <time>2020-07-06T09:21:41Z</time>
      </trkpt>
      <trkpt lat="44.92214" lon="5.90898">
        <ele>2037.17</ele>
        <time>2020-07-06T09:21:58Z</time>
      </trkpt>
      <trkpt lat="44.92217" lon="5.90914">
        <ele>2039.09</ele>
        <time>2020-07-06T09:22:16Z</time>
      </trkpt>
      <trkpt lat="44.92219" lon="5.90928">
        <ele>2040.05</ele>
        <time>2020-07-06T09:22:35Z</time>
      </trkpt>
      <trkpt lat="44.9222" lon="5.90931">
        <ele>2042.94</ele>
        <time>2020-07-06T09:22:39Z</time>
      </trkpt>
      <trkpt lat="44.9222" lon="5.90935">
        <ele>2043.42</ele>
        <time>2020-07-06T09:23:01Z</time>
      </trkpt>
      <trkpt lat="44.92222" lon="5.90941">
        <ele>2045.82</ele>
        <time>2020-07-06T09:23:25Z</time>
      </trkpt>
      <trkpt lat="44.92222" lon="5.9094">
        <ele>2045.82</ele>
        <time>2020-07-06T09:23:55Z</time>
      </trkpt>
      <trkpt lat="44.92224" lon="5.90951">
        <ele>2045.82</ele>
        <time>2020-07-06T09:24:21Z</time>
      </trkpt>
      <trkpt lat="44.92225" lon="5.90959">
        <ele>2047.26</ele>
        <time>2020-07-06T09:24:33Z</time>
      </trkpt>
      <trkpt lat="44.92227" lon="5.90968">
        <ele>2050.63</ele>
        <time>2020-07-06T09:24:49Z</time>
      </trkpt>
      <trkpt lat="44.92228" lon="5.90975">
        <ele>2053.51</ele>
        <time>2020-07-06T09:25:03Z</time>
      </trkpt>
      <trkpt lat="44.92229" lon="5.90982">
        <ele>2056.4</ele>
        <time>2020-07-06T09:25:20Z</time>
      </trkpt>
      <trkpt lat="44.92233" lon="5.9099">
        <ele>2059.76</ele>
        <time>2020-07-06T09:25:39Z</time>
      </trkpt>
      <trkpt lat="44.92232" lon="5.91001">
        <ele>2062.17</ele>
        <time>2020-07-06T09:25:58Z</time>
      </trkpt>
      <trkpt lat="44.92234" lon="5.91009">
        <ele>2065.05</ele>
        <time>2020-07-06T09:26:15Z</time>
      </trkpt>
      <trkpt lat="44.92234" lon="5.91021">
        <ele>2067.45</ele>
        <time>2020-07-06T09:26:31Z</time>
      </trkpt>
      <trkpt lat="44.92233" lon="5.91034">
        <ele>2069.86</ele>
        <time>2020-07-06T09:26:48Z</time>
      </trkpt>
      <trkpt lat="44.92234" lon="5.91047">
        <ele>2071.78</ele>
        <time>2020-07-06T09:27:03Z</time>
      </trkpt>
      <trkpt lat="44.92236" lon="5.91058">
        <ele>2074.18</ele>
        <time>2020-07-06T09:27:20Z</time>
      </trkpt>
      <trkpt lat="44.92236" lon="5.91068">
        <ele>2075.62</ele>
        <time>2020-07-06T09:27:34Z</time>
      </trkpt>
      <trkpt lat="44.92237" lon="5.91073">
        <ele>2077.07</ele>
        <time>2020-07-06T09:27:50Z</time>
      </trkpt>
      <trkpt lat="44.92241" lon="5.91082">
        <ele>2077.07</ele>
        <time>2020-07-06T09:28:04Z</time>
      </trkpt>
      <trkpt lat="44.92243" lon="5.91086">
        <ele>2080.43</ele>
        <time>2020-07-06T09:28:13Z</time>
      </trkpt>
      <trkpt lat="44.92244" lon="5.91086">
        <ele>2080.91</ele>
        <time>2020-07-06T09:28:14Z</time>
      </trkpt>
      <trkpt lat="44.92248" lon="5.91094">
        <ele>2081.87</ele>
        <time>2020-07-06T09:28:32Z</time>
      </trkpt>
      <trkpt lat="44.92251" lon="5.91102">
        <ele>2084.76</ele>
        <time>2020-07-06T09:28:51Z</time>
      </trkpt>
      <trkpt lat="44.92253" lon="5.91108">
        <ele>2087.16</ele>
        <time>2020-07-06T09:29:07Z</time>
      </trkpt>
      <trkpt lat="44.92259" lon="5.91111">
        <ele>2086.68</ele>
        <time>2020-07-06T09:29:21Z</time>
      </trkpt>
      <trkpt lat="44.92263" lon="5.91112">
        <ele>2086.68</ele>
        <time>2020-07-06T09:29:36Z</time>
      </trkpt>
      <trkpt lat="44.9227" lon="5.91119">
        <ele>2086.2</ele>
        <time>2020-07-06T09:29:51Z</time>
      </trkpt>
      <trkpt lat="44.92275" lon="5.91124">
        <ele>2085.24</ele>
        <time>2020-07-06T09:30:06Z</time>
      </trkpt>
      <trkpt lat="44.92279" lon="5.91137">
        <ele>2084.28</ele>
        <time>2020-07-06T09:30:24Z</time>
      </trkpt>
      <trkpt lat="44.92285" lon="5.91152">
        <ele>2083.31</ele>
        <time>2020-07-06T09:30:41Z</time>
      </trkpt>
      <trkpt lat="44.92288" lon="5.91159">
        <ele>2084.28</ele>
        <time>2020-07-06T09:30:56Z</time>
      </trkpt>
      <trkpt lat="44.9229" lon="5.91166">
        <ele>2087.16</ele>
        <time>2020-07-06T09:31:14Z</time>
      </trkpt>
      <trkpt lat="44.92291" lon="5.9117">
        <ele>2089.08</ele>
        <time>2020-07-06T09:31:27Z</time>
      </trkpt>
      <trkpt lat="44.92293" lon="5.91176">
        <ele>2091.49</ele>
        <time>2020-07-06T09:31:44Z</time>
      </trkpt>
      <trkpt lat="44.92294" lon="5.91182">
        <ele>2094.37</ele>
        <time>2020-07-06T09:32:02Z</time>
      </trkpt>
      <trkpt lat="44.92296" lon="5.91187">
        <ele>2096.77</ele>
        <time>2020-07-06T09:32:19Z</time>
      </trkpt>
      <trkpt lat="44.92296" lon="5.91191">
        <ele>2099.18</ele>
        <time>2020-07-06T09:32:35Z</time>
      </trkpt>
      <trkpt lat="44.92298" lon="5.91194">
        <ele>2101.58</ele>
        <time>2020-07-06T09:32:53Z</time>
      </trkpt>
      <trkpt lat="44.923" lon="5.91199">
        <ele>2104.46</ele>
        <time>2020-07-06T09:33:12Z</time>
      </trkpt>
      <trkpt lat="44.92303" lon="5.91206">
        <ele>2107.35</ele>
        <time>2020-07-06T09:33:30Z</time>
      </trkpt>
      <trkpt lat="44.92306" lon="5.91211">
        <ele>2110.23</ele>
        <time>2020-07-06T09:33:48Z</time>
      </trkpt>
      <trkpt lat="44.92309" lon="5.91217">
        <ele>2112.15</ele>
        <time>2020-07-06T09:34:01Z</time>
      </trkpt>
      <trkpt lat="44.92312" lon="5.91218">
        <ele>2109.27</ele>
        <time>2020-07-06T09:34:22Z</time>
      </trkpt>
      <trkpt lat="44.92312" lon="5.91219">
        <ele>2112.15</ele>
        <time>2020-07-06T09:34:29Z</time>
      </trkpt>
      <trkpt lat="44.92312" lon="5.91219">
        <ele>2113.12</ele>
        <time>2020-07-06T09:34:31Z</time>
      </trkpt>
      <trkpt lat="44.92312" lon="5.91218">
        <ele>2109.75</ele>
        <time>2020-07-06T09:34:37Z</time>
      </trkpt>
      <trkpt lat="44.92312" lon="5.91217">
        <ele>2113.6</ele>
        <time>2020-07-06T09:34:46Z</time>
      </trkpt>
      <trkpt lat="44.92311" lon="5.91217">
        <ele>2110.23</ele>
        <time>2020-07-06T09:34:59Z</time>
      </trkpt>
      <trkpt lat="44.92311" lon="5.91217">
        <ele>2109.75</ele>
        <time>2020-07-06T09:35:01Z</time>
      </trkpt>
      <trkpt lat="44.92312" lon="5.91216">
        <ele>2111.19</ele>
        <time>2020-07-06T09:35:05Z</time>
      </trkpt>
      <trkpt lat="44.92312" lon="5.91216">
        <ele>2113.12</ele>
        <time>2020-07-06T09:35:14Z</time>
      </trkpt>
      <trkpt lat="44.92312" lon="5.91216">
        <ele>2108.79</ele>
        <time>2020-07-06T09:35:24Z</time>
      </trkpt>
      <trkpt lat="44.92312" lon="5.91216">
        <ele>2112.63</ele>
        <time>2020-07-06T09:35:31Z</time>
      </trkpt>
      <trkpt lat="44.92311" lon="5.91215">
        <ele>2111.67</ele>
        <time>2020-07-06T09:35:54Z</time>
      </trkpt>
      <trkpt lat="44.92309" lon="5.91216">
        <ele>2112.15</ele>
        <time>2020-07-06T09:36:08Z</time>
      </trkpt>
      <trkpt lat="44.9231" lon="5.91217">
        <ele>2112.15</ele>
        <time>2020-07-06T09:36:26Z</time>
      </trkpt>
      <trkpt lat="44.92309" lon="5.91214">
        <ele>2112.15</ele>
        <time>2020-07-06T09:36:57Z</time>
      </trkpt>
      <trkpt lat="44.92308" lon="5.91216">
        <ele>2111.67</ele>
        <time>2020-07-06T09:37:09Z</time>
      </trkpt>
      <trkpt lat="44.92308" lon="5.91219">
        <ele>2111.67</ele>
        <time>2020-07-06T09:37:53Z</time>
      </trkpt>
      <trkpt lat="44.92309" lon="5.9122">
        <ele>2111.19</ele>
        <time>2020-07-06T09:38:23Z</time>
      </trkpt>
      <trkpt lat="44.9231" lon="5.9122">
        <ele>2111.19</ele>
        <time>2020-07-06T09:39:11Z</time>
      </trkpt>
      <trkpt lat="44.9231" lon="5.91218">
        <ele>2111.19</ele>
        <time>2020-07-06T09:39:44Z</time>
      </trkpt>
      <trkpt lat="44.92308" lon="5.91222">
        <ele>2111.19</ele>
        <time>2020-07-06T09:40:18Z</time>
      </trkpt>
      <trkpt lat="44.92309" lon="5.91221">
        <ele>2111.19</ele>
        <time>2020-07-06T09:40:54Z</time>
      </trkpt>
      <trkpt lat="44.92309" lon="5.91221">
        <ele>2111.19</ele>
        <time>2020-07-06T09:41:26Z</time>
      </trkpt>
      <trkpt lat="44.92305" lon="5.91217">
        <ele>2111.19</ele>
        <time>2020-07-06T09:42:05Z</time>
      </trkpt>
      <trkpt lat="44.92304" lon="5.91218">
        <ele>2113.6</ele>
        <time>2020-07-06T09:42:31Z</time>
      </trkpt>
      <trkpt lat="44.92304" lon="5.91219">
        <ele>2110.23</ele>
        <time>2020-07-06T09:42:34Z</time>
      </trkpt>
      <trkpt lat="44.92308" lon="5.9122">
        <ele>2106.39</ele>
        <time>2020-07-06T09:43:05Z</time>
      </trkpt>
      <trkpt lat="44.92308" lon="5.91221">
        <ele>2107.83</ele>
        <time>2020-07-06T09:43:12Z</time>
      </trkpt>
      <trkpt lat="44.92307" lon="5.91221">
        <ele>2112.63</ele>
        <time>2020-07-06T09:43:19Z</time>
      </trkpt>
      <trkpt lat="44.92307" lon="5.91221">
        <ele>2114.56</ele>
        <time>2020-07-06T09:43:22Z</time>
      </trkpt>
      <trkpt lat="44.92309" lon="5.91221">
        <ele>2110.71</ele>
        <time>2020-07-06T09:43:43Z</time>
      </trkpt>
      <trkpt lat="44.92309" lon="5.91222">
        <ele>2108.79</ele>
        <time>2020-07-06T09:43:46Z</time>
      </trkpt>
      <trkpt lat="44.92308" lon="5.91219">
        <ele>2112.63</ele>
        <time>2020-07-06T09:43:51Z</time>
      </trkpt>
      <trkpt lat="44.92308" lon="5.91216">
        <ele>2111.67</ele>
        <time>2020-07-06T09:44:30Z</time>
      </trkpt>
      <trkpt lat="44.92309" lon="5.91219">
        <ele>2111.19</ele>
        <time>2020-07-06T09:45:10Z</time>
      </trkpt>
      <trkpt lat="44.92309" lon="5.91221">
        <ele>2112.63</ele>
        <time>2020-07-06T09:45:51Z</time>
      </trkpt>
      <trkpt lat="44.92308" lon="5.91222">
        <ele>2112.63</ele>
        <time>2020-07-06T09:46:30Z</time>
      </trkpt>
      <trkpt lat="44.92307" lon="5.91221">
        <ele>2112.15</ele>
        <time>2020-07-06T09:47:14Z</time>
      </trkpt>
      <trkpt lat="44.92304" lon="5.91225">
        <ele>2112.15</ele>
        <time>2020-07-06T09:48:00Z</time>
      </trkpt>
      <trkpt lat="44.92306" lon="5.9123">
        <ele>2112.15</ele>
        <time>2020-07-06T09:48:45Z</time>
      </trkpt>
      <trkpt lat="44.92305" lon="5.91233">
        <ele>2112.15</ele>
        <time>2020-07-06T09:49:38Z</time>
      </trkpt>
      <trkpt lat="44.92305" lon="5.91225">
        <ele>2112.15</ele>
        <time>2020-07-06T09:50:24Z</time>
      </trkpt>
      <trkpt lat="44.92304" lon="5.91221">
        <ele>2112.15</ele>
        <time>2020-07-06T09:51:06Z</time>
      </trkpt>
      <trkpt lat="44.92305" lon="5.9122">
        <ele>2112.15</ele>
        <time>2020-07-06T09:51:51Z</time>
      </trkpt>
      <trkpt lat="44.92304" lon="5.91221">
        <ele>2112.15</ele>
        <time>2020-07-06T09:52:38Z</time>
      </trkpt>
      <trkpt lat="44.92303" lon="5.91223">
        <ele>2112.15</ele>
        <time>2020-07-06T09:53:41Z</time>
      </trkpt>
      <trkpt lat="44.92302" lon="5.91222">
        <ele>2112.15</ele>
        <time>2020-07-06T09:54:31Z</time>
      </trkpt>
      <trkpt lat="44.92302" lon="5.91222">
        <ele>2112.15</ele>
        <time>2020-07-06T09:55:17Z</time>
      </trkpt>
      <trkpt lat="44.92302" lon="5.91222">
        <ele>2114.56</ele>
        <time>2020-07-06T09:55:45Z</time>
      </trkpt>
      <trkpt lat="44.92303" lon="5.91219">
        <ele>2113.6</ele>
        <time>2020-07-06T09:56:33Z</time>
      </trkpt>
      <trkpt lat="44.92303" lon="5.91219">
        <ele>2112.63</ele>
        <time>2020-07-06T09:57:15Z</time>
      </trkpt>
      <trkpt lat="44.92303" lon="5.91216">
        <ele>2113.12</ele>
        <time>2020-07-06T09:58:55Z</time>
      </trkpt>
      <trkpt lat="44.92303" lon="5.91216">
        <ele>2113.6</ele>
        <time>2020-07-06T10:00:33Z</time>
      </trkpt>
      <trkpt lat="44.92304" lon="5.91217">
        <ele>2113.6</ele>
        <time>2020-07-06T10:01:39Z</time>
      </trkpt>
      <trkpt lat="44.92304" lon="5.91219">
        <ele>2113.6</ele>
        <time>2020-07-06T10:02:18Z</time>
      </trkpt>
      <trkpt lat="44.92308" lon="5.91221">
        <ele>2113.6</ele>
        <time>2020-07-06T10:02:55Z</time>
      </trkpt>
      <trkpt lat="44.92309" lon="5.91221">
        <ele>2113.6</ele>
        <time>2020-07-06T10:03:39Z</time>
      </trkpt>
      <trkpt lat="44.92309" lon="5.91221">
        <ele>2113.6</ele>
        <time>2020-07-06T10:04:10Z</time>
      </trkpt>
      <trkpt lat="44.92309" lon="5.91221">
        <ele>2113.6</ele>
        <time>2020-07-06T10:04:39Z</time>
      </trkpt>
      <trkpt lat="44.92309" lon="5.91222">
        <ele>2117.44</ele>
        <time>2020-07-06T10:04:52Z</time>
      </trkpt>
      <trkpt lat="44.92309" lon="5.91222">
        <ele>2117.44</ele>
        <time>2020-07-06T10:04:53Z</time>
      </trkpt>
      <trkpt lat="44.9231" lon="5.91222">
        <ele>2116</ele>
        <time>2020-07-06T10:05:24Z</time>
      </trkpt>
      <trkpt lat="44.92312" lon="5.91221">
        <ele>2113.12</ele>
        <time>2020-07-06T10:05:46Z</time>
      </trkpt>
      <trkpt lat="44.92311" lon="5.91221">
        <ele>2115.52</ele>
        <time>2020-07-06T10:05:52Z</time>
      </trkpt>
      <trkpt lat="44.92304" lon="5.91221">
        <ele>2113.6</ele>
        <time>2020-07-06T10:06:29Z</time>
      </trkpt>
      <trkpt lat="44.92305" lon="5.91224">
        <ele>2113.6</ele>
        <time>2020-07-06T10:07:03Z</time>
      </trkpt>
      <trkpt lat="44.92306" lon="5.9122">
        <ele>2113.6</ele>
        <time>2020-07-06T10:07:28Z</time>
      </trkpt>
      <trkpt lat="44.92309" lon="5.91222">
        <ele>2113.6</ele>
        <time>2020-07-06T10:07:47Z</time>
      </trkpt>
      <trkpt lat="44.92309" lon="5.9122">
        <ele>2110.23</ele>
        <time>2020-07-06T10:08:03Z</time>
      </trkpt>
      <trkpt lat="44.92309" lon="5.9122">
        <ele>2108.79</ele>
        <time>2020-07-06T10:08:07Z</time>
      </trkpt>
      <trkpt lat="44.92309" lon="5.91219">
        <ele>2112.15</ele>
        <time>2020-07-06T10:08:11Z</time>
      </trkpt>
      <trkpt lat="44.92309" lon="5.91219">
        <ele>2113.6</ele>
        <time>2020-07-06T10:08:13Z</time>
      </trkpt>
      <trkpt lat="44.92308" lon="5.91219">
        <ele>2115.04</ele>
        <time>2020-07-06T10:08:46Z</time>
      </trkpt>
      <trkpt lat="44.92308" lon="5.91219">
        <ele>2113.12</ele>
        <time>2020-07-06T10:08:52Z</time>
      </trkpt>
      <trkpt lat="44.92308" lon="5.91218">
        <ele>2110.71</ele>
        <time>2020-07-06T10:09:58Z</time>
      </trkpt>
      <trkpt lat="44.92308" lon="5.91217">
        <ele>2113.6</ele>
        <time>2020-07-06T10:10:07Z</time>
      </trkpt>
      <trkpt lat="44.92308" lon="5.91217">
        <ele>2110.23</ele>
        <time>2020-07-06T10:10:26Z</time>
      </trkpt>
      <trkpt lat="44.92308" lon="5.91217">
        <ele>2109.27</ele>
        <time>2020-07-06T10:10:29Z</time>
      </trkpt>
      <trkpt lat="44.92308" lon="5.91217">
        <ele>2107.35</ele>
        <time>2020-07-06T10:10:35Z</time>
      </trkpt>
      <trkpt lat="44.92308" lon="5.91217">
        <ele>2110.23</ele>
        <time>2020-07-06T10:10:39Z</time>
      </trkpt>
      <trkpt lat="44.92309" lon="5.91218">
        <ele>2107.83</ele>
        <time>2020-07-06T10:11:43Z</time>
      </trkpt>
      <trkpt lat="44.92309" lon="5.91218">
        <ele>2111.19</ele>
        <time>2020-07-06T10:11:57Z</time>
      </trkpt>
      <trkpt lat="44.92307" lon="5.9122">
        <ele>2111.67</ele>
        <time>2020-07-06T10:12:48Z</time>
      </trkpt>
      <trkpt lat="44.92308" lon="5.91221">
        <ele>2112.63</ele>
        <time>2020-07-06T10:13:08Z</time>
      </trkpt>
      <trkpt lat="44.92309" lon="5.91222">
        <ele>2109.75</ele>
        <time>2020-07-06T10:13:21Z</time>
      </trkpt>
      <trkpt lat="44.92308" lon="5.91221">
        <ele>2111.67</ele>
        <time>2020-07-06T10:13:24Z</time>
      </trkpt>
      <trkpt lat="44.92308" lon="5.9122">
        <ele>2113.6</ele>
        <time>2020-07-06T10:14:10Z</time>
      </trkpt>
      <trkpt lat="44.92309" lon="5.91219">
        <ele>2115.52</ele>
        <time>2020-07-06T10:14:49Z</time>
      </trkpt>
      <trkpt lat="44.92309" lon="5.91221">
        <ele>2115.52</ele>
        <time>2020-07-06T10:15:11Z</time>
      </trkpt>
      <trkpt lat="44.92308" lon="5.91222">
        <ele>2116</ele>
        <time>2020-07-06T10:15:30Z</time>
      </trkpt>
      <trkpt lat="44.92308" lon="5.91222">
        <ele>2112.63</ele>
        <time>2020-07-06T10:15:53Z</time>
      </trkpt>
      <trkpt lat="44.92309" lon="5.91222">
        <ele>2116</ele>
        <time>2020-07-06T10:16:00Z</time>
      </trkpt>
      <trkpt lat="44.92309" lon="5.91222">
        <ele>2116</ele>
        <time>2020-07-06T10:16:01Z</time>
      </trkpt>
      <trkpt lat="44.92309" lon="5.91223">
        <ele>2115.52</ele>
        <time>2020-07-06T10:16:17Z</time>
      </trkpt>
      <trkpt lat="44.92308" lon="5.91223">
        <ele>2115.52</ele>
        <time>2020-07-06T10:16:37Z</time>
      </trkpt>
      <trkpt lat="44.92307" lon="5.91223">
        <ele>2115.52</ele>
        <time>2020-07-06T10:17:08Z</time>
      </trkpt>
      <trkpt lat="44.92307" lon="5.91223">
        <ele>2115.52</ele>
        <time>2020-07-06T10:17:24Z</time>
      </trkpt>
      <trkpt lat="44.92307" lon="5.91223">
        <ele>2115.52</ele>
        <time>2020-07-06T10:17:59Z</time>
      </trkpt>
      <trkpt lat="44.92308" lon="5.91223">
        <ele>2115.52</ele>
        <time>2020-07-06T10:18:41Z</time>
      </trkpt>
      <trkpt lat="44.92306" lon="5.91224">
        <ele>2115.52</ele>
        <time>2020-07-06T10:19:27Z</time>
      </trkpt>
      <trkpt lat="44.92306" lon="5.91224">
        <ele>2115.52</ele>
        <time>2020-07-06T10:19:31Z</time>
      </trkpt>
      <trkpt lat="44.92311" lon="5.91223">
        <ele>2115.52</ele>
        <time>2020-07-06T10:19:49Z</time>
      </trkpt>
      <trkpt lat="44.9231" lon="5.91221">
        <ele>2115.52</ele>
        <time>2020-07-06T10:20:06Z</time>
      </trkpt>
      <trkpt lat="44.92311" lon="5.91217">
        <ele>2115.52</ele>
        <time>2020-07-06T10:20:20Z</time>
      </trkpt>
      <trkpt lat="44.92315" lon="5.91214">
        <ele>2115.52</ele>
        <time>2020-07-06T10:20:35Z</time>
      </trkpt>
      <trkpt lat="44.92315" lon="5.91209">
        <ele>2115.52</ele>
        <time>2020-07-06T10:20:51Z</time>
      </trkpt>
      <trkpt lat="44.92314" lon="5.91204">
        <ele>2110.23</ele>
        <time>2020-07-06T10:21:08Z</time>
      </trkpt>
      <trkpt lat="44.92314" lon="5.91203">
        <ele>2109.75</ele>
        <time>2020-07-06T10:21:09Z</time>
      </trkpt>
      <trkpt lat="44.92314" lon="5.91195">
        <ele>2106.87</ele>
        <time>2020-07-06T10:21:23Z</time>
      </trkpt>
      <trkpt lat="44.92315" lon="5.91189">
        <ele>2103.5</ele>
        <time>2020-07-06T10:21:36Z</time>
      </trkpt>
      <trkpt lat="44.92315" lon="5.91178">
        <ele>2100.62</ele>
        <time>2020-07-06T10:21:52Z</time>
      </trkpt>
      <trkpt lat="44.92314" lon="5.91171">
        <ele>2097.73</ele>
        <time>2020-07-06T10:22:02Z</time>
      </trkpt>
      <trkpt lat="44.9231" lon="5.91157">
        <ele>2094.85</ele>
        <time>2020-07-06T10:22:16Z</time>
      </trkpt>
      <trkpt lat="44.92307" lon="5.91155">
        <ele>2093.89</ele>
        <time>2020-07-06T10:22:22Z</time>
      </trkpt>
      <trkpt lat="44.92301" lon="5.91141">
        <ele>2091.49</ele>
        <time>2020-07-06T10:22:37Z</time>
      </trkpt>
      <trkpt lat="44.92299" lon="5.91137">
        <ele>2088.12</ele>
        <time>2020-07-06T10:22:46Z</time>
      </trkpt>
      <trkpt lat="44.92299" lon="5.91137">
        <ele>2087.64</ele>
        <time>2020-07-06T10:22:48Z</time>
      </trkpt>
      <trkpt lat="44.92298" lon="5.91133">
        <ele>2091</ele>
        <time>2020-07-06T10:22:57Z</time>
      </trkpt>
      <trkpt lat="44.92297" lon="5.91127">
        <ele>2088.6</ele>
        <time>2020-07-06T10:23:09Z</time>
      </trkpt>
      <trkpt lat="44.92295" lon="5.9112">
        <ele>2085.72</ele>
        <time>2020-07-06T10:23:23Z</time>
      </trkpt>
      <trkpt lat="44.92298" lon="5.91118">
        <ele>2083.79</ele>
        <time>2020-07-06T10:23:37Z</time>
      </trkpt>
      <trkpt lat="44.92296" lon="5.91112">
        <ele>2081.39</ele>
        <time>2020-07-06T10:23:52Z</time>
      </trkpt>
      <trkpt lat="44.92297" lon="5.91109">
        <ele>2078.99</ele>
        <time>2020-07-06T10:24:05Z</time>
      </trkpt>
      <trkpt lat="44.92295" lon="5.91104">
        <ele>2077.07</ele>
        <time>2020-07-06T10:24:18Z</time>
      </trkpt>
      <trkpt lat="44.92295" lon="5.91101">
        <ele>2074.18</ele>
        <time>2020-07-06T10:24:29Z</time>
      </trkpt>
      <trkpt lat="44.92294" lon="5.91098">
        <ele>2075.62</ele>
        <time>2020-07-06T10:24:41Z</time>
      </trkpt>
      <trkpt lat="44.92293" lon="5.9109">
        <ele>2072.26</ele>
        <time>2020-07-06T10:24:55Z</time>
      </trkpt>
      <trkpt lat="44.92294" lon="5.9108">
        <ele>2069.38</ele>
        <time>2020-07-06T10:25:11Z</time>
      </trkpt>
      <trkpt lat="44.92296" lon="5.91072">
        <ele>2066.01</ele>
        <time>2020-07-06T10:25:25Z</time>
      </trkpt>
      <trkpt lat="44.92296" lon="5.91065">
        <ele>2063.13</ele>
        <time>2020-07-06T10:25:37Z</time>
      </trkpt>
      <trkpt lat="44.92296" lon="5.91056">
        <ele>2060.24</ele>
        <time>2020-07-06T10:25:50Z</time>
      </trkpt>
      <trkpt lat="44.92297" lon="5.9105">
        <ele>2057.36</ele>
        <time>2020-07-06T10:26:06Z</time>
      </trkpt>
      <trkpt lat="44.92298" lon="5.91043">
        <ele>2053.99</ele>
        <time>2020-07-06T10:26:20Z</time>
      </trkpt>
      <trkpt lat="44.923" lon="5.91037">
        <ele>2052.07</ele>
        <time>2020-07-06T10:26:31Z</time>
      </trkpt>
      <trkpt lat="44.92301" lon="5.91037">
        <ele>2049.67</ele>
        <time>2020-07-06T10:26:35Z</time>
      </trkpt>
      <trkpt lat="44.92303" lon="5.91035">
        <ele>2051.11</ele>
        <time>2020-07-06T10:26:40Z</time>
      </trkpt>
      <trkpt lat="44.92305" lon="5.91026">
        <ele>2048.23</ele>
        <time>2020-07-06T10:26:53Z</time>
      </trkpt>
      <trkpt lat="44.92306" lon="5.91016">
        <ele>2044.86</ele>
        <time>2020-07-06T10:27:08Z</time>
      </trkpt>
      <trkpt lat="44.92308" lon="5.91009">
        <ele>2041.98</ele>
        <time>2020-07-06T10:27:23Z</time>
      </trkpt>
      <trkpt lat="44.92305" lon="5.91001">
        <ele>2039.57</ele>
        <time>2020-07-06T10:27:35Z</time>
      </trkpt>
      <trkpt lat="44.92306" lon="5.90993">
        <ele>2036.69</ele>
        <time>2020-07-06T10:27:51Z</time>
      </trkpt>
      <trkpt lat="44.92304" lon="5.90983">
        <ele>2034.77</ele>
        <time>2020-07-06T10:28:04Z</time>
      </trkpt>
      <trkpt lat="44.92304" lon="5.90974">
        <ele>2031.4</ele>
        <time>2020-07-06T10:28:17Z</time>
      </trkpt>
      <trkpt lat="44.92304" lon="5.90968">
        <ele>2028.52</ele>
        <time>2020-07-06T10:28:28Z</time>
      </trkpt>
      <trkpt lat="44.92305" lon="5.90962">
        <ele>2025.64</ele>
        <time>2020-07-06T10:28:43Z</time>
      </trkpt>
      <trkpt lat="44.92309" lon="5.90958">
        <ele>2022.27</ele>
        <time>2020-07-06T10:28:58Z</time>
      </trkpt>
      <trkpt lat="44.92309" lon="5.90954">
        <ele>2019.39</ele>
        <time>2020-07-06T10:29:11Z</time>
      </trkpt>
      <trkpt lat="44.9231" lon="5.90951">
        <ele>2016.02</ele>
        <time>2020-07-06T10:29:22Z</time>
      </trkpt>
      <trkpt lat="44.92311" lon="5.90952">
        <ele>2016.02</ele>
        <time>2020-07-06T10:29:43Z</time>
      </trkpt>
      <trkpt lat="44.92311" lon="5.90952">
        <ele>2016.02</ele>
        <time>2020-07-06T10:29:56Z</time>
      </trkpt>
      <trkpt lat="44.9231" lon="5.90944">
        <ele>2013.62</ele>
        <time>2020-07-06T10:30:14Z</time>
      </trkpt>
      <trkpt lat="44.92311" lon="5.90938">
        <ele>2010.73</ele>
        <time>2020-07-06T10:30:31Z</time>
      </trkpt>
      <trkpt lat="44.92312" lon="5.90934">
        <ele>2007.85</ele>
        <time>2020-07-06T10:30:39Z</time>
      </trkpt>
      <trkpt lat="44.92314" lon="5.90934">
        <ele>2007.37</ele>
        <time>2020-07-06T10:30:59Z</time>
      </trkpt>
      <trkpt lat="44.92318" lon="5.90936">
        <ele>2004.01</ele>
        <time>2020-07-06T10:31:17Z</time>
      </trkpt>
      <trkpt lat="44.92324" lon="5.90942">
        <ele>2004.97</ele>
        <time>2020-07-06T10:31:32Z</time>
      </trkpt>
      <trkpt lat="44.92327" lon="5.90944">
        <ele>2004.97</ele>
        <time>2020-07-06T10:31:44Z</time>
      </trkpt>
      <trkpt lat="44.92335" lon="5.90948">
        <ele>2003.52</ele>
        <time>2020-07-06T10:31:57Z</time>
      </trkpt>
      <trkpt lat="44.92336" lon="5.90949">
        <ele>2003.52</ele>
        <time>2020-07-06T10:31:58Z</time>
      </trkpt>
      <trkpt lat="44.92338" lon="5.9095">
        <ele>2000.64</ele>
        <time>2020-07-06T10:32:07Z</time>
      </trkpt>
      <trkpt lat="44.92347" lon="5.90955">
        <ele>2001.12</ele>
        <time>2020-07-06T10:32:27Z</time>
      </trkpt>
      <trkpt lat="44.92348" lon="5.90955">
        <ele>1997.76</ele>
        <time>2020-07-06T10:32:40Z</time>
      </trkpt>
      <trkpt lat="44.92351" lon="5.90957">
        <ele>2001.12</ele>
        <time>2020-07-06T10:32:46Z</time>
      </trkpt>
      <trkpt lat="44.92352" lon="5.90957">
        <ele>2001.12</ele>
        <time>2020-07-06T10:32:47Z</time>
      </trkpt>
      <trkpt lat="44.9236" lon="5.90967">
        <ele>1998.24</ele>
        <time>2020-07-06T10:33:04Z</time>
      </trkpt>
      <trkpt lat="44.92363" lon="5.9097">
        <ele>1997.28</ele>
        <time>2020-07-06T10:33:08Z</time>
      </trkpt>
      <trkpt lat="44.92375" lon="5.90979">
        <ele>1994.39</ele>
        <time>2020-07-06T10:33:25Z</time>
      </trkpt>
      <trkpt lat="44.92387" lon="5.90993">
        <ele>1991.03</ele>
        <time>2020-07-06T10:33:44Z</time>
      </trkpt>
      <trkpt lat="44.92389" lon="5.90996">
        <ele>1988.14</ele>
        <time>2020-07-06T10:33:52Z</time>
      </trkpt>
      <trkpt lat="44.9239" lon="5.90998">
        <ele>1990.07</ele>
        <time>2020-07-06T10:34:00Z</time>
      </trkpt>
      <trkpt lat="44.92401" lon="5.91008">
        <ele>1987.66</ele>
        <time>2020-07-06T10:34:16Z</time>
      </trkpt>
      <trkpt lat="44.92409" lon="5.91012">
        <ele>1986.22</ele>
        <time>2020-07-06T10:34:29Z</time>
      </trkpt>
      <trkpt lat="44.92413" lon="5.91014">
        <ele>1985.26</ele>
        <time>2020-07-06T10:34:46Z</time>
      </trkpt>
      <trkpt lat="44.9242" lon="5.91018">
        <ele>1983.82</ele>
        <time>2020-07-06T10:35:00Z</time>
      </trkpt>
      <trkpt lat="44.92422" lon="5.91015">
        <ele>1981.9</ele>
        <time>2020-07-06T10:35:12Z</time>
      </trkpt>
      <trkpt lat="44.92426" lon="5.91006">
        <ele>1978.53</ele>
        <time>2020-07-06T10:35:32Z</time>
      </trkpt>
      <trkpt lat="44.92429" lon="5.91003">
        <ele>1976.61</ele>
        <time>2020-07-06T10:35:44Z</time>
      </trkpt>
      <trkpt lat="44.92428" lon="5.91002">
        <ele>1974.69</ele>
        <time>2020-07-06T10:35:47Z</time>
      </trkpt>
      <trkpt lat="44.92431" lon="5.90995">
        <ele>1972.76</ele>
        <time>2020-07-06T10:36:01Z</time>
      </trkpt>
      <trkpt lat="44.92434" lon="5.90991">
        <ele>1969.4</ele>
        <time>2020-07-06T10:36:15Z</time>
      </trkpt>
      <trkpt lat="44.92437" lon="5.90984">
        <ele>1966.51</ele>
        <time>2020-07-06T10:36:28Z</time>
      </trkpt>
      <trkpt lat="44.92438" lon="5.90983">
        <ele>1963.15</ele>
        <time>2020-07-06T10:36:36Z</time>
      </trkpt>
      <trkpt lat="44.92438" lon="5.90983">
        <ele>1965.07</ele>
        <time>2020-07-06T10:36:47Z</time>
      </trkpt>
      <trkpt lat="44.92443" lon="5.90984">
        <ele>1963.15</ele>
        <time>2020-07-06T10:36:59Z</time>
      </trkpt>
      <trkpt lat="44.92443" lon="5.90984">
        <ele>1962.19</ele>
        <time>2020-07-06T10:37:26Z</time>
      </trkpt>
      <trkpt lat="44.92442" lon="5.90983">
        <ele>1963.15</ele>
        <time>2020-07-06T10:38:18Z</time>
      </trkpt>
      <trkpt lat="44.92442" lon="5.90984">
        <ele>1962.67</ele>
        <time>2020-07-06T10:38:44Z</time>
      </trkpt>
      <trkpt lat="44.92443" lon="5.90983">
        <ele>1962.67</ele>
        <time>2020-07-06T10:39:36Z</time>
      </trkpt>
      <trkpt lat="44.92444" lon="5.90983">
        <ele>1962.67</ele>
        <time>2020-07-06T10:40:19Z</time>
      </trkpt>
      <trkpt lat="44.92446" lon="5.90983">
        <ele>1962.67</ele>
        <time>2020-07-06T10:40:33Z</time>
      </trkpt>
      <trkpt lat="44.92446" lon="5.90982">
        <ele>1962.67</ele>
        <time>2020-07-06T10:40:47Z</time>
      </trkpt>
      <trkpt lat="44.92444" lon="5.90979">
        <ele>1962.67</ele>
        <time>2020-07-06T10:41:06Z</time>
      </trkpt>
      <trkpt lat="44.92445" lon="5.90972">
        <ele>1962.67</ele>
        <time>2020-07-06T10:41:22Z</time>
      </trkpt>
      <trkpt lat="44.92442" lon="5.90965">
        <ele>1962.67</ele>
        <time>2020-07-06T10:41:37Z</time>
      </trkpt>
      <trkpt lat="44.92438" lon="5.90953">
        <ele>1962.67</ele>
        <time>2020-07-06T10:41:57Z</time>
      </trkpt>
      <trkpt lat="44.92438" lon="5.90951">
        <ele>1951.61</ele>
        <time>2020-07-06T10:41:59Z</time>
      </trkpt>
      <trkpt lat="44.92438" lon="5.90951">
        <ele>1952.09</ele>
        <time>2020-07-06T10:42:00Z</time>
      </trkpt>
      <trkpt lat="44.92437" lon="5.90945">
        <ele>1950.17</ele>
        <time>2020-07-06T10:42:14Z</time>
      </trkpt>
      <trkpt lat="44.92437" lon="5.90939">
        <ele>1946.81</ele>
        <time>2020-07-06T10:42:30Z</time>
      </trkpt>
      <trkpt lat="44.92441" lon="5.90934">
        <ele>1944.88</ele>
        <time>2020-07-06T10:42:47Z</time>
      </trkpt>
      <trkpt lat="44.92439" lon="5.90927">
        <ele>1942</ele>
        <time>2020-07-06T10:43:03Z</time>
      </trkpt>
      <trkpt lat="44.92438" lon="5.90917">
        <ele>1939.12</ele>
        <time>2020-07-06T10:43:20Z</time>
      </trkpt>
      <trkpt lat="44.92435" lon="5.90909">
        <ele>1936.23</ele>
        <time>2020-07-06T10:43:36Z</time>
      </trkpt>
      <trkpt lat="44.92431" lon="5.90899">
        <ele>1932.87</ele>
        <time>2020-07-06T10:43:51Z</time>
      </trkpt>
      <trkpt lat="44.9243" lon="5.90891">
        <ele>1929.98</ele>
        <time>2020-07-06T10:44:06Z</time>
      </trkpt>
      <trkpt lat="44.92426" lon="5.9088">
        <ele>1926.62</ele>
        <time>2020-07-06T10:44:20Z</time>
      </trkpt>
      <trkpt lat="44.92425" lon="5.90872">
        <ele>1923.25</ele>
        <time>2020-07-06T10:44:32Z</time>
      </trkpt>
      <trkpt lat="44.92424" lon="5.90871">
        <ele>1922.77</ele>
        <time>2020-07-06T10:44:33Z</time>
      </trkpt>
      <trkpt lat="44.92423" lon="5.90866">
        <ele>1919.89</ele>
        <time>2020-07-06T10:44:47Z</time>
      </trkpt>
      <trkpt lat="44.92421" lon="5.90856">
        <ele>1917.97</ele>
        <time>2020-07-06T10:45:03Z</time>
      </trkpt>
      <trkpt lat="44.92422" lon="5.90849">
        <ele>1915.08</ele>
        <time>2020-07-06T10:45:15Z</time>
      </trkpt>
      <trkpt lat="44.9242" lon="5.90839">
        <ele>1912.2</ele>
        <time>2020-07-06T10:45:28Z</time>
      </trkpt>
      <trkpt lat="44.92422" lon="5.9083">
        <ele>1908.83</ele>
        <time>2020-07-06T10:45:41Z</time>
      </trkpt>
      <trkpt lat="44.92424" lon="5.90823">
        <ele>1905.95</ele>
        <time>2020-07-06T10:45:54Z</time>
      </trkpt>
      <trkpt lat="44.92428" lon="5.90814">
        <ele>1902.59</ele>
        <time>2020-07-06T10:46:07Z</time>
      </trkpt>
      <trkpt lat="44.92431" lon="5.90805">
        <ele>1899.7</ele>
        <time>2020-07-06T10:46:21Z</time>
      </trkpt>
      <trkpt lat="44.92432" lon="5.90792">
        <ele>1897.3</ele>
        <time>2020-07-06T10:46:38Z</time>
      </trkpt>
      <trkpt lat="44.92434" lon="5.90778">
        <ele>1894.9</ele>
        <time>2020-07-06T10:46:55Z</time>
      </trkpt>
      <trkpt lat="44.92434" lon="5.90768">
        <ele>1893.45</ele>
        <time>2020-07-06T10:47:05Z</time>
      </trkpt>
      <trkpt lat="44.92433" lon="5.90761">
        <ele>1889.61</ele>
        <time>2020-07-06T10:47:13Z</time>
      </trkpt>
      <trkpt lat="44.92433" lon="5.9076">
        <ele>1889.13</ele>
        <time>2020-07-06T10:47:15Z</time>
      </trkpt>
      <trkpt lat="44.92433" lon="5.90759">
        <ele>1889.13</ele>
        <time>2020-07-06T10:47:16Z</time>
      </trkpt>
      <trkpt lat="44.92429" lon="5.90743">
        <ele>1887.21</ele>
        <time>2020-07-06T10:47:33Z</time>
      </trkpt>
      <trkpt lat="44.92428" lon="5.90738">
        <ele>1887.21</ele>
        <time>2020-07-06T10:47:38Z</time>
      </trkpt>
      <trkpt lat="44.92428" lon="5.90726">
        <ele>1883.84</ele>
        <time>2020-07-06T10:47:50Z</time>
      </trkpt>
      <trkpt lat="44.92428" lon="5.90719">
        <ele>1880.48</ele>
        <time>2020-07-06T10:48:00Z</time>
      </trkpt>
      <trkpt lat="44.92428" lon="5.90719">
        <ele>1880.48</ele>
        <time>2020-07-06T10:48:01Z</time>
      </trkpt>
      <trkpt lat="44.92428" lon="5.90718">
        <ele>1882.4</ele>
        <time>2020-07-06T10:48:06Z</time>
      </trkpt>
      <trkpt lat="44.92432" lon="5.90713">
        <ele>1881.44</ele>
        <time>2020-07-06T10:48:20Z</time>
      </trkpt>
      <trkpt lat="44.92433" lon="5.90708">
        <ele>1880</ele>
        <time>2020-07-06T10:48:34Z</time>
      </trkpt>
      <trkpt lat="44.92436" lon="5.90703">
        <ele>1879.03</ele>
        <time>2020-07-06T10:48:48Z</time>
      </trkpt>
      <trkpt lat="44.92442" lon="5.90696">
        <ele>1877.59</ele>
        <time>2020-07-06T10:49:06Z</time>
      </trkpt>
      <trkpt lat="44.92446" lon="5.90684">
        <ele>1874.23</ele>
        <time>2020-07-06T10:49:26Z</time>
      </trkpt>
      <trkpt lat="44.92448" lon="5.90671">
        <ele>1871.34</ele>
        <time>2020-07-06T10:49:48Z</time>
      </trkpt>
      <trkpt lat="44.92453" lon="5.90666">
        <ele>1869.42</ele>
        <time>2020-07-06T10:50:00Z</time>
      </trkpt>
      <trkpt lat="44.92453" lon="5.90657">
        <ele>1867.98</ele>
        <time>2020-07-06T10:50:13Z</time>
      </trkpt>
      <trkpt lat="44.92453" lon="5.90654">
        <ele>1863.65</ele>
        <time>2020-07-06T10:50:18Z</time>
      </trkpt>
      <trkpt lat="44.92453" lon="5.90651">
        <ele>1867.02</ele>
        <time>2020-07-06T10:50:28Z</time>
      </trkpt>
      <trkpt lat="44.92452" lon="5.9065">
        <ele>1867.02</ele>
        <time>2020-07-06T10:50:29Z</time>
      </trkpt>
      <trkpt lat="44.92453" lon="5.90646">
        <ele>1867.02</ele>
        <time>2020-07-06T10:50:35Z</time>
      </trkpt>
      <trkpt lat="44.9245" lon="5.90635">
        <ele>1863.65</ele>
        <time>2020-07-06T10:50:49Z</time>
      </trkpt>
      <trkpt lat="44.9245" lon="5.90634">
        <ele>1863.17</ele>
        <time>2020-07-06T10:51:06Z</time>
      </trkpt>
      <trkpt lat="44.9245" lon="5.90635">
        <ele>1863.65</ele>
        <time>2020-07-06T10:51:28Z</time>
      </trkpt>
      <trkpt lat="44.92449" lon="5.90635">
        <ele>1859.81</ele>
        <time>2020-07-06T10:51:56Z</time>
      </trkpt>
      <trkpt lat="44.92449" lon="5.90635">
        <ele>1858.37</ele>
        <time>2020-07-06T10:51:58Z</time>
      </trkpt>
      <trkpt lat="44.9245" lon="5.90635">
        <ele>1862.21</ele>
        <time>2020-07-06T10:52:04Z</time>
      </trkpt>
      <trkpt lat="44.92449" lon="5.90634">
        <ele>1865.58</ele>
        <time>2020-07-06T10:52:08Z</time>
      </trkpt>
      <trkpt lat="44.92449" lon="5.90634">
        <ele>1865.58</ele>
        <time>2020-07-06T10:52:09Z</time>
      </trkpt>
      <trkpt lat="44.92449" lon="5.90634">
        <ele>1863.17</ele>
        <time>2020-07-06T10:52:43Z</time>
      </trkpt>
      <trkpt lat="44.92449" lon="5.9063">
        <ele>1862.69</ele>
        <time>2020-07-06T10:53:00Z</time>
      </trkpt>
      <trkpt lat="44.9245" lon="5.90629">
        <ele>1862.69</ele>
        <time>2020-07-06T10:53:07Z</time>
      </trkpt>
      <trkpt lat="44.9245" lon="5.90619">
        <ele>1859.81</ele>
        <time>2020-07-06T10:53:23Z</time>
      </trkpt>
      <trkpt lat="44.92449" lon="5.90614">
        <ele>1856.92</ele>
        <time>2020-07-06T10:53:34Z</time>
      </trkpt>
      <trkpt lat="44.92448" lon="5.906">
        <ele>1856.44</ele>
        <time>2020-07-06T10:53:51Z</time>
      </trkpt>
      <trkpt lat="44.92447" lon="5.90596">
        <ele>1855.48</ele>
        <time>2020-07-06T10:53:56Z</time>
      </trkpt>
      <trkpt lat="44.92442" lon="5.90585">
        <ele>1853.08</ele>
        <time>2020-07-06T10:54:11Z</time>
      </trkpt>
      <trkpt lat="44.92441" lon="5.90574">
        <ele>1851.64</ele>
        <time>2020-07-06T10:54:27Z</time>
      </trkpt>
      <trkpt lat="44.92442" lon="5.90566">
        <ele>1849.23</ele>
        <time>2020-07-06T10:54:44Z</time>
      </trkpt>
      <trkpt lat="44.92439" lon="5.90555">
        <ele>1845.87</ele>
        <time>2020-07-06T10:55:04Z</time>
      </trkpt>
      <trkpt lat="44.92437" lon="5.90541">
        <ele>1843.95</ele>
        <time>2020-07-06T10:55:22Z</time>
      </trkpt>
      <trkpt lat="44.92435" lon="5.90531">
        <ele>1842.98</ele>
        <time>2020-07-06T10:55:35Z</time>
      </trkpt>
      <trkpt lat="44.92433" lon="5.90523">
        <ele>1842.02</ele>
        <time>2020-07-06T10:55:47Z</time>
      </trkpt>
      <trkpt lat="44.92432" lon="5.90514">
        <ele>1840.1</ele>
        <time>2020-07-06T10:56:01Z</time>
      </trkpt>
      <trkpt lat="44.92428" lon="5.905">
        <ele>1837.7</ele>
        <time>2020-07-06T10:56:18Z</time>
      </trkpt>
      <trkpt lat="44.92425" lon="5.9049">
        <ele>1835.77</ele>
        <time>2020-07-06T10:56:32Z</time>
      </trkpt>
      <trkpt lat="44.92423" lon="5.90482">
        <ele>1834.33</ele>
        <time>2020-07-06T10:56:45Z</time>
      </trkpt>
      <trkpt lat="44.92421" lon="5.90473">
        <ele>1830.97</ele>
        <time>2020-07-06T10:57:04Z</time>
      </trkpt>
      <trkpt lat="44.92421" lon="5.90473">
        <ele>1830.97</ele>
        <time>2020-07-06T10:57:05Z</time>
      </trkpt>
      <trkpt lat="44.92421" lon="5.90472">
        <ele>1829.05</ele>
        <time>2020-07-06T10:57:07Z</time>
      </trkpt>
      <trkpt lat="44.92417" lon="5.90465">
        <ele>1828.56</ele>
        <time>2020-07-06T10:57:26Z</time>
      </trkpt>
      <trkpt lat="44.92416" lon="5.90464">
        <ele>1827.6</ele>
        <time>2020-07-06T10:57:28Z</time>
      </trkpt>
      <trkpt lat="44.92416" lon="5.90463">
        <ele>1829.05</ele>
        <time>2020-07-06T10:57:33Z</time>
      </trkpt>
      <trkpt lat="44.92411" lon="5.90458">
        <ele>1826.64</ele>
        <time>2020-07-06T10:57:48Z</time>
      </trkpt>
      <trkpt lat="44.92406" lon="5.9045">
        <ele>1824.24</ele>
        <time>2020-07-06T10:58:02Z</time>
      </trkpt>
      <trkpt lat="44.92402" lon="5.90445">
        <ele>1821.35</ele>
        <time>2020-07-06T10:58:18Z</time>
      </trkpt>
      <trkpt lat="44.92407" lon="5.90437">
        <ele>1818.47</ele>
        <time>2020-07-06T10:58:35Z</time>
      </trkpt>
      <trkpt lat="44.92408" lon="5.90431">
        <ele>1816.07</ele>
        <time>2020-07-06T10:58:49Z</time>
      </trkpt>
      <trkpt lat="44.92407" lon="5.90427">
        <ele>1813.18</ele>
        <time>2020-07-06T10:58:54Z</time>
      </trkpt>
      <trkpt lat="44.92408" lon="5.90423">
        <ele>1814.63</ele>
        <time>2020-07-06T10:58:59Z</time>
      </trkpt>
      <trkpt lat="44.92406" lon="5.90414">
        <ele>1811.74</ele>
        <time>2020-07-06T10:59:14Z</time>
      </trkpt>
      <trkpt lat="44.92402" lon="5.90403">
        <ele>1808.86</ele>
        <time>2020-07-06T10:59:34Z</time>
      </trkpt>
      <trkpt lat="44.92408" lon="5.90395">
        <ele>1805.97</ele>
        <time>2020-07-06T10:59:50Z</time>
      </trkpt>
      <trkpt lat="44.92407" lon="5.90389">
        <ele>1802.61</ele>
        <time>2020-07-06T11:00:00Z</time>
      </trkpt>
      <trkpt lat="44.92407" lon="5.90388">
        <ele>1801.65</ele>
        <time>2020-07-06T11:00:02Z</time>
      </trkpt>
      <trkpt lat="44.9241" lon="5.90379">
        <ele>1800.69</ele>
        <time>2020-07-06T11:00:16Z</time>
      </trkpt>
      <trkpt lat="44.9241" lon="5.90368">
        <ele>1797.8</ele>
        <time>2020-07-06T11:00:30Z</time>
      </trkpt>
      <trkpt lat="44.92407" lon="5.9036">
        <ele>1796.84</ele>
        <time>2020-07-06T11:00:51Z</time>
      </trkpt>
      <trkpt lat="44.92406" lon="5.90353">
        <ele>1793.96</ele>
        <time>2020-07-06T11:00:58Z</time>
      </trkpt>
      <trkpt lat="44.92406" lon="5.90352">
        <ele>1793.48</ele>
        <time>2020-07-06T11:00:59Z</time>
      </trkpt>
      <trkpt lat="44.92405" lon="5.90341">
        <ele>1793.96</ele>
        <time>2020-07-06T11:01:12Z</time>
      </trkpt>
      <trkpt lat="44.92404" lon="5.90338">
        <ele>1793</ele>
        <time>2020-07-06T11:01:16Z</time>
      </trkpt>
      <trkpt lat="44.92405" lon="5.90335">
        <ele>1791.55</ele>
        <time>2020-07-06T11:01:30Z</time>
      </trkpt>
      <trkpt lat="44.92404" lon="5.90335">
        <ele>1791.07</ele>
        <time>2020-07-06T11:01:51Z</time>
      </trkpt>
      <trkpt lat="44.92406" lon="5.90336">
        <ele>1791.55</ele>
        <time>2020-07-06T11:02:06Z</time>
      </trkpt>
      <trkpt lat="44.92405" lon="5.90336">
        <ele>1791.07</ele>
        <time>2020-07-06T11:02:46Z</time>
      </trkpt>
      <trkpt lat="44.92404" lon="5.90334">
        <ele>1791.07</ele>
        <time>2020-07-06T11:03:27Z</time>
      </trkpt>
      <trkpt lat="44.92404" lon="5.90334">
        <ele>1787.23</ele>
        <time>2020-07-06T11:03:40Z</time>
      </trkpt>
      <trkpt lat="44.92404" lon="5.90335">
        <ele>1788.67</ele>
        <time>2020-07-06T11:04:03Z</time>
      </trkpt>
      <trkpt lat="44.92404" lon="5.90335">
        <ele>1790.11</ele>
        <time>2020-07-06T11:04:21Z</time>
      </trkpt>
      <trkpt lat="44.92405" lon="5.90336">
        <ele>1791.07</ele>
        <time>2020-07-06T11:04:40Z</time>
      </trkpt>
      <trkpt lat="44.92406" lon="5.90335">
        <ele>1790.59</ele>
        <time>2020-07-06T11:05:14Z</time>
      </trkpt>
      <trkpt lat="44.92406" lon="5.90335">
        <ele>1787.23</ele>
        <time>2020-07-06T11:05:18Z</time>
      </trkpt>
      <trkpt lat="44.92406" lon="5.90336">
        <ele>1787.23</ele>
        <time>2020-07-06T11:05:19Z</time>
      </trkpt>
      <trkpt lat="44.92405" lon="5.90337">
        <ele>1790.11</ele>
        <time>2020-07-06T11:05:25Z</time>
      </trkpt>
      <trkpt lat="44.92404" lon="5.90337">
        <ele>1790.59</ele>
        <time>2020-07-06T11:05:43Z</time>
      </trkpt>
      <trkpt lat="44.92404" lon="5.90337">
        <ele>1790.59</ele>
        <time>2020-07-06T11:06:17Z</time>
      </trkpt>
      <trkpt lat="44.92404" lon="5.90338">
        <ele>1790.59</ele>
        <time>2020-07-06T11:06:39Z</time>
      </trkpt>
      <trkpt lat="44.92405" lon="5.90343">
        <ele>1790.59</ele>
        <time>2020-07-06T11:07:05Z</time>
      </trkpt>
      <trkpt lat="44.92406" lon="5.90353">
        <ele>1790.59</ele>
        <time>2020-07-06T11:07:20Z</time>
      </trkpt>
      <trkpt lat="44.92408" lon="5.90367">
        <ele>1790.59</ele>
        <time>2020-07-06T11:07:35Z</time>
      </trkpt>
      <trkpt lat="44.92409" lon="5.90374">
        <ele>1795.88</ele>
        <time>2020-07-06T11:07:44Z</time>
      </trkpt>
      <trkpt lat="44.92409" lon="5.90375">
        <ele>1795.88</ele>
        <time>2020-07-06T11:07:45Z</time>
      </trkpt>
      <trkpt lat="44.92413" lon="5.90386">
        <ele>1798.76</ele>
        <time>2020-07-06T11:08:02Z</time>
      </trkpt>
      <trkpt lat="44.92419" lon="5.90391">
        <ele>1801.17</ele>
        <time>2020-07-06T11:08:17Z</time>
      </trkpt>
      <trkpt lat="44.92425" lon="5.904">
        <ele>1802.61</ele>
        <time>2020-07-06T11:08:31Z</time>
      </trkpt>
      <trkpt lat="44.92429" lon="5.90409">
        <ele>1804.05</ele>
        <time>2020-07-06T11:08:45Z</time>
      </trkpt>
      <trkpt lat="44.92433" lon="5.90418">
        <ele>1805.01</ele>
        <time>2020-07-06T11:08:59Z</time>
      </trkpt>
      <trkpt lat="44.92439" lon="5.90424">
        <ele>1805.97</ele>
        <time>2020-07-06T11:09:14Z</time>
      </trkpt>
      <trkpt lat="44.92439" lon="5.90423">
        <ele>1806.94</ele>
        <time>2020-07-06T11:09:45Z</time>
      </trkpt>
      <trkpt lat="44.9244" lon="5.90422">
        <ele>1808.86</ele>
        <time>2020-07-06T11:10:22Z</time>
      </trkpt>
      <trkpt lat="44.92439" lon="5.90421">
        <ele>1809.82</ele>
        <time>2020-07-06T11:10:50Z</time>
      </trkpt>
      <trkpt lat="44.92433" lon="5.90414">
        <ele>1808.86</ele>
        <time>2020-07-06T11:11:04Z</time>
      </trkpt>
      <trkpt lat="44.9243" lon="5.90408">
        <ele>1807.42</ele>
        <time>2020-07-06T11:11:18Z</time>
      </trkpt>
      <trkpt lat="44.9243" lon="5.90407">
        <ele>1807.42</ele>
        <time>2020-07-06T11:11:19Z</time>
      </trkpt>
      <trkpt lat="44.92424" lon="5.90396">
        <ele>1805.01</ele>
        <time>2020-07-06T11:11:33Z</time>
      </trkpt>
      <trkpt lat="44.92417" lon="5.90388">
        <ele>1804.05</ele>
        <time>2020-07-06T11:11:47Z</time>
      </trkpt>
      <trkpt lat="44.92411" lon="5.90377">
        <ele>1802.13</ele>
        <time>2020-07-06T11:12:00Z</time>
      </trkpt>
      <trkpt lat="44.92411" lon="5.90374">
        <ele>1798.76</ele>
        <time>2020-07-06T11:12:04Z</time>
      </trkpt>
      <trkpt lat="44.92411" lon="5.90371">
        <ele>1797.32</ele>
        <time>2020-07-06T11:12:07Z</time>
      </trkpt>
      <trkpt lat="44.92409" lon="5.90365">
        <ele>1798.76</ele>
        <time>2020-07-06T11:12:14Z</time>
      </trkpt>
      <trkpt lat="44.92407" lon="5.90363">
        <ele>1797.8</ele>
        <time>2020-07-06T11:12:29Z</time>
      </trkpt>
      <trkpt lat="44.92406" lon="5.90349">
        <ele>1795.88</ele>
        <time>2020-07-06T11:12:48Z</time>
      </trkpt>
      <trkpt lat="44.92404" lon="5.90339">
        <ele>1794.44</ele>
        <time>2020-07-06T11:13:00Z</time>
      </trkpt>
      <trkpt lat="44.92402" lon="5.90329">
        <ele>1793</ele>
        <time>2020-07-06T11:13:09Z</time>
      </trkpt>
      <trkpt lat="44.92395" lon="5.90322">
        <ele>1792.52</ele>
        <time>2020-07-06T11:13:22Z</time>
      </trkpt>
      <trkpt lat="44.92391" lon="5.90318">
        <ele>1791.07</ele>
        <time>2020-07-06T11:13:38Z</time>
      </trkpt>
      <trkpt lat="44.92386" lon="5.90314">
        <ele>1790.59</ele>
        <time>2020-07-06T11:13:47Z</time>
      </trkpt>
      <trkpt lat="44.92377" lon="5.90309">
        <ele>1791.07</ele>
        <time>2020-07-06T11:14:01Z</time>
      </trkpt>
      <trkpt lat="44.9237" lon="5.90294">
        <ele>1790.59</ele>
        <time>2020-07-06T11:14:19Z</time>
      </trkpt>
      <trkpt lat="44.92365" lon="5.90285">
        <ele>1790.11</ele>
        <time>2020-07-06T11:14:34Z</time>
      </trkpt>
      <trkpt lat="44.9236" lon="5.90278">
        <ele>1790.11</ele>
        <time>2020-07-06T11:14:45Z</time>
      </trkpt>
      <trkpt lat="44.92356" lon="5.90276">
        <ele>1789.15</ele>
        <time>2020-07-06T11:14:50Z</time>
      </trkpt>
      <trkpt lat="44.92354" lon="5.90274">
        <ele>1788.67</ele>
        <time>2020-07-06T11:14:53Z</time>
      </trkpt>
      <trkpt lat="44.92346" lon="5.90266">
        <ele>1785.79</ele>
        <time>2020-07-06T11:15:08Z</time>
      </trkpt>
      <trkpt lat="44.92343" lon="5.90262">
        <ele>1784.82</ele>
        <time>2020-07-06T11:15:15Z</time>
      </trkpt>
      <trkpt lat="44.92337" lon="5.90248">
        <ele>1781.46</ele>
        <time>2020-07-06T11:15:28Z</time>
      </trkpt>
      <trkpt lat="44.92337" lon="5.90247">
        <ele>1780.98</ele>
        <time>2020-07-06T11:15:29Z</time>
      </trkpt>
      <trkpt lat="44.92333" lon="5.90236">
        <ele>1781.94</ele>
        <time>2020-07-06T11:15:41Z</time>
      </trkpt>
      <trkpt lat="44.92326" lon="5.9022">
        <ele>1780.98</ele>
        <time>2020-07-06T11:15:59Z</time>
      </trkpt>
      <trkpt lat="44.92327" lon="5.90219">
        <ele>1781.94</ele>
        <time>2020-07-06T11:16:15Z</time>
      </trkpt>
      <trkpt lat="44.92323" lon="5.90213">
        <ele>1781.46</ele>
        <time>2020-07-06T11:16:27Z</time>
      </trkpt>
      <trkpt lat="44.92321" lon="5.90209">
        <ele>1780.98</ele>
        <time>2020-07-06T11:16:31Z</time>
      </trkpt>
      <trkpt lat="44.92304" lon="5.90204">
        <ele>1780.02</ele>
        <time>2020-07-06T11:16:47Z</time>
      </trkpt>
      <trkpt lat="44.92291" lon="5.90203">
        <ele>1777.61</ele>
        <time>2020-07-06T11:17:03Z</time>
      </trkpt>
      <trkpt lat="44.92287" lon="5.90201">
        <ele>1777.61</ele>
        <time>2020-07-06T11:17:17Z</time>
      </trkpt>
      <trkpt lat="44.92284" lon="5.902">
        <ele>1777.61</ele>
        <time>2020-07-06T11:17:20Z</time>
      </trkpt>
      <trkpt lat="44.92277" lon="5.90195">
        <ele>1777.13</ele>
        <time>2020-07-06T11:17:29Z</time>
      </trkpt>
      <trkpt lat="44.9227" lon="5.90188">
        <ele>1777.13</ele>
        <time>2020-07-06T11:17:40Z</time>
      </trkpt>
      <trkpt lat="44.92259" lon="5.9019">
        <ele>1778.1</ele>
        <time>2020-07-06T11:17:55Z</time>
      </trkpt>
      <trkpt lat="44.92248" lon="5.90193">
        <ele>1776.17</ele>
        <time>2020-07-06T11:18:13Z</time>
      </trkpt>
      <trkpt lat="44.92242" lon="5.90199">
        <ele>1775.69</ele>
        <time>2020-07-06T11:18:28Z</time>
      </trkpt>
      <trkpt lat="44.92236" lon="5.90199">
        <ele>1776.17</ele>
        <time>2020-07-06T11:18:41Z</time>
      </trkpt>
      <trkpt lat="44.92227" lon="5.90203">
        <ele>1776.65</ele>
        <time>2020-07-06T11:18:57Z</time>
      </trkpt>
      <trkpt lat="44.92218" lon="5.902">
        <ele>1777.13</ele>
        <time>2020-07-06T11:19:13Z</time>
      </trkpt>
      <trkpt lat="44.92209" lon="5.90199">
        <ele>1777.13</ele>
        <time>2020-07-06T11:19:30Z</time>
      </trkpt>
      <trkpt lat="44.92205" lon="5.90202">
        <ele>1777.61</ele>
        <time>2020-07-06T11:19:42Z</time>
      </trkpt>
      <trkpt lat="44.92201" lon="5.90202">
        <ele>1778.58</ele>
        <time>2020-07-06T11:19:51Z</time>
      </trkpt>
      <trkpt lat="44.9219" lon="5.90206">
        <ele>1777.13</ele>
        <time>2020-07-06T11:20:05Z</time>
      </trkpt>
      <trkpt lat="44.92183" lon="5.90209">
        <ele>1776.65</ele>
        <time>2020-07-06T11:20:22Z</time>
      </trkpt>
      <trkpt lat="44.92178" lon="5.9021">
        <ele>1776.65</ele>
        <time>2020-07-06T11:20:45Z</time>
      </trkpt>
      <trkpt lat="44.92167" lon="5.90216">
        <ele>1776.17</ele>
        <time>2020-07-06T11:21:01Z</time>
      </trkpt>
      <trkpt lat="44.92161" lon="5.90218">
        <ele>1775.21</ele>
        <time>2020-07-06T11:21:14Z</time>
      </trkpt>
      <trkpt lat="44.9215" lon="5.9022">
        <ele>1774.73</ele>
        <time>2020-07-06T11:21:28Z</time>
      </trkpt>
      <trkpt lat="44.92144" lon="5.90225">
        <ele>1774.73</ele>
        <time>2020-07-06T11:21:42Z</time>
      </trkpt>
      <trkpt lat="44.92144" lon="5.90225">
        <ele>1774.73</ele>
        <time>2020-07-06T11:22:05Z</time>
      </trkpt>
      <trkpt lat="44.92144" lon="5.90224">
        <ele>1774.73</ele>
        <time>2020-07-06T11:22:24Z</time>
      </trkpt>
      <trkpt lat="44.92144" lon="5.90224">
        <ele>1776.17</ele>
        <time>2020-07-06T11:22:42Z</time>
      </trkpt>
      <trkpt lat="44.92144" lon="5.90224">
        <ele>1775.69</ele>
        <time>2020-07-06T11:23:06Z</time>
      </trkpt>
      <trkpt lat="44.92139" lon="5.90224">
        <ele>1774.25</ele>
        <time>2020-07-06T11:23:22Z</time>
      </trkpt>
      <trkpt lat="44.92138" lon="5.90218">
        <ele>1772.33</ele>
        <time>2020-07-06T11:23:40Z</time>
      </trkpt>
      <trkpt lat="44.92134" lon="5.90219">
        <ele>1770.41</ele>
        <time>2020-07-06T11:23:53Z</time>
      </trkpt>
      <trkpt lat="44.92131" lon="5.90221">
        <ele>1768.96</ele>
        <time>2020-07-06T11:24:16Z</time>
      </trkpt>
      <trkpt lat="44.92129" lon="5.90216">
        <ele>1767.04</ele>
        <time>2020-07-06T11:24:30Z</time>
      </trkpt>
      <trkpt lat="44.92122" lon="5.90217">
        <ele>1765.6</ele>
        <time>2020-07-06T11:24:44Z</time>
      </trkpt>
      <trkpt lat="44.92112" lon="5.90212">
        <ele>1763.2</ele>
        <time>2020-07-06T11:24:57Z</time>
      </trkpt>
      <trkpt lat="44.92102" lon="5.90206">
        <ele>1763.2</ele>
        <time>2020-07-06T11:25:14Z</time>
      </trkpt>
      <trkpt lat="44.92094" lon="5.90194">
        <ele>1760.79</ele>
        <time>2020-07-06T11:25:32Z</time>
      </trkpt>
      <trkpt lat="44.92092" lon="5.90192">
        <ele>1760.31</ele>
        <time>2020-07-06T11:25:35Z</time>
      </trkpt>
      <trkpt lat="44.92084" lon="5.90181">
        <ele>1757.91</ele>
        <time>2020-07-06T11:25:46Z</time>
      </trkpt>
      <trkpt lat="44.92072" lon="5.90169">
        <ele>1757.43</ele>
        <time>2020-07-06T11:26:01Z</time>
      </trkpt>
      <trkpt lat="44.92069" lon="5.90166">
        <ele>1755.5</ele>
        <time>2020-07-06T11:26:17Z</time>
      </trkpt>
      <trkpt lat="44.92068" lon="5.90165">
        <ele>1756.95</ele>
        <time>2020-07-06T11:26:21Z</time>
      </trkpt>
      <trkpt lat="44.92066" lon="5.90163">
        <ele>1757.43</ele>
        <time>2020-07-06T11:26:24Z</time>
      </trkpt>
      <trkpt lat="44.92053" lon="5.90151">
        <ele>1755.99</ele>
        <time>2020-07-06T11:26:40Z</time>
      </trkpt>
      <trkpt lat="44.92045" lon="5.90143">
        <ele>1753.58</ele>
        <time>2020-07-06T11:26:50Z</time>
      </trkpt>
      <trkpt lat="44.92042" lon="5.9014">
        <ele>1755.02</ele>
        <time>2020-07-06T11:26:54Z</time>
      </trkpt>
      <trkpt lat="44.92036" lon="5.90133">
        <ele>1753.58</ele>
        <time>2020-07-06T11:27:06Z</time>
      </trkpt>
      <trkpt lat="44.92024" lon="5.9012">
        <ele>1750.22</ele>
        <time>2020-07-06T11:27:23Z</time>
      </trkpt>
      <trkpt lat="44.92022" lon="5.90116">
        <ele>1749.74</ele>
        <time>2020-07-06T11:27:28Z</time>
      </trkpt>
      <trkpt lat="44.92017" lon="5.90107">
        <ele>1748.29</ele>
        <time>2020-07-06T11:27:41Z</time>
      </trkpt>
      <trkpt lat="44.92013" lon="5.90104">
        <ele>1747.33</ele>
        <time>2020-07-06T11:27:45Z</time>
      </trkpt>
      <trkpt lat="44.92004" lon="5.90091">
        <ele>1743.49</ele>
        <time>2020-07-06T11:27:59Z</time>
      </trkpt>
      <trkpt lat="44.92004" lon="5.90089">
        <ele>1743.01</ele>
        <time>2020-07-06T11:28:01Z</time>
      </trkpt>
      <trkpt lat="44.92004" lon="5.90087">
        <ele>1745.41</ele>
        <time>2020-07-06T11:28:06Z</time>
      </trkpt>
      <trkpt lat="44.92002" lon="5.90083">
        <ele>1745.41</ele>
        <time>2020-07-06T11:28:10Z</time>
      </trkpt>
      <trkpt lat="44.91991" lon="5.90069">
        <ele>1742.53</ele>
        <time>2020-07-06T11:28:25Z</time>
      </trkpt>
      <trkpt lat="44.91989" lon="5.90065">
        <ele>1741.57</ele>
        <time>2020-07-06T11:28:33Z</time>
      </trkpt>
      <trkpt lat="44.91985" lon="5.90053">
        <ele>1740.6</ele>
        <time>2020-07-06T11:28:44Z</time>
      </trkpt>
      <trkpt lat="44.9198" lon="5.90045">
        <ele>1737.72</ele>
        <time>2020-07-06T11:28:52Z</time>
      </trkpt>
      <trkpt lat="44.91979" lon="5.90044">
        <ele>1736.28</ele>
        <time>2020-07-06T11:28:54Z</time>
      </trkpt>
      <trkpt lat="44.91979" lon="5.90043">
        <ele>1736.76</ele>
        <time>2020-07-06T11:28:55Z</time>
      </trkpt>
      <trkpt lat="44.91979" lon="5.9004">
        <ele>1738.2</ele>
        <time>2020-07-06T11:28:58Z</time>
      </trkpt>
      <trkpt lat="44.91977" lon="5.90032">
        <ele>1735.8</ele>
        <time>2020-07-06T11:29:08Z</time>
      </trkpt>
      <trkpt lat="44.91973" lon="5.90021">
        <ele>1732.43</ele>
        <time>2020-07-06T11:29:20Z</time>
      </trkpt>
      <trkpt lat="44.91971" lon="5.90015">
        <ele>1730.51</ele>
        <time>2020-07-06T11:29:26Z</time>
      </trkpt>
      <trkpt lat="44.91969" lon="5.90012">
        <ele>1730.03</ele>
        <time>2020-07-06T11:29:29Z</time>
      </trkpt>
      <trkpt lat="44.91962" lon="5.89999">
        <ele>1727.15</ele>
        <time>2020-07-06T11:29:43Z</time>
      </trkpt>
      <trkpt lat="44.91961" lon="5.89982">
        <ele>1724.74</ele>
        <time>2020-07-06T11:29:59Z</time>
      </trkpt>
      <trkpt lat="44.91959" lon="5.89969">
        <ele>1721.38</ele>
        <time>2020-07-06T11:30:12Z</time>
      </trkpt>
      <trkpt lat="44.9196" lon="5.89959">
        <ele>1718.01</ele>
        <time>2020-07-06T11:30:22Z</time>
      </trkpt>
      <trkpt lat="44.91964" lon="5.8995">
        <ele>1716.09</ele>
        <time>2020-07-06T11:30:38Z</time>
      </trkpt>
      <trkpt lat="44.91965" lon="5.89948">
        <ele>1714.17</ele>
        <time>2020-07-06T11:30:42Z</time>
      </trkpt>
      <trkpt lat="44.91969" lon="5.89944">
        <ele>1711.28</ele>
        <time>2020-07-06T11:30:51Z</time>
      </trkpt>
      <trkpt lat="44.91978" lon="5.89942">
        <ele>1707.92</ele>
        <time>2020-07-06T11:31:07Z</time>
      </trkpt>
      <trkpt lat="44.91987" lon="5.89943">
        <ele>1705.04</ele>
        <time>2020-07-06T11:31:20Z</time>
      </trkpt>
      <trkpt lat="44.91991" lon="5.89937">
        <ele>1701.67</ele>
        <time>2020-07-06T11:31:33Z</time>
      </trkpt>
      <trkpt lat="44.91993" lon="5.8993">
        <ele>1698.79</ele>
        <time>2020-07-06T11:31:46Z</time>
      </trkpt>
      <trkpt lat="44.91997" lon="5.89926">
        <ele>1695.9</ele>
        <time>2020-07-06T11:31:59Z</time>
      </trkpt>
      <trkpt lat="44.91997" lon="5.89923">
        <ele>1693.02</ele>
        <time>2020-07-06T11:32:04Z</time>
      </trkpt>
      <trkpt lat="44.91998" lon="5.89916">
        <ele>1692.54</ele>
        <time>2020-07-06T11:32:21Z</time>
      </trkpt>
      <trkpt lat="44.91997" lon="5.89909">
        <ele>1689.17</ele>
        <time>2020-07-06T11:32:34Z</time>
      </trkpt>
      <trkpt lat="44.91997" lon="5.89903">
        <ele>1685.81</ele>
        <time>2020-07-06T11:32:46Z</time>
      </trkpt>
      <trkpt lat="44.91999" lon="5.89892">
        <ele>1683.41</ele>
        <time>2020-07-06T11:33:04Z</time>
      </trkpt>
      <trkpt lat="44.92" lon="5.89885">
        <ele>1680.52</ele>
        <time>2020-07-06T11:33:20Z</time>
      </trkpt>
      <trkpt lat="44.92" lon="5.8988">
        <ele>1676.68</ele>
        <time>2020-07-06T11:33:32Z</time>
      </trkpt>
      <trkpt lat="44.91999" lon="5.89878">
        <ele>1678.6</ele>
        <time>2020-07-06T11:33:39Z</time>
      </trkpt>
      <trkpt lat="44.92" lon="5.89868">
        <ele>1675.72</ele>
        <time>2020-07-06T11:33:55Z</time>
      </trkpt>
      <trkpt lat="44.92" lon="5.89861">
        <ele>1672.35</ele>
        <time>2020-07-06T11:34:07Z</time>
      </trkpt>
      <trkpt lat="44.92002" lon="5.89856">
        <ele>1669.47</ele>
        <time>2020-07-06T11:34:19Z</time>
      </trkpt>
      <trkpt lat="44.92002" lon="5.89848">
        <ele>1667.54</ele>
        <time>2020-07-06T11:34:34Z</time>
      </trkpt>
      <trkpt lat="44.92002" lon="5.89845">
        <ele>1665.62</ele>
        <time>2020-07-06T11:34:50Z</time>
      </trkpt>
      <trkpt lat="44.92003" lon="5.8984">
        <ele>1664.66</ele>
        <time>2020-07-06T11:35:02Z</time>
      </trkpt>
      <trkpt lat="44.92006" lon="5.89836">
        <ele>1662.26</ele>
        <time>2020-07-06T11:35:17Z</time>
      </trkpt>
      <trkpt lat="44.92012" lon="5.89839">
        <ele>1659.37</ele>
        <time>2020-07-06T11:35:35Z</time>
      </trkpt>
      <trkpt lat="44.92013" lon="5.89834">
        <ele>1657.45</ele>
        <time>2020-07-06T11:35:52Z</time>
      </trkpt>
      <trkpt lat="44.92013" lon="5.89834">
        <ele>1656.01</ele>
        <time>2020-07-06T11:35:56Z</time>
      </trkpt>
      <trkpt lat="44.92014" lon="5.89834">
        <ele>1657.45</ele>
        <time>2020-07-06T11:36:01Z</time>
      </trkpt>
      <trkpt lat="44.92019" lon="5.89836">
        <ele>1654.57</ele>
        <time>2020-07-06T11:36:18Z</time>
      </trkpt>
      <trkpt lat="44.9202" lon="5.89835">
        <ele>1651.68</ele>
        <time>2020-07-06T11:36:35Z</time>
      </trkpt>
      <trkpt lat="44.92023" lon="5.89836">
        <ele>1650.24</ele>
        <time>2020-07-06T11:36:51Z</time>
      </trkpt>
      <trkpt lat="44.92024" lon="5.8983">
        <ele>1648.8</ele>
        <time>2020-07-06T11:37:14Z</time>
      </trkpt>
      <trkpt lat="44.92028" lon="5.89824">
        <ele>1645.43</ele>
        <time>2020-07-06T11:37:33Z</time>
      </trkpt>
      <trkpt lat="44.92033" lon="5.8983">
        <ele>1644.95</ele>
        <time>2020-07-06T11:37:51Z</time>
      </trkpt>
      <trkpt lat="44.92039" lon="5.89835">
        <ele>1643.03</ele>
        <time>2020-07-06T11:38:11Z</time>
      </trkpt>
      <trkpt lat="44.92041" lon="5.89832">
        <ele>1642.07</ele>
        <time>2020-07-06T11:38:25Z</time>
      </trkpt>
      <trkpt lat="44.92043" lon="5.89829">
        <ele>1639.19</ele>
        <time>2020-07-06T11:38:37Z</time>
      </trkpt>
      <trkpt lat="44.92043" lon="5.89821">
        <ele>1635.82</ele>
        <time>2020-07-06T11:38:51Z</time>
      </trkpt>
      <trkpt lat="44.92042" lon="5.89814">
        <ele>1632.94</ele>
        <time>2020-07-06T11:39:06Z</time>
      </trkpt>
      <trkpt lat="44.92044" lon="5.89811">
        <ele>1629.57</ele>
        <time>2020-07-06T11:39:19Z</time>
      </trkpt>
      <trkpt lat="44.92045" lon="5.8981">
        <ele>1626.69</ele>
        <time>2020-07-06T11:39:25Z</time>
      </trkpt>
      <trkpt lat="44.92045" lon="5.8981">
        <ele>1626.21</ele>
        <time>2020-07-06T11:39:26Z</time>
      </trkpt>
      <trkpt lat="44.92046" lon="5.8981">
        <ele>1629.57</ele>
        <time>2020-07-06T11:39:32Z</time>
      </trkpt>
      <trkpt lat="44.9205" lon="5.89814">
        <ele>1629.09</ele>
        <time>2020-07-06T11:39:48Z</time>
      </trkpt>
      <trkpt lat="44.92055" lon="5.89812">
        <ele>1626.21</ele>
        <time>2020-07-06T11:40:03Z</time>
      </trkpt>
      <trkpt lat="44.92055" lon="5.89809">
        <ele>1622.84</ele>
        <time>2020-07-06T11:40:23Z</time>
      </trkpt>
      <trkpt lat="44.92055" lon="5.89809">
        <ele>1621.88</ele>
        <time>2020-07-06T11:40:29Z</time>
      </trkpt>
      <trkpt lat="44.92061" lon="5.89815">
        <ele>1619.96</ele>
        <time>2020-07-06T11:40:47Z</time>
      </trkpt>
      <trkpt lat="44.92061" lon="5.89815">
        <ele>1620.44</ele>
        <time>2020-07-06T11:40:54Z</time>
      </trkpt>
      <trkpt lat="44.92067" lon="5.89817">
        <ele>1619.48</ele>
        <time>2020-07-06T11:41:10Z</time>
      </trkpt>
      <trkpt lat="44.92072" lon="5.89819">
        <ele>1617.56</ele>
        <time>2020-07-06T11:41:27Z</time>
      </trkpt>
      <trkpt lat="44.92075" lon="5.89819">
        <ele>1614.67</ele>
        <time>2020-07-06T11:41:43Z</time>
      </trkpt>
      <trkpt lat="44.92075" lon="5.89814">
        <ele>1612.27</ele>
        <time>2020-07-06T11:42:00Z</time>
      </trkpt>
      <trkpt lat="44.92081" lon="5.89814">
        <ele>1609.38</ele>
        <time>2020-07-06T11:42:16Z</time>
      </trkpt>
      <trkpt lat="44.92083" lon="5.89809">
        <ele>1607.46</ele>
        <time>2020-07-06T11:42:31Z</time>
      </trkpt>
      <trkpt lat="44.92083" lon="5.89809">
        <ele>1606.02</ele>
        <time>2020-07-06T11:42:46Z</time>
      </trkpt>
      <trkpt lat="44.92086" lon="5.89807">
        <ele>1605.54</ele>
        <time>2020-07-06T11:43:06Z</time>
      </trkpt>
      <trkpt lat="44.92091" lon="5.89811">
        <ele>1602.17</ele>
        <time>2020-07-06T11:43:18Z</time>
      </trkpt>
      <trkpt lat="44.92091" lon="5.8981">
        <ele>1602.66</ele>
        <time>2020-07-06T11:43:41Z</time>
      </trkpt>
      <trkpt lat="44.92095" lon="5.89813">
        <ele>1602.17</ele>
        <time>2020-07-06T11:43:53Z</time>
      </trkpt>
      <trkpt lat="44.92097" lon="5.89816">
        <ele>1602.17</ele>
        <time>2020-07-06T11:43:56Z</time>
      </trkpt>
      <trkpt lat="44.92104" lon="5.89825">
        <ele>1598.81</ele>
        <time>2020-07-06T11:44:05Z</time>
      </trkpt>
      <trkpt lat="44.92105" lon="5.89826">
        <ele>1598.81</ele>
        <time>2020-07-06T11:44:06Z</time>
      </trkpt>
      <trkpt lat="44.92106" lon="5.89826">
        <ele>1598.81</ele>
        <time>2020-07-06T11:44:07Z</time>
      </trkpt>
      <trkpt lat="44.9211" lon="5.89829">
        <ele>1600.73</ele>
        <time>2020-07-06T11:44:11Z</time>
      </trkpt>
      <trkpt lat="44.92117" lon="5.89833">
        <ele>1599.29</ele>
        <time>2020-07-06T11:44:21Z</time>
      </trkpt>
      <trkpt lat="44.92118" lon="5.89833">
        <ele>1598.81</ele>
        <time>2020-07-06T11:44:22Z</time>
      </trkpt>
      <trkpt lat="44.92119" lon="5.89834">
        <ele>1598.81</ele>
        <time>2020-07-06T11:44:23Z</time>
      </trkpt>
      <trkpt lat="44.92121" lon="5.89835">
        <ele>1598.81</ele>
        <time>2020-07-06T11:44:25Z</time>
      </trkpt>
      <trkpt lat="44.92123" lon="5.89835">
        <ele>1598.81</ele>
        <time>2020-07-06T11:44:26Z</time>
      </trkpt>
      <trkpt lat="44.92124" lon="5.89836">
        <ele>1598.81</ele>
        <time>2020-07-06T11:44:27Z</time>
      </trkpt>
      <trkpt lat="44.92141" lon="5.89841">
        <ele>1596.89</ele>
        <time>2020-07-06T11:44:43Z</time>
      </trkpt>
      <trkpt lat="44.92157" lon="5.89836">
        <ele>1594.96</ele>
        <time>2020-07-06T11:44:58Z</time>
      </trkpt>
      <trkpt lat="44.92171" lon="5.89832">
        <ele>1594.48</ele>
        <time>2020-07-06T11:45:12Z</time>
      </trkpt>
      <trkpt lat="44.92172" lon="5.89834">
        <ele>1594.48</ele>
        <time>2020-07-06T11:45:13Z</time>
      </trkpt>
      <trkpt lat="44.92173" lon="5.89835">
        <ele>1594.48</ele>
        <time>2020-07-06T11:45:14Z</time>
      </trkpt>
      <trkpt lat="44.92182" lon="5.89856">
        <ele>1592.56</ele>
        <time>2020-07-06T11:45:31Z</time>
      </trkpt>
      <trkpt lat="44.92184" lon="5.89862">
        <ele>1592.08</ele>
        <time>2020-07-06T11:45:36Z</time>
      </trkpt>
      <trkpt lat="44.92185" lon="5.89863">
        <ele>1592.08</ele>
        <time>2020-07-06T11:45:37Z</time>
      </trkpt>
      <trkpt lat="44.92186" lon="5.89864">
        <ele>1592.08</ele>
        <time>2020-07-06T11:45:38Z</time>
      </trkpt>
      <trkpt lat="44.92195" lon="5.89876">
        <ele>1592.56</ele>
        <time>2020-07-06T11:45:52Z</time>
      </trkpt>
      <trkpt lat="44.92196" lon="5.89877">
        <ele>1592.56</ele>
        <time>2020-07-06T11:45:53Z</time>
      </trkpt>
      <trkpt lat="44.92202" lon="5.89884">
        <ele>1593.52</ele>
        <time>2020-07-06T11:46:03Z</time>
      </trkpt>
      <trkpt lat="44.92213" lon="5.89889">
        <ele>1596.41</ele>
        <time>2020-07-06T11:46:18Z</time>
      </trkpt>
      <trkpt lat="44.92224" lon="5.89889">
        <ele>1598.81</ele>
        <time>2020-07-06T11:46:35Z</time>
      </trkpt>
      <trkpt lat="44.92232" lon="5.89891">
        <ele>1600.25</ele>
        <time>2020-07-06T11:46:46Z</time>
      </trkpt>
      <trkpt lat="44.92245" lon="5.89889">
        <ele>1602.17</ele>
        <time>2020-07-06T11:47:06Z</time>
      </trkpt>
      <trkpt lat="44.92247" lon="5.89889">
        <ele>1600.25</ele>
        <time>2020-07-06T11:47:10Z</time>
      </trkpt>
      <trkpt lat="44.92251" lon="5.89887">
        <ele>1603.14</ele>
        <time>2020-07-06T11:47:22Z</time>
      </trkpt>
      <trkpt lat="44.92247" lon="5.89875">
        <ele>1603.62</ele>
        <time>2020-07-06T11:47:42Z</time>
      </trkpt>
      <trkpt lat="44.92243" lon="5.89867">
        <ele>1605.06</ele>
        <time>2020-07-06T11:47:56Z</time>
      </trkpt>
      <trkpt lat="44.9224" lon="5.89859">
        <ele>1607.94</ele>
        <time>2020-07-06T11:48:09Z</time>
      </trkpt>
      <trkpt lat="44.92239" lon="5.89847">
        <ele>1609.86</ele>
        <time>2020-07-06T11:48:24Z</time>
      </trkpt>
      <trkpt lat="44.92245" lon="5.89847">
        <ele>1611.79</ele>
        <time>2020-07-06T11:48:37Z</time>
      </trkpt>
      <trkpt lat="44.92254" lon="5.89837">
        <ele>1613.23</ele>
        <time>2020-07-06T11:48:53Z</time>
      </trkpt>
      <trkpt lat="44.92257" lon="5.89828">
        <ele>1614.67</ele>
        <time>2020-07-06T11:49:01Z</time>
      </trkpt>
      <trkpt lat="44.92259" lon="5.89806">
        <ele>1617.07</ele>
        <time>2020-07-06T11:49:17Z</time>
      </trkpt>
      <trkpt lat="44.92262" lon="5.89787">
        <ele>1619</ele>
        <time>2020-07-06T11:49:33Z</time>
      </trkpt>
      <trkpt lat="44.92266" lon="5.89768">
        <ele>1620.92</ele>
        <time>2020-07-06T11:49:48Z</time>
      </trkpt>
      <trkpt lat="44.92271" lon="5.89747">
        <ele>1621.4</ele>
        <time>2020-07-06T11:50:05Z</time>
      </trkpt>
      <trkpt lat="44.92274" lon="5.89728">
        <ele>1622.84</ele>
        <time>2020-07-06T11:50:20Z</time>
      </trkpt>
      <trkpt lat="44.92278" lon="5.89709">
        <ele>1624.77</ele>
        <time>2020-07-06T11:50:35Z</time>
      </trkpt>
      <trkpt lat="44.9228" lon="5.89693">
        <ele>1626.21</ele>
        <time>2020-07-06T11:50:48Z</time>
      </trkpt>
      <trkpt lat="44.92281" lon="5.89692">
        <ele>1626.21</ele>
        <time>2020-07-06T11:50:49Z</time>
      </trkpt>
      <trkpt lat="44.92281" lon="5.89691">
        <ele>1626.21</ele>
        <time>2020-07-06T11:50:50Z</time>
      </trkpt>
      <trkpt lat="44.92282" lon="5.89689">
        <ele>1626.21</ele>
        <time>2020-07-06T11:50:51Z</time>
      </trkpt>
      <trkpt lat="44.92283" lon="5.89688">
        <ele>1626.21</ele>
        <time>2020-07-06T11:50:52Z</time>
      </trkpt>
      <trkpt lat="44.92292" lon="5.89674">
        <ele>1626.69</ele>
        <time>2020-07-06T11:51:08Z</time>
      </trkpt>
      <trkpt lat="44.92288" lon="5.89659">
        <ele>1629.09</ele>
        <time>2020-07-06T11:51:24Z</time>
      </trkpt>
      <trkpt lat="44.92291" lon="5.89643">
        <ele>1631.01</ele>
        <time>2020-07-06T11:51:40Z</time>
      </trkpt>
      <trkpt lat="44.92293" lon="5.8963">
        <ele>1634.38</ele>
        <time>2020-07-06T11:51:54Z</time>
      </trkpt>
      <trkpt lat="44.92292" lon="5.89625">
        <ele>1634.86</ele>
        <time>2020-07-06T11:51:58Z</time>
      </trkpt>
      <trkpt lat="44.92292" lon="5.89624">
        <ele>1634.86</ele>
        <time>2020-07-06T11:51:59Z</time>
      </trkpt>
      <trkpt lat="44.92293" lon="5.89608">
        <ele>1636.78</ele>
        <time>2020-07-06T11:52:13Z</time>
      </trkpt>
      <trkpt lat="44.92293" lon="5.89602">
        <ele>1637.74</ele>
        <time>2020-07-06T11:52:19Z</time>
      </trkpt>
      <trkpt lat="44.92293" lon="5.896">
        <ele>1637.74</ele>
        <time>2020-07-06T11:52:20Z</time>
      </trkpt>
      <trkpt lat="44.92294" lon="5.89584">
        <ele>1639.19</ele>
        <time>2020-07-06T11:52:37Z</time>
      </trkpt>
      <trkpt lat="44.92295" lon="5.89571">
        <ele>1641.11</ele>
        <time>2020-07-06T11:52:51Z</time>
      </trkpt>
      <trkpt lat="44.92297" lon="5.89553">
        <ele>1643.51</ele>
        <time>2020-07-06T11:53:08Z</time>
      </trkpt>
      <trkpt lat="44.92298" lon="5.8954">
        <ele>1644.95</ele>
        <time>2020-07-06T11:53:23Z</time>
      </trkpt>
      <trkpt lat="44.92298" lon="5.89538">
        <ele>1645.43</ele>
        <time>2020-07-06T11:53:24Z</time>
      </trkpt>
      <trkpt lat="44.92299" lon="5.89525">
        <ele>1646.88</ele>
        <time>2020-07-06T11:53:36Z</time>
      </trkpt>
      <trkpt lat="44.92302" lon="5.89516">
        <ele>1649.28</ele>
        <time>2020-07-06T11:53:51Z</time>
      </trkpt>
      <trkpt lat="44.92302" lon="5.89504">
        <ele>1651.2</ele>
        <time>2020-07-06T11:54:07Z</time>
      </trkpt>
      <trkpt lat="44.92305" lon="5.89494">
        <ele>1654.09</ele>
        <time>2020-07-06T11:54:24Z</time>
      </trkpt>
      <trkpt lat="44.92307" lon="5.89485">
        <ele>1656.97</ele>
        <time>2020-07-06T11:54:41Z</time>
      </trkpt>
      <trkpt lat="44.9231" lon="5.89478">
        <ele>1659.37</ele>
        <time>2020-07-06T11:54:56Z</time>
      </trkpt>
      <trkpt lat="44.92311" lon="5.89468">
        <ele>1662.74</ele>
        <time>2020-07-06T11:55:11Z</time>
      </trkpt>
      <trkpt lat="44.92313" lon="5.89456">
        <ele>1664.66</ele>
        <time>2020-07-06T11:55:26Z</time>
      </trkpt>
      <trkpt lat="44.92312" lon="5.89454">
        <ele>1665.14</ele>
        <time>2020-07-06T11:55:28Z</time>
      </trkpt>
      <trkpt lat="44.92312" lon="5.89452">
        <ele>1665.62</ele>
        <time>2020-07-06T11:55:29Z</time>
      </trkpt>
      <trkpt lat="44.92311" lon="5.8944">
        <ele>1666.58</ele>
        <time>2020-07-06T11:55:40Z</time>
      </trkpt>
      <trkpt lat="44.92313" lon="5.89427">
        <ele>1668.99</ele>
        <time>2020-07-06T11:55:56Z</time>
      </trkpt>
      <trkpt lat="44.92315" lon="5.89414">
        <ele>1671.87</ele>
        <time>2020-07-06T11:56:13Z</time>
      </trkpt>
      <trkpt lat="44.92318" lon="5.89403">
        <ele>1674.27</ele>
        <time>2020-07-06T11:56:27Z</time>
      </trkpt>
      <trkpt lat="44.9232" lon="5.89392">
        <ele>1677.16</ele>
        <time>2020-07-06T11:56:44Z</time>
      </trkpt>
      <trkpt lat="44.92323" lon="5.89383">
        <ele>1680.04</ele>
        <time>2020-07-06T11:57:01Z</time>
      </trkpt>
      <trkpt lat="44.92326" lon="5.89377">
        <ele>1682.44</ele>
        <time>2020-07-06T11:57:15Z</time>
      </trkpt>
      <trkpt lat="44.92335" lon="5.89377">
        <ele>1684.37</ele>
        <time>2020-07-06T11:57:29Z</time>
      </trkpt>
      <trkpt lat="44.92341" lon="5.89377">
        <ele>1684.37</ele>
        <time>2020-07-06T11:57:36Z</time>
      </trkpt>
      <trkpt lat="44.92342" lon="5.89376">
        <ele>1683.89</ele>
        <time>2020-07-06T11:57:37Z</time>
      </trkpt>
      <trkpt lat="44.92345" lon="5.89367">
        <ele>1684.85</ele>
        <time>2020-07-06T11:57:48Z</time>
      </trkpt>
      <trkpt lat="44.92344" lon="5.89363">
        <ele>1684.37</ele>
        <time>2020-07-06T11:57:51Z</time>
      </trkpt>
      <trkpt lat="44.92344" lon="5.89362">
        <ele>1684.37</ele>
        <time>2020-07-06T11:57:52Z</time>
      </trkpt>
      <trkpt lat="44.92343" lon="5.89348">
        <ele>1681.96</ele>
        <time>2020-07-06T11:58:04Z</time>
      </trkpt>
      <trkpt lat="44.92345" lon="5.89341">
        <ele>1681.48</ele>
        <time>2020-07-06T11:58:11Z</time>
      </trkpt>
      <trkpt lat="44.92345" lon="5.89337">
        <ele>1681</ele>
        <time>2020-07-06T11:58:13Z</time>
      </trkpt>
      <trkpt lat="44.92349" lon="5.89312">
        <ele>1679.56</ele>
        <time>2020-07-06T11:58:30Z</time>
      </trkpt>
      <trkpt lat="44.92354" lon="5.89292">
        <ele>1679.56</ele>
        <time>2020-07-06T11:58:45Z</time>
      </trkpt>
      <trkpt lat="44.92355" lon="5.89281">
        <ele>1679.56</ele>
        <time>2020-07-06T11:59:02Z</time>
      </trkpt>
      <trkpt lat="44.92357" lon="5.8927">
        <ele>1679.56</ele>
        <time>2020-07-06T11:59:33Z</time>
      </trkpt>
      <trkpt lat="44.9236" lon="5.89264">
        <ele>1680.04</ele>
        <time>2020-07-06T11:59:51Z</time>
      </trkpt>
      <trkpt lat="44.92361" lon="5.89263">
        <ele>1678.6</ele>
        <time>2020-07-06T12:00:09Z</time>
      </trkpt>
      <trkpt lat="44.92361" lon="5.89264">
        <ele>1677.64</ele>
        <time>2020-07-06T12:00:11Z</time>
      </trkpt>
      <trkpt lat="44.92361" lon="5.89263">
        <ele>1681</ele>
        <time>2020-07-06T12:00:23Z</time>
      </trkpt>
      <trkpt lat="44.92361" lon="5.89263">
        <ele>1681.96</ele>
        <time>2020-07-06T12:00:25Z</time>
      </trkpt>
      <trkpt lat="44.92361" lon="5.89263">
        <ele>1679.56</ele>
        <time>2020-07-06T12:01:00Z</time>
      </trkpt>
      <trkpt lat="44.92361" lon="5.89263">
        <ele>1679.56</ele>
        <time>2020-07-06T12:01:54Z</time>
      </trkpt>
      <trkpt lat="44.92361" lon="5.89263">
        <ele>1679.56</ele>
        <time>2020-07-06T12:02:20Z</time>
      </trkpt>
      <trkpt lat="44.92361" lon="5.89263">
        <ele>1679.56</ele>
        <time>2020-07-06T12:02:43Z</time>
      </trkpt>
      <trkpt lat="44.92361" lon="5.89261">
        <ele>1679.56</ele>
        <time>2020-07-06T12:03:00Z</time>
      </trkpt>
      <trkpt lat="44.92362" lon="5.8926">
        <ele>1679.56</ele>
        <time>2020-07-06T12:03:01Z</time>
      </trkpt>
      <trkpt lat="44.92371" lon="5.8925">
        <ele>1678.6</ele>
        <time>2020-07-06T12:03:14Z</time>
      </trkpt>
      <trkpt lat="44.92379" lon="5.8925">
        <ele>1679.56</ele>
        <time>2020-07-06T12:03:29Z</time>
      </trkpt>
      <trkpt lat="44.92384" lon="5.89248">
        <ele>1681</ele>
        <time>2020-07-06T12:03:37Z</time>
      </trkpt>
      <trkpt lat="44.92392" lon="5.89253">
        <ele>1682.93</ele>
        <time>2020-07-06T12:03:49Z</time>
      </trkpt>
      <trkpt lat="44.92399" lon="5.89255">
        <ele>1683.41</ele>
        <time>2020-07-06T12:04:01Z</time>
      </trkpt>
      <trkpt lat="44.9241" lon="5.89263">
        <ele>1685.81</ele>
        <time>2020-07-06T12:04:18Z</time>
      </trkpt>
      <trkpt lat="44.92414" lon="5.89264">
        <ele>1686.77</ele>
        <time>2020-07-06T12:04:23Z</time>
      </trkpt>
      <trkpt lat="44.92424" lon="5.89261">
        <ele>1688.21</ele>
        <time>2020-07-06T12:04:37Z</time>
      </trkpt>
      <trkpt lat="44.92429" lon="5.89261">
        <ele>1689.17</ele>
        <time>2020-07-06T12:04:43Z</time>
      </trkpt>
      <trkpt lat="44.92436" lon="5.89265">
        <ele>1689.65</ele>
        <time>2020-07-06T12:04:51Z</time>
      </trkpt>
      <trkpt lat="44.92448" lon="5.89261">
        <ele>1689.17</ele>
        <time>2020-07-06T12:05:06Z</time>
      </trkpt>
      <trkpt lat="44.92456" lon="5.89263">
        <ele>1692.54</ele>
        <time>2020-07-06T12:05:18Z</time>
      </trkpt>
      <trkpt lat="44.92457" lon="5.89262">
        <ele>1693.98</ele>
        <time>2020-07-06T12:05:20Z</time>
      </trkpt>
      <trkpt lat="44.92459" lon="5.8926">
        <ele>1693.5</ele>
        <time>2020-07-06T12:05:23Z</time>
      </trkpt>
      <trkpt lat="44.92471" lon="5.89257">
        <ele>1693.5</ele>
        <time>2020-07-06T12:05:36Z</time>
      </trkpt>
      <trkpt lat="44.92472" lon="5.89257">
        <ele>1693.5</ele>
        <time>2020-07-06T12:05:37Z</time>
      </trkpt>
      <trkpt lat="44.92475" lon="5.89258">
        <ele>1693.98</ele>
        <time>2020-07-06T12:05:41Z</time>
      </trkpt>
      <trkpt lat="44.92489" lon="5.89261">
        <ele>1694.94</ele>
        <time>2020-07-06T12:05:56Z</time>
      </trkpt>
      <trkpt lat="44.92502" lon="5.89261">
        <ele>1695.9</ele>
        <time>2020-07-06T12:06:12Z</time>
      </trkpt>
      <trkpt lat="44.92504" lon="5.8926">
        <ele>1696.38</ele>
        <time>2020-07-06T12:06:14Z</time>
      </trkpt>
      <trkpt lat="44.92506" lon="5.89258">
        <ele>1696.38</ele>
        <time>2020-07-06T12:06:17Z</time>
      </trkpt>
      <trkpt lat="44.92515" lon="5.89245">
        <ele>1695.9</ele>
        <time>2020-07-06T12:06:33Z</time>
      </trkpt>
      <trkpt lat="44.92524" lon="5.89244">
        <ele>1697.83</ele>
        <time>2020-07-06T12:06:46Z</time>
      </trkpt>
      <trkpt lat="44.92526" lon="5.89242">
        <ele>1697.83</ele>
        <time>2020-07-06T12:06:49Z</time>
      </trkpt>
      <trkpt lat="44.92527" lon="5.89238">
        <ele>1697.83</ele>
        <time>2020-07-06T12:06:54Z</time>
      </trkpt>
      <trkpt lat="44.92532" lon="5.89226">
        <ele>1697.34</ele>
        <time>2020-07-06T12:07:06Z</time>
      </trkpt>
      <trkpt lat="44.92535" lon="5.89217">
        <ele>1699.27</ele>
        <time>2020-07-06T12:07:18Z</time>
      </trkpt>
      <trkpt lat="44.92541" lon="5.8921">
        <ele>1698.79</ele>
        <time>2020-07-06T12:07:28Z</time>
      </trkpt>
      <trkpt lat="44.92544" lon="5.89207">
        <ele>1701.67</ele>
        <time>2020-07-06T12:07:33Z</time>
      </trkpt>
      <trkpt lat="44.92544" lon="5.89206">
        <ele>1702.15</ele>
        <time>2020-07-06T12:07:34Z</time>
      </trkpt>
      <trkpt lat="44.92546" lon="5.892">
        <ele>1702.15</ele>
        <time>2020-07-06T12:07:39Z</time>
      </trkpt>
      <trkpt lat="44.92552" lon="5.89187">
        <ele>1703.59</ele>
        <time>2020-07-06T12:07:54Z</time>
      </trkpt>
      <trkpt lat="44.92557" lon="5.89171">
        <ele>1705.04</ele>
        <time>2020-07-06T12:08:09Z</time>
      </trkpt>
      <trkpt lat="44.92562" lon="5.89164">
        <ele>1706</ele>
        <time>2020-07-06T12:08:23Z</time>
      </trkpt>
      <trkpt lat="44.92562" lon="5.89149">
        <ele>1707.44</ele>
        <time>2020-07-06T12:08:39Z</time>
      </trkpt>
      <trkpt lat="44.92567" lon="5.89149">
        <ele>1709.36</ele>
        <time>2020-07-06T12:08:51Z</time>
      </trkpt>
      <trkpt lat="44.92568" lon="5.89139">
        <ele>1711.28</ele>
        <time>2020-07-06T12:09:05Z</time>
      </trkpt>
      <trkpt lat="44.92569" lon="5.89129">
        <ele>1712.73</ele>
        <time>2020-07-06T12:09:18Z</time>
      </trkpt>
      <trkpt lat="44.92562" lon="5.89116">
        <ele>1713.69</ele>
        <time>2020-07-06T12:09:31Z</time>
      </trkpt>
      <trkpt lat="44.92557" lon="5.89103">
        <ele>1712.73</ele>
        <time>2020-07-06T12:09:47Z</time>
      </trkpt>
      <trkpt lat="44.92556" lon="5.891">
        <ele>1712.73</ele>
        <time>2020-07-06T12:09:52Z</time>
      </trkpt>
      <trkpt lat="44.92554" lon="5.89094">
        <ele>1712.73</ele>
        <time>2020-07-06T12:09:57Z</time>
      </trkpt>
      <trkpt lat="44.9255" lon="5.89076">
        <ele>1712.73</ele>
        <time>2020-07-06T12:10:12Z</time>
      </trkpt>
      <trkpt lat="44.92547" lon="5.89063">
        <ele>1713.21</ele>
        <time>2020-07-06T12:10:27Z</time>
      </trkpt>
      <trkpt lat="44.92544" lon="5.89052">
        <ele>1713.21</ele>
        <time>2020-07-06T12:10:39Z</time>
      </trkpt>
      <trkpt lat="44.92542" lon="5.89039">
        <ele>1712.73</ele>
        <time>2020-07-06T12:10:54Z</time>
      </trkpt>
      <trkpt lat="44.92543" lon="5.8903">
        <ele>1709.36</ele>
        <time>2020-07-06T12:11:03Z</time>
      </trkpt>
      <trkpt lat="44.92548" lon="5.89015">
        <ele>1708.4</ele>
        <time>2020-07-06T12:11:21Z</time>
      </trkpt>
      <trkpt lat="44.92549" lon="5.89004">
        <ele>1708.4</ele>
        <time>2020-07-06T12:11:34Z</time>
      </trkpt>
      <trkpt lat="44.92554" lon="5.88994">
        <ele>1706</ele>
        <time>2020-07-06T12:11:48Z</time>
      </trkpt>
      <trkpt lat="44.9256" lon="5.88984">
        <ele>1702.63</ele>
        <time>2020-07-06T12:12:02Z</time>
      </trkpt>
      <trkpt lat="44.92561" lon="5.88982">
        <ele>1701.19</ele>
        <time>2020-07-06T12:12:04Z</time>
      </trkpt>
      <trkpt lat="44.92568" lon="5.8897">
        <ele>1699.75</ele>
        <time>2020-07-06T12:12:19Z</time>
      </trkpt>
      <trkpt lat="44.92565" lon="5.88961">
        <ele>1696.86</ele>
        <time>2020-07-06T12:12:32Z</time>
      </trkpt>
      <trkpt lat="44.92556" lon="5.88955">
        <ele>1693.98</ele>
        <time>2020-07-06T12:12:46Z</time>
      </trkpt>
      <trkpt lat="44.92551" lon="5.88947">
        <ele>1689.65</ele>
        <time>2020-07-06T12:12:56Z</time>
      </trkpt>
      <trkpt lat="44.92548" lon="5.88941">
        <ele>1685.81</ele>
        <time>2020-07-06T12:13:03Z</time>
      </trkpt>
      <trkpt lat="44.92548" lon="5.88939">
        <ele>1683.89</ele>
        <time>2020-07-06T12:13:06Z</time>
      </trkpt>
      <trkpt lat="44.92546" lon="5.88933">
        <ele>1686.77</ele>
        <time>2020-07-06T12:13:12Z</time>
      </trkpt>
      <trkpt lat="44.9254" lon="5.88922">
        <ele>1684.37</ele>
        <time>2020-07-06T12:13:29Z</time>
      </trkpt>
      <trkpt lat="44.92539" lon="5.88912">
        <ele>1681.48</ele>
        <time>2020-07-06T12:13:41Z</time>
      </trkpt>
      <trkpt lat="44.92535" lon="5.88902">
        <ele>1678.6</ele>
        <time>2020-07-06T12:13:55Z</time>
      </trkpt>
      <trkpt lat="44.92529" lon="5.889">
        <ele>1675.72</ele>
        <time>2020-07-06T12:14:08Z</time>
      </trkpt>
      <trkpt lat="44.92524" lon="5.88894">
        <ele>1673.31</ele>
        <time>2020-07-06T12:14:20Z</time>
      </trkpt>
      <trkpt lat="44.92517" lon="5.8889">
        <ele>1669.95</ele>
        <time>2020-07-06T12:14:35Z</time>
      </trkpt>
      <trkpt lat="44.92512" lon="5.88883">
        <ele>1666.58</ele>
        <time>2020-07-06T12:14:46Z</time>
      </trkpt>
      <trkpt lat="44.9251" lon="5.88876">
        <ele>1664.18</ele>
        <time>2020-07-06T12:14:59Z</time>
      </trkpt>
      <trkpt lat="44.92509" lon="5.88875">
        <ele>1664.18</ele>
        <time>2020-07-06T12:15:00Z</time>
      </trkpt>
      <trkpt lat="44.92506" lon="5.88868">
        <ele>1660.81</ele>
        <time>2020-07-06T12:15:10Z</time>
      </trkpt>
      <trkpt lat="44.92507" lon="5.88864">
        <ele>1659.37</ele>
        <time>2020-07-06T12:15:13Z</time>
      </trkpt>
      <trkpt lat="44.92506" lon="5.88853">
        <ele>1659.85</ele>
        <time>2020-07-06T12:15:27Z</time>
      </trkpt>
      <trkpt lat="44.92501" lon="5.88851">
        <ele>1656.97</ele>
        <time>2020-07-06T12:15:39Z</time>
      </trkpt>
      <trkpt lat="44.92495" lon="5.88853">
        <ele>1654.09</ele>
        <time>2020-07-06T12:15:53Z</time>
      </trkpt>
      <trkpt lat="44.92492" lon="5.88852">
        <ele>1651.68</ele>
        <time>2020-07-06T12:16:06Z</time>
      </trkpt>
      <trkpt lat="44.92488" lon="5.88853">
        <ele>1649.28</ele>
        <time>2020-07-06T12:16:19Z</time>
      </trkpt>
      <trkpt lat="44.92484" lon="5.88854">
        <ele>1646.4</ele>
        <time>2020-07-06T12:16:31Z</time>
      </trkpt>
      <trkpt lat="44.92479" lon="5.88848">
        <ele>1643.03</ele>
        <time>2020-07-06T12:16:45Z</time>
      </trkpt>
      <trkpt lat="44.92475" lon="5.88846">
        <ele>1640.15</ele>
        <time>2020-07-06T12:16:59Z</time>
      </trkpt>
      <trkpt lat="44.92475" lon="5.88845">
        <ele>1638.7</ele>
        <time>2020-07-06T12:17:02Z</time>
      </trkpt>
      <trkpt lat="44.9247" lon="5.88839">
        <ele>1640.15</ele>
        <time>2020-07-06T12:17:26Z</time>
      </trkpt>
      <trkpt lat="44.92457" lon="5.88836">
        <ele>1637.26</ele>
        <time>2020-07-06T12:17:42Z</time>
      </trkpt>
      <trkpt lat="44.92453" lon="5.88834">
        <ele>1636.78</ele>
        <time>2020-07-06T12:17:48Z</time>
      </trkpt>
      <trkpt lat="44.92439" lon="5.88827">
        <ele>1633.9</ele>
        <time>2020-07-06T12:18:05Z</time>
      </trkpt>
      <trkpt lat="44.9243" lon="5.88816">
        <ele>1631.49</ele>
        <time>2020-07-06T12:18:20Z</time>
      </trkpt>
      <trkpt lat="44.92425" lon="5.88813">
        <ele>1625.25</ele>
        <time>2020-07-06T12:18:34Z</time>
      </trkpt>
      <trkpt lat="44.92424" lon="5.88813">
        <ele>1621.88</ele>
        <time>2020-07-06T12:18:37Z</time>
      </trkpt>
      <trkpt lat="44.92424" lon="5.88813">
        <ele>1621.88</ele>
        <time>2020-07-06T12:18:38Z</time>
      </trkpt>
      <trkpt lat="44.92425" lon="5.88814">
        <ele>1625.73</ele>
        <time>2020-07-06T12:18:46Z</time>
      </trkpt>
      <trkpt lat="44.92424" lon="5.88814">
        <ele>1629.57</ele>
        <time>2020-07-06T12:19:00Z</time>
      </trkpt>
      <trkpt lat="44.92423" lon="5.88815">
        <ele>1631.49</ele>
        <time>2020-07-06T12:19:02Z</time>
      </trkpt>
      <trkpt lat="44.92419" lon="5.88814">
        <ele>1628.13</ele>
        <time>2020-07-06T12:19:10Z</time>
      </trkpt>
      <trkpt lat="44.92413" lon="5.88819">
        <ele>1624.77</ele>
        <time>2020-07-06T12:19:22Z</time>
      </trkpt>
      <trkpt lat="44.92412" lon="5.88813">
        <ele>1623.8</ele>
        <time>2020-07-06T12:19:36Z</time>
      </trkpt>
      <trkpt lat="44.92413" lon="5.88809">
        <ele>1623.32</ele>
        <time>2020-07-06T12:19:50Z</time>
      </trkpt>
      <trkpt lat="44.92413" lon="5.88801">
        <ele>1621.88</ele>
        <time>2020-07-06T12:20:22Z</time>
      </trkpt>
      <trkpt lat="44.9241" lon="5.88797">
        <ele>1619</ele>
        <time>2020-07-06T12:20:35Z</time>
      </trkpt>
      <trkpt lat="44.92408" lon="5.88795">
        <ele>1618.52</ele>
        <time>2020-07-06T12:20:37Z</time>
      </trkpt>
      <trkpt lat="44.92405" lon="5.88797">
        <ele>1616.59</ele>
        <time>2020-07-06T12:20:48Z</time>
      </trkpt>
      <trkpt lat="44.92403" lon="5.88802">
        <ele>1615.63</ele>
        <time>2020-07-06T12:20:57Z</time>
      </trkpt>
      <trkpt lat="44.92401" lon="5.88804">
        <ele>1615.63</ele>
        <time>2020-07-06T12:20:59Z</time>
      </trkpt>
      <trkpt lat="44.92394" lon="5.88814">
        <ele>1614.19</ele>
        <time>2020-07-06T12:21:09Z</time>
      </trkpt>
      <trkpt lat="44.92389" lon="5.88816">
        <ele>1610.83</ele>
        <time>2020-07-06T12:21:14Z</time>
      </trkpt>
      <trkpt lat="44.92372" lon="5.8883">
        <ele>1611.79</ele>
        <time>2020-07-06T12:21:33Z</time>
      </trkpt>
      <trkpt lat="44.92364" lon="5.88838">
        <ele>1609.38</ele>
        <time>2020-07-06T12:21:46Z</time>
      </trkpt>
      <trkpt lat="44.92364" lon="5.88839">
        <ele>1608.9</ele>
        <time>2020-07-06T12:21:47Z</time>
      </trkpt>
      <trkpt lat="44.92363" lon="5.8884">
        <ele>1608.9</ele>
        <time>2020-07-06T12:21:48Z</time>
      </trkpt>
      <trkpt lat="44.92345" lon="5.88838">
        <ele>1606.02</ele>
        <time>2020-07-06T12:22:06Z</time>
      </trkpt>
      <trkpt lat="44.92346" lon="5.88827">
        <ele>1606.02</ele>
        <time>2020-07-06T12:22:21Z</time>
      </trkpt>
      <trkpt lat="44.92338" lon="5.88822">
        <ele>1603.14</ele>
        <time>2020-07-06T12:22:34Z</time>
      </trkpt>
      <trkpt lat="44.92329" lon="5.8882">
        <ele>1599.77</ele>
        <time>2020-07-06T12:22:47Z</time>
      </trkpt>
      <trkpt lat="44.92325" lon="5.88816">
        <ele>1596.41</ele>
        <time>2020-07-06T12:22:55Z</time>
      </trkpt>
      <trkpt lat="44.92322" lon="5.88812">
        <ele>1593.52</ele>
        <time>2020-07-06T12:23:01Z</time>
      </trkpt>
      <trkpt lat="44.92321" lon="5.8881">
        <ele>1596.89</ele>
        <time>2020-07-06T12:23:06Z</time>
      </trkpt>
      <trkpt lat="44.92313" lon="5.88803">
        <ele>1593.52</ele>
        <time>2020-07-06T12:23:19Z</time>
      </trkpt>
      <trkpt lat="44.92305" lon="5.88798">
        <ele>1590.64</ele>
        <time>2020-07-06T12:23:33Z</time>
      </trkpt>
      <trkpt lat="44.92294" lon="5.88795">
        <ele>1587.27</ele>
        <time>2020-07-06T12:23:48Z</time>
      </trkpt>
      <trkpt lat="44.92286" lon="5.88778">
        <ele>1584.39</ele>
        <time>2020-07-06T12:23:53Z</time>
      </trkpt>
      <trkpt lat="44.92277" lon="5.88767">
        <ele>1581.03</ele>
        <time>2020-07-06T12:24:09Z</time>
      </trkpt>
      <trkpt lat="44.92267" lon="5.88758">
        <ele>1577.66</ele>
        <time>2020-07-06T12:24:25Z</time>
      </trkpt>
      <trkpt lat="44.92266" lon="5.88756">
        <ele>1576.22</ele>
        <time>2020-07-06T12:24:40Z</time>
      </trkpt>
      <trkpt lat="44.92264" lon="5.88752">
        <ele>1575.26</ele>
        <time>2020-07-06T12:24:58Z</time>
      </trkpt>
      <trkpt lat="44.92265" lon="5.8875">
        <ele>1574.3</ele>
        <time>2020-07-06T12:25:11Z</time>
      </trkpt>
      <trkpt lat="44.92253" lon="5.8875">
        <ele>1572.85</ele>
        <time>2020-07-06T12:25:31Z</time>
      </trkpt>
      <trkpt lat="44.92242" lon="5.88746">
        <ele>1569.49</ele>
        <time>2020-07-06T12:25:46Z</time>
      </trkpt>
      <trkpt lat="44.92235" lon="5.88742">
        <ele>1566.61</ele>
        <time>2020-07-06T12:25:57Z</time>
      </trkpt>
      <trkpt lat="44.92225" lon="5.88738">
        <ele>1563.24</ele>
        <time>2020-07-06T12:26:13Z</time>
      </trkpt>
      <trkpt lat="44.92221" lon="5.88735">
        <ele>1560.36</ele>
        <time>2020-07-06T12:26:19Z</time>
      </trkpt>
      <trkpt lat="44.92211" lon="5.88725">
        <ele>1559.88</ele>
        <time>2020-07-06T12:26:38Z</time>
      </trkpt>
      <trkpt lat="44.92206" lon="5.88716">
        <ele>1556.51</ele>
        <time>2020-07-06T12:26:53Z</time>
      </trkpt>
      <trkpt lat="44.922" lon="5.88712">
        <ele>1554.11</ele>
        <time>2020-07-06T12:27:06Z</time>
      </trkpt>
      <trkpt lat="44.92192" lon="5.88706">
        <ele>1551.22</ele>
        <time>2020-07-06T12:27:24Z</time>
      </trkpt>
      <trkpt lat="44.92182" lon="5.88701">
        <ele>1547.86</ele>
        <time>2020-07-06T12:27:41Z</time>
      </trkpt>
      <trkpt lat="44.92174" lon="5.88694">
        <ele>1544.98</ele>
        <time>2020-07-06T12:27:57Z</time>
      </trkpt>
      <trkpt lat="44.92169" lon="5.88689">
        <ele>1542.09</ele>
        <time>2020-07-06T12:28:11Z</time>
      </trkpt>
      <trkpt lat="44.92165" lon="5.8868">
        <ele>1539.21</ele>
        <time>2020-07-06T12:28:24Z</time>
      </trkpt>
      <trkpt lat="44.92162" lon="5.88666">
        <ele>1536.32</ele>
        <time>2020-07-06T12:28:42Z</time>
      </trkpt>
      <trkpt lat="44.92156" lon="5.8865">
        <ele>1533.44</ele>
        <time>2020-07-06T12:28:56Z</time>
      </trkpt>
      <trkpt lat="44.92154" lon="5.88641">
        <ele>1530.08</ele>
        <time>2020-07-06T12:29:03Z</time>
      </trkpt>
      <trkpt lat="44.92144" lon="5.88622">
        <ele>1529.11</ele>
        <time>2020-07-06T12:29:22Z</time>
      </trkpt>
      <trkpt lat="44.92142" lon="5.88621">
        <ele>1528.63</ele>
        <time>2020-07-06T12:29:24Z</time>
      </trkpt>
      <trkpt lat="44.92138" lon="5.88612">
        <ele>1526.23</ele>
        <time>2020-07-06T12:29:33Z</time>
      </trkpt>
      <trkpt lat="44.92138" lon="5.88607">
        <ele>1525.27</ele>
        <time>2020-07-06T12:29:38Z</time>
      </trkpt>
      <trkpt lat="44.92138" lon="5.88606">
        <ele>1525.27</ele>
        <time>2020-07-06T12:29:39Z</time>
      </trkpt>
      <trkpt lat="44.92137" lon="5.88604">
        <ele>1525.27</ele>
        <time>2020-07-06T12:29:40Z</time>
      </trkpt>
      <trkpt lat="44.92137" lon="5.88603">
        <ele>1525.27</ele>
        <time>2020-07-06T12:29:41Z</time>
      </trkpt>
      <trkpt lat="44.92136" lon="5.88601">
        <ele>1524.79</ele>
        <time>2020-07-06T12:29:42Z</time>
      </trkpt>
      <trkpt lat="44.92136" lon="5.886">
        <ele>1524.79</ele>
        <time>2020-07-06T12:29:43Z</time>
      </trkpt>
      <trkpt lat="44.92135" lon="5.88597">
        <ele>1524.79</ele>
        <time>2020-07-06T12:29:45Z</time>
      </trkpt>
      <trkpt lat="44.92125" lon="5.88586">
        <ele>1522.39</ele>
        <time>2020-07-06T12:30:03Z</time>
      </trkpt>
      <trkpt lat="44.92122" lon="5.88574">
        <ele>1519.98</ele>
        <time>2020-07-06T12:30:18Z</time>
      </trkpt>
      <trkpt lat="44.92118" lon="5.88565">
        <ele>1517.1</ele>
        <time>2020-07-06T12:30:33Z</time>
      </trkpt>
      <trkpt lat="44.92116" lon="5.88548">
        <ele>1514.21</ele>
        <time>2020-07-06T12:30:49Z</time>
      </trkpt>
      <trkpt lat="44.92112" lon="5.88544">
        <ele>1511.33</ele>
        <time>2020-07-06T12:31:02Z</time>
      </trkpt>
      <trkpt lat="44.92106" lon="5.88539">
        <ele>1508.93</ele>
        <time>2020-07-06T12:31:16Z</time>
      </trkpt>
      <trkpt lat="44.92101" lon="5.88531">
        <ele>1505.56</ele>
        <time>2020-07-06T12:31:31Z</time>
      </trkpt>
      <trkpt lat="44.92097" lon="5.88521">
        <ele>1503.16</ele>
        <time>2020-07-06T12:31:45Z</time>
      </trkpt>
      <trkpt lat="44.92096" lon="5.88509">
        <ele>1500.27</ele>
        <time>2020-07-06T12:32:00Z</time>
      </trkpt>
      <trkpt lat="44.92094" lon="5.88502">
        <ele>1497.39</ele>
        <time>2020-07-06T12:32:13Z</time>
      </trkpt>
      <trkpt lat="44.9209" lon="5.88497">
        <ele>1494.51</ele>
        <time>2020-07-06T12:32:26Z</time>
      </trkpt>
      <trkpt lat="44.92094" lon="5.88488">
        <ele>1491.62</ele>
        <time>2020-07-06T12:32:41Z</time>
      </trkpt>
      <trkpt lat="44.92094" lon="5.88484">
        <ele>1489.7</ele>
        <time>2020-07-06T12:32:53Z</time>
      </trkpt>
      <trkpt lat="44.92099" lon="5.88478">
        <ele>1487.78</ele>
        <time>2020-07-06T12:33:10Z</time>
      </trkpt>
      <trkpt lat="44.92098" lon="5.88474">
        <ele>1485.85</ele>
        <time>2020-07-06T12:33:24Z</time>
      </trkpt>
      <trkpt lat="44.92102" lon="5.88471">
        <ele>1483.45</ele>
        <time>2020-07-06T12:33:37Z</time>
      </trkpt>
      <trkpt lat="44.92103" lon="5.88467">
        <ele>1480.57</ele>
        <time>2020-07-06T12:33:51Z</time>
      </trkpt>
      <trkpt lat="44.92108" lon="5.88461">
        <ele>1477.68</ele>
        <time>2020-07-06T12:34:08Z</time>
      </trkpt>
      <trkpt lat="44.9211" lon="5.88454">
        <ele>1474.32</ele>
        <time>2020-07-06T12:34:21Z</time>
      </trkpt>
      <trkpt lat="44.9211" lon="5.88451">
        <ele>1470.47</ele>
        <time>2020-07-06T12:34:30Z</time>
      </trkpt>
      <trkpt lat="44.9211" lon="5.88451">
        <ele>1469.99</ele>
        <time>2020-07-06T12:34:32Z</time>
      </trkpt>
      <trkpt lat="44.92111" lon="5.88451">
        <ele>1472.4</ele>
        <time>2020-07-06T12:34:43Z</time>
      </trkpt>
      <trkpt lat="44.92111" lon="5.88447">
        <ele>1469.51</ele>
        <time>2020-07-06T12:35:01Z</time>
      </trkpt>
      <trkpt lat="44.92114" lon="5.88442">
        <ele>1467.59</ele>
        <time>2020-07-06T12:35:14Z</time>
      </trkpt>
      <trkpt lat="44.92111" lon="5.88436">
        <ele>1465.67</ele>
        <time>2020-07-06T12:35:27Z</time>
      </trkpt>
      <trkpt lat="44.92113" lon="5.88435">
        <ele>1465.19</ele>
        <time>2020-07-06T12:35:31Z</time>
      </trkpt>
      <trkpt lat="44.92124" lon="5.88433">
        <ele>1463.26</ele>
        <time>2020-07-06T12:35:46Z</time>
      </trkpt>
      <trkpt lat="44.9213" lon="5.88427">
        <ele>1460.86</ele>
        <time>2020-07-06T12:36:01Z</time>
      </trkpt>
      <trkpt lat="44.92136" lon="5.88422">
        <ele>1458.46</ele>
        <time>2020-07-06T12:36:15Z</time>
      </trkpt>
      <trkpt lat="44.9214" lon="5.88418">
        <ele>1455.57</ele>
        <time>2020-07-06T12:36:30Z</time>
      </trkpt>
      <trkpt lat="44.9215" lon="5.88413">
        <ele>1452.69</ele>
        <time>2020-07-06T12:36:47Z</time>
      </trkpt>
      <trkpt lat="44.92153" lon="5.88409">
        <ele>1450.77</ele>
        <time>2020-07-06T12:37:00Z</time>
      </trkpt>
      <trkpt lat="44.92155" lon="5.88407">
        <ele>1450.29</ele>
        <time>2020-07-06T12:37:05Z</time>
      </trkpt>
      <trkpt lat="44.92153" lon="5.88396">
        <ele>1445.96</ele>
        <time>2020-07-06T12:37:15Z</time>
      </trkpt>
      <trkpt lat="44.92152" lon="5.88388">
        <ele>1444.52</ele>
        <time>2020-07-06T12:37:30Z</time>
      </trkpt>
      <trkpt lat="44.92151" lon="5.88382">
        <ele>1441.63</ele>
        <time>2020-07-06T12:37:41Z</time>
      </trkpt>
      <trkpt lat="44.9215" lon="5.88372">
        <ele>1439.23</ele>
        <time>2020-07-06T12:37:54Z</time>
      </trkpt>
      <trkpt lat="44.92152" lon="5.88362">
        <ele>1435.87</ele>
        <time>2020-07-06T12:38:06Z</time>
      </trkpt>
      <trkpt lat="44.92152" lon="5.88361">
        <ele>1435.87</ele>
        <time>2020-07-06T12:38:07Z</time>
      </trkpt>
      <trkpt lat="44.92154" lon="5.88349">
        <ele>1432.98</ele>
        <time>2020-07-06T12:38:22Z</time>
      </trkpt>
      <trkpt lat="44.92157" lon="5.88342">
        <ele>1430.58</ele>
        <time>2020-07-06T12:38:36Z</time>
      </trkpt>
      <trkpt lat="44.92157" lon="5.88342">
        <ele>1430.58</ele>
        <time>2020-07-06T12:38:44Z</time>
      </trkpt>
      <trkpt lat="44.92161" lon="5.88332">
        <ele>1430.1</ele>
        <time>2020-07-06T12:38:58Z</time>
      </trkpt>
      <trkpt lat="44.92166" lon="5.88321">
        <ele>1429.62</ele>
        <time>2020-07-06T12:39:07Z</time>
      </trkpt>
      <trkpt lat="44.92171" lon="5.88303">
        <ele>1429.62</ele>
        <time>2020-07-06T12:39:24Z</time>
      </trkpt>
      <trkpt lat="44.92171" lon="5.88301">
        <ele>1429.62</ele>
        <time>2020-07-06T12:39:26Z</time>
      </trkpt>
      <trkpt lat="44.92174" lon="5.88286">
        <ele>1426.25</ele>
        <time>2020-07-06T12:39:38Z</time>
      </trkpt>
      <trkpt lat="44.92175" lon="5.88276">
        <ele>1426.73</ele>
        <time>2020-07-06T12:39:51Z</time>
      </trkpt>
      <trkpt lat="44.92178" lon="5.88264">
        <ele>1423.85</ele>
        <time>2020-07-06T12:40:04Z</time>
      </trkpt>
      <trkpt lat="44.9218" lon="5.8825">
        <ele>1420.97</ele>
        <time>2020-07-06T12:40:20Z</time>
      </trkpt>
      <trkpt lat="44.92185" lon="5.88239">
        <ele>1418.08</ele>
        <time>2020-07-06T12:40:35Z</time>
      </trkpt>
      <trkpt lat="44.92185" lon="5.88232">
        <ele>1415.2</ele>
        <time>2020-07-06T12:40:48Z</time>
      </trkpt>
      <trkpt lat="44.92187" lon="5.88226">
        <ele>1413.28</ele>
        <time>2020-07-06T12:41:00Z</time>
      </trkpt>
      <trkpt lat="44.9219" lon="5.88224">
        <ele>1412.79</ele>
        <time>2020-07-06T12:41:02Z</time>
      </trkpt>
      <trkpt lat="44.92194" lon="5.88213">
        <ele>1410.87</ele>
        <time>2020-07-06T12:41:18Z</time>
      </trkpt>
      <trkpt lat="44.92197" lon="5.88203">
        <ele>1407.99</ele>
        <time>2020-07-06T12:41:33Z</time>
      </trkpt>
      <trkpt lat="44.92196" lon="5.88201">
        <ele>1407.51</ele>
        <time>2020-07-06T12:41:36Z</time>
      </trkpt>
      <trkpt lat="44.92192" lon="5.88196">
        <ele>1404.62</ele>
        <time>2020-07-06T12:41:49Z</time>
      </trkpt>
      <trkpt lat="44.92189" lon="5.88192">
        <ele>1401.26</ele>
        <time>2020-07-06T12:42:00Z</time>
      </trkpt>
      <trkpt lat="44.92189" lon="5.88186">
        <ele>1398.37</ele>
        <time>2020-07-06T12:42:13Z</time>
      </trkpt>
      <trkpt lat="44.92191" lon="5.88177">
        <ele>1395.49</ele>
        <time>2020-07-06T12:42:25Z</time>
      </trkpt>
      <trkpt lat="44.92191" lon="5.8817">
        <ele>1393.57</ele>
        <time>2020-07-06T12:42:37Z</time>
      </trkpt>
      <trkpt lat="44.92195" lon="5.88164">
        <ele>1392.61</ele>
        <time>2020-07-06T12:42:51Z</time>
      </trkpt>
      <trkpt lat="44.92197" lon="5.88157">
        <ele>1390.68</ele>
        <time>2020-07-06T12:43:07Z</time>
      </trkpt>
      <trkpt lat="44.92196" lon="5.88154">
        <ele>1389.72</ele>
        <time>2020-07-06T12:43:14Z</time>
      </trkpt>
      <trkpt lat="44.92195" lon="5.88154">
        <ele>1387.8</ele>
        <time>2020-07-06T12:43:25Z</time>
      </trkpt>
      <trkpt lat="44.92193" lon="5.88155">
        <ele>1386.84</ele>
        <time>2020-07-06T12:43:40Z</time>
      </trkpt>
      <trkpt lat="44.92192" lon="5.88156">
        <ele>1386.84</ele>
        <time>2020-07-06T12:43:41Z</time>
      </trkpt>
      <trkpt lat="44.92192" lon="5.88157">
        <ele>1386.84</ele>
        <time>2020-07-06T12:43:42Z</time>
      </trkpt>
      <trkpt lat="44.92191" lon="5.88158">
        <ele>1386.84</ele>
        <time>2020-07-06T12:43:43Z</time>
      </trkpt>
      <trkpt lat="44.9219" lon="5.88159">
        <ele>1386.84</ele>
        <time>2020-07-06T12:43:44Z</time>
      </trkpt>
      <trkpt lat="44.92189" lon="5.88159">
        <ele>1386.36</ele>
        <time>2020-07-06T12:43:45Z</time>
      </trkpt>
      <trkpt lat="44.9217" lon="5.88173">
        <ele>1383.47</ele>
        <time>2020-07-06T12:44:03Z</time>
      </trkpt>
      <trkpt lat="44.92161" lon="5.88173">
        <ele>1382.03</ele>
        <time>2020-07-06T12:44:12Z</time>
      </trkpt>
      <trkpt lat="44.92158" lon="5.88171">
        <ele>1380.11</ele>
        <time>2020-07-06T12:44:15Z</time>
      </trkpt>
      <trkpt lat="44.92157" lon="5.88171">
        <ele>1379.63</ele>
        <time>2020-07-06T12:44:16Z</time>
      </trkpt>
      <trkpt lat="44.92155" lon="5.88172">
        <ele>1379.63</ele>
        <time>2020-07-06T12:44:29Z</time>
      </trkpt>
      <trkpt lat="44.92152" lon="5.88177">
        <ele>1379.63</ele>
        <time>2020-07-06T12:44:38Z</time>
      </trkpt>
      <trkpt lat="44.92158" lon="5.8817">
        <ele>1380.59</ele>
        <time>2020-07-06T12:44:44Z</time>
      </trkpt>
      <trkpt lat="44.92166" lon="5.88162">
        <ele>1380.59</ele>
        <time>2020-07-06T12:44:52Z</time>
      </trkpt>
      <trkpt lat="44.92185" lon="5.88142">
        <ele>1377.71</ele>
        <time>2020-07-06T12:45:11Z</time>
      </trkpt>
      <trkpt lat="44.92199" lon="5.88122">
        <ele>1375.78</ele>
        <time>2020-07-06T12:45:27Z</time>
      </trkpt>
      <trkpt lat="44.922" lon="5.88119">
        <ele>1375.78</ele>
        <time>2020-07-06T12:45:29Z</time>
      </trkpt>
      <trkpt lat="44.922" lon="5.88117">
        <ele>1375.78</ele>
        <time>2020-07-06T12:45:30Z</time>
      </trkpt>
      <trkpt lat="44.92201" lon="5.88115">
        <ele>1375.3</ele>
        <time>2020-07-06T12:45:31Z</time>
      </trkpt>
      <trkpt lat="44.92201" lon="5.88114">
        <ele>1375.3</ele>
        <time>2020-07-06T12:45:32Z</time>
      </trkpt>
      <trkpt lat="44.92202" lon="5.88112">
        <ele>1375.3</ele>
        <time>2020-07-06T12:45:33Z</time>
      </trkpt>
      <trkpt lat="44.92203" lon="5.88111">
        <ele>1374.82</ele>
        <time>2020-07-06T12:45:34Z</time>
      </trkpt>
      <trkpt lat="44.92213" lon="5.88092">
        <ele>1373.38</ele>
        <time>2020-07-06T12:45:50Z</time>
      </trkpt>
      <trkpt lat="44.92216" lon="5.88082">
        <ele>1371.94</ele>
        <time>2020-07-06T12:46:03Z</time>
      </trkpt>
      <trkpt lat="44.92213" lon="5.88075">
        <ele>1368.57</ele>
        <time>2020-07-06T12:46:16Z</time>
      </trkpt>
      <trkpt lat="44.92209" lon="5.88066">
        <ele>1365.69</ele>
        <time>2020-07-06T12:46:31Z</time>
      </trkpt>
      <trkpt lat="44.92205" lon="5.88063">
        <ele>1362.33</ele>
        <time>2020-07-06T12:46:44Z</time>
      </trkpt>
      <trkpt lat="44.92209" lon="5.88055">
        <ele>1359.44</ele>
        <time>2020-07-06T12:46:57Z</time>
      </trkpt>
      <trkpt lat="44.92204" lon="5.88051">
        <ele>1356.56</ele>
        <time>2020-07-06T12:47:08Z</time>
      </trkpt>
      <trkpt lat="44.922" lon="5.88048">
        <ele>1353.19</ele>
        <time>2020-07-06T12:47:20Z</time>
      </trkpt>
      <trkpt lat="44.92198" lon="5.88041">
        <ele>1349.83</ele>
        <time>2020-07-06T12:47:33Z</time>
      </trkpt>
      <trkpt lat="44.92189" lon="5.88038">
        <ele>1346.94</ele>
        <time>2020-07-06T12:47:47Z</time>
      </trkpt>
      <trkpt lat="44.92184" lon="5.88035">
        <ele>1343.58</ele>
        <time>2020-07-06T12:48:00Z</time>
      </trkpt>
      <trkpt lat="44.92185" lon="5.88025">
        <ele>1340.22</ele>
        <time>2020-07-06T12:48:13Z</time>
      </trkpt>
      <trkpt lat="44.92183" lon="5.88015">
        <ele>1337.33</ele>
        <time>2020-07-06T12:48:28Z</time>
      </trkpt>
      <trkpt lat="44.92178" lon="5.88006">
        <ele>1334.45</ele>
        <time>2020-07-06T12:48:42Z</time>
      </trkpt>
      <trkpt lat="44.92174" lon="5.88">
        <ele>1331.56</ele>
        <time>2020-07-06T12:48:53Z</time>
      </trkpt>
      <trkpt lat="44.92174" lon="5.87995">
        <ele>1329.64</ele>
        <time>2020-07-06T12:48:57Z</time>
      </trkpt>
      <trkpt lat="44.92168" lon="5.87987">
        <ele>1326.28</ele>
        <time>2020-07-06T12:49:09Z</time>
      </trkpt>
      <trkpt lat="44.92163" lon="5.87974">
        <ele>1323.39</ele>
        <time>2020-07-06T12:49:24Z</time>
      </trkpt>
      <trkpt lat="44.92165" lon="5.87964">
        <ele>1320.03</ele>
        <time>2020-07-06T12:49:31Z</time>
      </trkpt>
      <trkpt lat="44.92167" lon="5.87961">
        <ele>1318.1</ele>
        <time>2020-07-06T12:49:34Z</time>
      </trkpt>
      <trkpt lat="44.92169" lon="5.87958">
        <ele>1320.03</ele>
        <time>2020-07-06T12:49:38Z</time>
      </trkpt>
      <trkpt lat="44.92175" lon="5.87952">
        <ele>1320.51</ele>
        <time>2020-07-06T12:49:47Z</time>
      </trkpt>
      <trkpt lat="44.92177" lon="5.87951">
        <ele>1320.51</ele>
        <time>2020-07-06T12:49:49Z</time>
      </trkpt>
      <trkpt lat="44.92178" lon="5.8795">
        <ele>1320.51</ele>
        <time>2020-07-06T12:49:50Z</time>
      </trkpt>
      <trkpt lat="44.92178" lon="5.87949">
        <ele>1320.03</ele>
        <time>2020-07-06T12:49:51Z</time>
      </trkpt>
      <trkpt lat="44.9218" lon="5.87947">
        <ele>1320.03</ele>
        <time>2020-07-06T12:49:52Z</time>
      </trkpt>
      <trkpt lat="44.92181" lon="5.87946">
        <ele>1319.55</ele>
        <time>2020-07-06T12:49:53Z</time>
      </trkpt>
      <trkpt lat="44.92182" lon="5.87945">
        <ele>1319.07</ele>
        <time>2020-07-06T12:49:54Z</time>
      </trkpt>
      <trkpt lat="44.9219" lon="5.87933">
        <ele>1318.1</ele>
        <time>2020-07-06T12:50:07Z</time>
      </trkpt>
      <trkpt lat="44.92204" lon="5.87907">
        <ele>1315.7</ele>
        <time>2020-07-06T12:50:29Z</time>
      </trkpt>
      <trkpt lat="44.92204" lon="5.87906">
        <ele>1315.7</ele>
        <time>2020-07-06T12:50:30Z</time>
      </trkpt>
      <trkpt lat="44.92202" lon="5.87905">
        <ele>1315.22</ele>
        <time>2020-07-06T12:50:32Z</time>
      </trkpt>
      <trkpt lat="44.92188" lon="5.87909">
        <ele>1312.34</ele>
        <time>2020-07-06T12:50:47Z</time>
      </trkpt>
      <trkpt lat="44.92183" lon="5.87911">
        <ele>1311.38</ele>
        <time>2020-07-06T12:50:52Z</time>
      </trkpt>
      <trkpt lat="44.92182" lon="5.87911">
        <ele>1311.38</ele>
        <time>2020-07-06T12:50:53Z</time>
      </trkpt>
      <trkpt lat="44.92175" lon="5.87914">
        <ele>1309.93</ele>
        <time>2020-07-06T12:50:59Z</time>
      </trkpt>
      <trkpt lat="44.92166" lon="5.87922">
        <ele>1307.53</ele>
        <time>2020-07-06T12:51:18Z</time>
      </trkpt>
      <trkpt lat="44.92154" lon="5.87921">
        <ele>1308.01</ele>
        <time>2020-07-06T12:51:41Z</time>
      </trkpt>
      <trkpt lat="44.92142" lon="5.87926">
        <ele>1305.13</ele>
        <time>2020-07-06T12:51:50Z</time>
      </trkpt>
      <trkpt lat="44.92124" lon="5.87943">
        <ele>1305.13</ele>
        <time>2020-07-06T12:52:07Z</time>
      </trkpt>
      <trkpt lat="44.92113" lon="5.87958">
        <ele>1302.24</ele>
        <time>2020-07-06T12:52:25Z</time>
      </trkpt>
      <trkpt lat="44.92114" lon="5.87958">
        <ele>1301.76</ele>
        <time>2020-07-06T12:52:55Z</time>
      </trkpt>
      <trkpt lat="44.92112" lon="5.87956">
        <ele>1301.76</ele>
        <time>2020-07-06T12:53:16Z</time>
      </trkpt>
      <trkpt lat="44.92112" lon="5.87954">
        <ele>1301.28</ele>
        <time>2020-07-06T12:53:51Z</time>
      </trkpt>
      <trkpt lat="44.92112" lon="5.87953">
        <ele>1301.28</ele>
        <time>2020-07-06T12:54:32Z</time>
      </trkpt>
      <trkpt lat="44.92112" lon="5.87957">
        <ele>1301.28</ele>
        <time>2020-07-06T12:55:05Z</time>
      </trkpt>
      <trkpt lat="44.92114" lon="5.87961">
        <ele>1301.28</ele>
        <time>2020-07-06T12:55:41Z</time>
      </trkpt>
      <trkpt lat="44.92111" lon="5.87961">
        <ele>1301.28</ele>
        <time>2020-07-06T12:56:00Z</time>
      </trkpt>
      <trkpt lat="44.9211" lon="5.87963">
        <ele>1301.28</ele>
        <time>2020-07-06T12:56:02Z</time>
      </trkpt>
      <trkpt lat="44.92095" lon="5.87983">
        <ele>1300.32</ele>
        <time>2020-07-06T12:56:20Z</time>
      </trkpt>
      <trkpt lat="44.92086" lon="5.88007">
        <ele>1297.92</ele>
        <time>2020-07-06T12:56:35Z</time>
      </trkpt>
      <trkpt lat="44.92073" lon="5.88033">
        <ele>1295.99</ele>
        <time>2020-07-06T12:56:53Z</time>
      </trkpt>
      <trkpt lat="44.92063" lon="5.88045">
        <ele>1292.15</ele>
        <time>2020-07-06T12:57:03Z</time>
      </trkpt>
      <trkpt lat="44.9206" lon="5.88048">
        <ele>1288.78</ele>
        <time>2020-07-06T12:57:06Z</time>
      </trkpt>
      <trkpt lat="44.92049" lon="5.88059">
        <ele>1291.19</ele>
        <time>2020-07-06T12:57:17Z</time>
      </trkpt>
      <trkpt lat="44.92049" lon="5.88059">
        <ele>1291.19</ele>
        <time>2020-07-06T12:57:18Z</time>
      </trkpt>
      <trkpt lat="44.92047" lon="5.8806">
        <ele>1290.71</ele>
        <time>2020-07-06T12:57:19Z</time>
      </trkpt>
      <trkpt lat="44.92045" lon="5.88062">
        <ele>1288.78</ele>
        <time>2020-07-06T12:57:22Z</time>
      </trkpt>
      <trkpt lat="44.92041" lon="5.88064">
        <ele>1292.15</ele>
        <time>2020-07-06T12:57:26Z</time>
      </trkpt>
      <trkpt lat="44.92036" lon="5.88064">
        <ele>1290.23</ele>
        <time>2020-07-06T12:57:39Z</time>
      </trkpt>
      <trkpt lat="44.92035" lon="5.88064">
        <ele>1289.75</ele>
        <time>2020-07-06T12:57:40Z</time>
      </trkpt>
      <trkpt lat="44.92031" lon="5.88063">
        <ele>1288.78</ele>
        <time>2020-07-06T12:57:48Z</time>
      </trkpt>
      <trkpt lat="44.9203" lon="5.88063">
        <ele>1288.78</ele>
        <time>2020-07-06T12:57:49Z</time>
      </trkpt>
      <trkpt lat="44.92029" lon="5.88063">
        <ele>1288.3</ele>
        <time>2020-07-06T12:57:50Z</time>
      </trkpt>
      <trkpt lat="44.92025" lon="5.88061">
        <ele>1287.34</ele>
        <time>2020-07-06T12:57:59Z</time>
      </trkpt>
      <trkpt lat="44.92023" lon="5.88061">
        <ele>1286.86</ele>
        <time>2020-07-06T12:58:01Z</time>
      </trkpt>
      <trkpt lat="44.92022" lon="5.8806">
        <ele>1286.86</ele>
        <time>2020-07-06T12:58:02Z</time>
      </trkpt>
      <trkpt lat="44.92004" lon="5.88049">
        <ele>1283.98</ele>
        <time>2020-07-06T12:58:20Z</time>
      </trkpt>
      <trkpt lat="44.91998" lon="5.88045">
        <ele>1282.54</ele>
        <time>2020-07-06T12:58:25Z</time>
      </trkpt>
      <trkpt lat="44.91978" lon="5.88023">
        <ele>1281.57</ele>
        <time>2020-07-06T12:58:45Z</time>
      </trkpt>
      <trkpt lat="44.9196" lon="5.88008">
        <ele>1279.17</ele>
        <time>2020-07-06T12:59:03Z</time>
      </trkpt>
      <trkpt lat="44.9194" lon="5.88011">
        <ele>1276.77</ele>
        <time>2020-07-06T12:59:20Z</time>
      </trkpt>
      <trkpt lat="44.9192" lon="5.88026">
        <ele>1273.88</ele>
        <time>2020-07-06T12:59:38Z</time>
      </trkpt>
      <trkpt lat="44.9191" lon="5.8805">
        <ele>1271.96</ele>
        <time>2020-07-06T12:59:55Z</time>
      </trkpt>
      <trkpt lat="44.91901" lon="5.88083">
        <ele>1268.6</ele>
        <time>2020-07-06T13:00:15Z</time>
      </trkpt>
      <trkpt lat="44.91893" lon="5.88112">
        <ele>1266.19</ele>
        <time>2020-07-06T13:00:34Z</time>
      </trkpt>
      <trkpt lat="44.91881" lon="5.88146">
        <ele>1263.79</ele>
        <time>2020-07-06T13:00:56Z</time>
      </trkpt>
      <trkpt lat="44.91874" lon="5.88165">
        <ele>1261.39</ele>
        <time>2020-07-06T13:01:09Z</time>
      </trkpt>
      <trkpt lat="44.91873" lon="5.88167">
        <ele>1261.39</ele>
        <time>2020-07-06T13:01:10Z</time>
      </trkpt>
      <trkpt lat="44.91865" lon="5.88186">
        <ele>1258.02</ele>
        <time>2020-07-06T13:01:24Z</time>
      </trkpt>
      <trkpt lat="44.91856" lon="5.88209">
        <ele>1255.14</ele>
        <time>2020-07-06T13:01:40Z</time>
      </trkpt>
      <trkpt lat="44.91839" lon="5.88236">
        <ele>1251.77</ele>
        <time>2020-07-06T13:02:00Z</time>
      </trkpt>
      <trkpt lat="44.91826" lon="5.88261">
        <ele>1248.89</ele>
        <time>2020-07-06T13:02:19Z</time>
      </trkpt>
      <trkpt lat="44.91811" lon="5.88287">
        <ele>1246.01</ele>
        <time>2020-07-06T13:02:37Z</time>
      </trkpt>
      <trkpt lat="44.91794" lon="5.88308">
        <ele>1242.64</ele>
        <time>2020-07-06T13:02:54Z</time>
      </trkpt>
      <trkpt lat="44.91782" lon="5.88327">
        <ele>1239.28</ele>
        <time>2020-07-06T13:03:10Z</time>
      </trkpt>
      <trkpt lat="44.9177" lon="5.88352">
        <ele>1236.87</ele>
        <time>2020-07-06T13:03:28Z</time>
      </trkpt>
      <trkpt lat="44.91754" lon="5.88381">
        <ele>1233.99</ele>
        <time>2020-07-06T13:03:48Z</time>
      </trkpt>
      <trkpt lat="44.91741" lon="5.88409">
        <ele>1230.62</ele>
        <time>2020-07-06T13:04:07Z</time>
      </trkpt>
      <trkpt lat="44.9173" lon="5.88436">
        <ele>1228.7</ele>
        <time>2020-07-06T13:04:25Z</time>
      </trkpt>
      <trkpt lat="44.91718" lon="5.88454">
        <ele>1227.26</ele>
        <time>2020-07-06T13:04:40Z</time>
      </trkpt>
      <trkpt lat="44.91704" lon="5.88469">
        <ele>1225.34</ele>
        <time>2020-07-06T13:04:56Z</time>
      </trkpt>
      <trkpt lat="44.91686" lon="5.88477">
        <ele>1223.42</ele>
        <time>2020-07-06T13:05:11Z</time>
      </trkpt>
      <trkpt lat="44.91684" lon="5.88466">
        <ele>1222.45</ele>
        <time>2020-07-06T13:05:19Z</time>
      </trkpt>
      <trkpt lat="44.91692" lon="5.88447">
        <ele>1219.57</ele>
        <time>2020-07-06T13:05:37Z</time>
      </trkpt>
      <trkpt lat="44.91706" lon="5.88434">
        <ele>1218.13</ele>
        <time>2020-07-06T13:05:49Z</time>
      </trkpt>
      <trkpt lat="44.9171" lon="5.88412">
        <ele>1214.76</ele>
        <time>2020-07-06T13:06:03Z</time>
      </trkpt>
      <trkpt lat="44.91715" lon="5.88384">
        <ele>1211.88</ele>
        <time>2020-07-06T13:06:19Z</time>
      </trkpt>
      <trkpt lat="44.91722" lon="5.88356">
        <ele>1209.48</ele>
        <time>2020-07-06T13:06:38Z</time>
      </trkpt>
      <trkpt lat="44.91726" lon="5.88326">
        <ele>1206.11</ele>
        <time>2020-07-06T13:06:54Z</time>
      </trkpt>
      <trkpt lat="44.91732" lon="5.883">
        <ele>1203.23</ele>
        <time>2020-07-06T13:07:10Z</time>
      </trkpt>
      <trkpt lat="44.91739" lon="5.88276">
        <ele>1199.86</ele>
        <time>2020-07-06T13:07:27Z</time>
      </trkpt>
      <trkpt lat="44.91741" lon="5.88267">
        <ele>1199.38</ele>
        <time>2020-07-06T13:07:32Z</time>
      </trkpt>
      <trkpt lat="44.91742" lon="5.88266">
        <ele>1198.9</ele>
        <time>2020-07-06T13:07:33Z</time>
      </trkpt>
      <trkpt lat="44.91742" lon="5.88265">
        <ele>1198.42</ele>
        <time>2020-07-06T13:07:34Z</time>
      </trkpt>
      <trkpt lat="44.91749" lon="5.88237">
        <ele>1195.54</ele>
        <time>2020-07-06T13:07:51Z</time>
      </trkpt>
      <trkpt lat="44.91752" lon="5.88205">
        <ele>1192.65</ele>
        <time>2020-07-06T13:08:08Z</time>
      </trkpt>
      <trkpt lat="44.91754" lon="5.88176">
        <ele>1189.77</ele>
        <time>2020-07-06T13:08:25Z</time>
      </trkpt>
      <trkpt lat="44.91756" lon="5.88142">
        <ele>1186.4</ele>
        <time>2020-07-06T13:08:43Z</time>
      </trkpt>
      <trkpt lat="44.91763" lon="5.88114">
        <ele>1183.52</ele>
        <time>2020-07-06T13:09:00Z</time>
      </trkpt>
      <trkpt lat="44.91766" lon="5.88091">
        <ele>1181.6</ele>
        <time>2020-07-06T13:09:13Z</time>
      </trkpt>
      <trkpt lat="44.91766" lon="5.88089">
        <ele>1181.12</ele>
        <time>2020-07-06T13:09:14Z</time>
      </trkpt>
      <trkpt lat="44.91765" lon="5.88088">
        <ele>1181.12</ele>
        <time>2020-07-06T13:09:15Z</time>
      </trkpt>
      <trkpt lat="44.91765" lon="5.88087">
        <ele>1180.64</ele>
        <time>2020-07-06T13:09:16Z</time>
      </trkpt>
      <trkpt lat="44.91764" lon="5.88085">
        <ele>1180.64</ele>
        <time>2020-07-06T13:09:17Z</time>
      </trkpt>
      <trkpt lat="44.91762" lon="5.88084">
        <ele>1180.16</ele>
        <time>2020-07-06T13:09:19Z</time>
      </trkpt>
      <trkpt lat="44.91758" lon="5.88084">
        <ele>1179.19</ele>
        <time>2020-07-06T13:09:23Z</time>
      </trkpt>
      <trkpt lat="44.91758" lon="5.88085">
        <ele>1179.19</ele>
        <time>2020-07-06T13:09:24Z</time>
      </trkpt>
      <trkpt lat="44.91757" lon="5.88086">
        <ele>1178.71</ele>
        <time>2020-07-06T13:09:25Z</time>
      </trkpt>
      <trkpt lat="44.91749" lon="5.88103">
        <ele>1175.83</ele>
        <time>2020-07-06T13:09:36Z</time>
      </trkpt>
      <trkpt lat="44.91737" lon="5.88128">
        <ele>1172.47</ele>
        <time>2020-07-06T13:09:54Z</time>
      </trkpt>
      <trkpt lat="44.91726" lon="5.88148">
        <ele>1170.06</ele>
        <time>2020-07-06T13:10:10Z</time>
      </trkpt>
      <trkpt lat="44.91709" lon="5.8817">
        <ele>1167.66</ele>
        <time>2020-07-06T13:10:28Z</time>
      </trkpt>
      <trkpt lat="44.91694" lon="5.88191">
        <ele>1165.74</ele>
        <time>2020-07-06T13:10:46Z</time>
      </trkpt>
      <trkpt lat="44.91687" lon="5.88194">
        <ele>1165.26</ele>
        <time>2020-07-06T13:10:52Z</time>
      </trkpt>
      <trkpt lat="44.91686" lon="5.88194">
        <ele>1165.26</ele>
        <time>2020-07-06T13:10:53Z</time>
      </trkpt>
      <trkpt lat="44.91684" lon="5.88192">
        <ele>1164.77</ele>
        <time>2020-07-06T13:10:55Z</time>
      </trkpt>
      <trkpt lat="44.91683" lon="5.88191">
        <ele>1164.77</ele>
        <time>2020-07-06T13:10:56Z</time>
      </trkpt>
      <trkpt lat="44.91688" lon="5.88174">
        <ele>1161.89</ele>
        <time>2020-07-06T13:11:10Z</time>
      </trkpt>
      <trkpt lat="44.91703" lon="5.88148">
        <ele>1159.49</ele>
        <time>2020-07-06T13:11:30Z</time>
      </trkpt>
      <trkpt lat="44.91704" lon="5.88139">
        <ele>1159.01</ele>
        <time>2020-07-06T13:11:35Z</time>
      </trkpt>
      <trkpt lat="44.91703" lon="5.88137">
        <ele>1159.01</ele>
        <time>2020-07-06T13:11:36Z</time>
      </trkpt>
      <trkpt lat="44.91693" lon="5.88138">
        <ele>1157.08</ele>
        <time>2020-07-06T13:11:47Z</time>
      </trkpt>
      <trkpt lat="44.91681" lon="5.88152">
        <ele>1155.16</ele>
        <time>2020-07-06T13:12:01Z</time>
      </trkpt>
      <trkpt lat="44.91669" lon="5.8816">
        <ele>1154.68</ele>
        <time>2020-07-06T13:12:12Z</time>
      </trkpt>
      <trkpt lat="44.91646" lon="5.88166">
        <ele>1153.72</ele>
        <time>2020-07-06T13:12:30Z</time>
      </trkpt>
      <trkpt lat="44.91644" lon="5.88166">
        <ele>1153.72</ele>
        <time>2020-07-06T13:12:32Z</time>
      </trkpt>
      <trkpt lat="44.91642" lon="5.88166">
        <ele>1153.72</ele>
        <time>2020-07-06T13:12:33Z</time>
      </trkpt>
      <trkpt lat="44.9164" lon="5.88166">
        <ele>1153.24</ele>
        <time>2020-07-06T13:12:34Z</time>
      </trkpt>
      <trkpt lat="44.91639" lon="5.88166">
        <ele>1153.24</ele>
        <time>2020-07-06T13:12:35Z</time>
      </trkpt>
      <trkpt lat="44.91638" lon="5.88165">
        <ele>1153.24</ele>
        <time>2020-07-06T13:12:36Z</time>
      </trkpt>
      <trkpt lat="44.91634" lon="5.88155">
        <ele>1152.28</ele>
        <time>2020-07-06T13:12:44Z</time>
      </trkpt>
      <trkpt lat="44.91644" lon="5.88131">
        <ele>1148.91</ele>
        <time>2020-07-06T13:12:59Z</time>
      </trkpt>
      <trkpt lat="44.91653" lon="5.88103">
        <ele>1146.03</ele>
        <time>2020-07-06T13:13:16Z</time>
      </trkpt>
      <trkpt lat="44.91656" lon="5.88093">
        <ele>1142.18</ele>
        <time>2020-07-06T13:13:22Z</time>
      </trkpt>
      <trkpt lat="44.91658" lon="5.88088">
        <ele>1138.82</ele>
        <time>2020-07-06T13:13:25Z</time>
      </trkpt>
      <trkpt lat="44.91658" lon="5.88085">
        <ele>1138.34</ele>
        <time>2020-07-06T13:13:27Z</time>
      </trkpt>
      <trkpt lat="44.91662" lon="5.88067">
        <ele>1141.22</ele>
        <time>2020-07-06T13:13:37Z</time>
      </trkpt>
      <trkpt lat="44.91664" lon="5.88054">
        <ele>1142.18</ele>
        <time>2020-07-06T13:13:45Z</time>
      </trkpt>
      <trkpt lat="44.91664" lon="5.88053">
        <ele>1141.7</ele>
        <time>2020-07-06T13:13:46Z</time>
      </trkpt>
      <trkpt lat="44.91664" lon="5.88051">
        <ele>1141.22</ele>
        <time>2020-07-06T13:13:47Z</time>
      </trkpt>
      <trkpt lat="44.91664" lon="5.88049">
        <ele>1140.74</ele>
        <time>2020-07-06T13:13:48Z</time>
      </trkpt>
      <trkpt lat="44.91665" lon="5.88048">
        <ele>1140.26</ele>
        <time>2020-07-06T13:13:49Z</time>
      </trkpt>
      <trkpt lat="44.91669" lon="5.88029">
        <ele>1137.38</ele>
        <time>2020-07-06T13:14:00Z</time>
      </trkpt>
      <trkpt lat="44.91674" lon="5.88005">
        <ele>1134.01</ele>
        <time>2020-07-06T13:14:14Z</time>
      </trkpt>
      <trkpt lat="44.91678" lon="5.87981">
        <ele>1131.13</ele>
        <time>2020-07-06T13:14:29Z</time>
      </trkpt>
      <trkpt lat="44.91678" lon="5.87979">
        <ele>1131.13</ele>
        <time>2020-07-06T13:14:30Z</time>
      </trkpt>
      <trkpt lat="44.91681" lon="5.8795">
        <ele>1128.73</ele>
        <time>2020-07-06T13:14:46Z</time>
      </trkpt>
      <trkpt lat="44.91681" lon="5.87948">
        <ele>1128.73</ele>
        <time>2020-07-06T13:14:47Z</time>
      </trkpt>
      <trkpt lat="44.91682" lon="5.87947">
        <ele>1128.24</ele>
        <time>2020-07-06T13:14:48Z</time>
      </trkpt>
      <trkpt lat="44.91682" lon="5.87945">
        <ele>1128.24</ele>
        <time>2020-07-06T13:14:49Z</time>
      </trkpt>
      <trkpt lat="44.91682" lon="5.87943">
        <ele>1127.76</ele>
        <time>2020-07-06T13:14:50Z</time>
      </trkpt>
      <trkpt lat="44.91683" lon="5.87941">
        <ele>1127.76</ele>
        <time>2020-07-06T13:14:51Z</time>
      </trkpt>
      <trkpt lat="44.91683" lon="5.8794">
        <ele>1127.76</ele>
        <time>2020-07-06T13:14:52Z</time>
      </trkpt>
      <trkpt lat="44.91685" lon="5.8793">
        <ele>1126.8</ele>
        <time>2020-07-06T13:14:58Z</time>
      </trkpt>
      <trkpt lat="44.91685" lon="5.87929">
        <ele>1126.8</ele>
        <time>2020-07-06T13:14:59Z</time>
      </trkpt>
      <trkpt lat="44.91685" lon="5.87927">
        <ele>1126.8</ele>
        <time>2020-07-06T13:15:00Z</time>
      </trkpt>
      <trkpt lat="44.91686" lon="5.87925">
        <ele>1126.32</ele>
        <time>2020-07-06T13:15:01Z</time>
      </trkpt>
      <trkpt lat="44.91686" lon="5.87923">
        <ele>1126.32</ele>
        <time>2020-07-06T13:15:02Z</time>
      </trkpt>
      <trkpt lat="44.91685" lon="5.87921">
        <ele>1126.32</ele>
        <time>2020-07-06T13:15:03Z</time>
      </trkpt>
      <trkpt lat="44.91685" lon="5.87919">
        <ele>1125.84</ele>
        <time>2020-07-06T13:15:04Z</time>
      </trkpt>
      <trkpt lat="44.91685" lon="5.87917">
        <ele>1125.84</ele>
        <time>2020-07-06T13:15:05Z</time>
      </trkpt>
      <trkpt lat="44.91685" lon="5.87916">
        <ele>1125.36</ele>
        <time>2020-07-06T13:15:06Z</time>
      </trkpt>
      <trkpt lat="44.91685" lon="5.87914">
        <ele>1125.36</ele>
        <time>2020-07-06T13:15:07Z</time>
      </trkpt>
      <trkpt lat="44.91686" lon="5.87912">
        <ele>1125.36</ele>
        <time>2020-07-06T13:15:08Z</time>
      </trkpt>
      <trkpt lat="44.91691" lon="5.87882">
        <ele>1122.96</ele>
        <time>2020-07-06T13:15:26Z</time>
      </trkpt>
      <trkpt lat="44.91695" lon="5.87854">
        <ele>1121.03</ele>
        <time>2020-07-06T13:15:43Z</time>
      </trkpt>
      <trkpt lat="44.917" lon="5.8783">
        <ele>1117.67</ele>
        <time>2020-07-06T13:15:58Z</time>
      </trkpt>
      <trkpt lat="44.917" lon="5.87827">
        <ele>1117.19</ele>
        <time>2020-07-06T13:16:00Z</time>
      </trkpt>
      <trkpt lat="44.917" lon="5.87815">
        <ele>1118.63</ele>
        <time>2020-07-06T13:16:08Z</time>
      </trkpt>
      <trkpt lat="44.91699" lon="5.87814">
        <ele>1118.63</ele>
        <time>2020-07-06T13:16:09Z</time>
      </trkpt>
      <trkpt lat="44.91698" lon="5.87813">
        <ele>1118.15</ele>
        <time>2020-07-06T13:16:10Z</time>
      </trkpt>
      <trkpt lat="44.91695" lon="5.87814">
        <ele>1117.19</ele>
        <time>2020-07-06T13:16:12Z</time>
      </trkpt>
      <trkpt lat="44.91688" lon="5.87832">
        <ele>1114.79</ele>
        <time>2020-07-06T13:16:25Z</time>
      </trkpt>
      <trkpt lat="44.91671" lon="5.87853">
        <ele>1112.38</ele>
        <time>2020-07-06T13:16:44Z</time>
      </trkpt>
      <trkpt lat="44.91669" lon="5.87849">
        <ele>1111.42</ele>
        <time>2020-07-06T13:16:51Z</time>
      </trkpt>
      <trkpt lat="44.91665" lon="5.87841">
        <ele>1110.46</ele>
        <time>2020-07-06T13:16:58Z</time>
      </trkpt>
      <trkpt lat="44.91663" lon="5.87824">
        <ele>1107.1</ele>
        <time>2020-07-06T13:17:10Z</time>
      </trkpt>
      <trkpt lat="44.91663" lon="5.87813">
        <ele>1105.17</ele>
        <time>2020-07-06T13:17:21Z</time>
      </trkpt>
      <trkpt lat="44.91666" lon="5.87794">
        <ele>1101.33</ele>
        <time>2020-07-06T13:17:35Z</time>
      </trkpt>
      <trkpt lat="44.91667" lon="5.87793">
        <ele>1100.85</ele>
        <time>2020-07-06T13:17:36Z</time>
      </trkpt>
      <trkpt lat="44.9167" lon="5.87778">
        <ele>1101.81</ele>
        <time>2020-07-06T13:17:47Z</time>
      </trkpt>
      <trkpt lat="44.91668" lon="5.87768">
        <ele>1100.37</ele>
        <time>2020-07-06T13:17:57Z</time>
      </trkpt>
      <trkpt lat="44.91667" lon="5.87769">
        <ele>1099.4</ele>
        <time>2020-07-06T13:17:58Z</time>
      </trkpt>
      <trkpt lat="44.91665" lon="5.87772">
        <ele>1096.52</ele>
        <time>2020-07-06T13:18:02Z</time>
      </trkpt>
      <trkpt lat="44.91659" lon="5.87779">
        <ele>1097.96</ele>
        <time>2020-07-06T13:18:15Z</time>
      </trkpt>
      <trkpt lat="44.91655" lon="5.87785">
        <ele>1097</ele>
        <time>2020-07-06T13:18:27Z</time>
      </trkpt>
      <trkpt lat="44.91651" lon="5.87791">
        <ele>1097.96</ele>
        <time>2020-07-06T13:18:44Z</time>
      </trkpt>
      <trkpt lat="44.91651" lon="5.87792">
        <ele>1097.96</ele>
        <time>2020-07-06T13:18:45Z</time>
      </trkpt>
      <trkpt lat="44.91648" lon="5.87795">
        <ele>1097.48</ele>
        <time>2020-07-06T13:18:48Z</time>
      </trkpt>
      <trkpt lat="44.91645" lon="5.87802">
        <ele>1099.4</ele>
        <time>2020-07-06T13:18:53Z</time>
      </trkpt>
      <trkpt lat="44.91635" lon="5.87815">
        <ele>1098.92</ele>
        <time>2020-07-06T13:19:07Z</time>
      </trkpt>
      <trkpt lat="44.91625" lon="5.87829">
        <ele>1100.85</ele>
        <time>2020-07-06T13:19:23Z</time>
      </trkpt>
      <trkpt lat="44.91623" lon="5.87832">
        <ele>1099.89</ele>
        <time>2020-07-06T13:19:26Z</time>
      </trkpt>
      <trkpt lat="44.91612" lon="5.87849">
        <ele>1102.29</ele>
        <time>2020-07-06T13:19:44Z</time>
      </trkpt>
      <trkpt lat="44.91611" lon="5.87857">
        <ele>1102.77</ele>
        <time>2020-07-06T13:19:50Z</time>
      </trkpt>
      <trkpt lat="44.91603" lon="5.87879">
        <ele>1104.69</ele>
        <time>2020-07-06T13:20:10Z</time>
      </trkpt>
      <trkpt lat="44.91598" lon="5.8789">
        <ele>1106.61</ele>
        <time>2020-07-06T13:20:27Z</time>
      </trkpt>
      <trkpt lat="44.91598" lon="5.87901">
        <ele>1106.61</ele>
        <time>2020-07-06T13:20:48Z</time>
      </trkpt>
      <trkpt lat="44.91599" lon="5.87901">
        <ele>1106.61</ele>
        <time>2020-07-06T13:21:04Z</time>
      </trkpt>
      <trkpt lat="44.91599" lon="5.87901">
        <ele>1105.17</ele>
        <time>2020-07-06T13:21:06Z</time>
      </trkpt>
      <trkpt lat="44.916" lon="5.87901">
        <ele>1101.81</ele>
        <time>2020-07-06T13:21:09Z</time>
      </trkpt>
      <trkpt lat="44.916" lon="5.87901">
        <ele>1101.81</ele>
        <time>2020-07-06T13:21:10Z</time>
      </trkpt>
      <trkpt lat="44.91601" lon="5.87901">
        <ele>1105.65</ele>
        <time>2020-07-06T13:21:13Z</time>
      </trkpt>
      <trkpt lat="44.91602" lon="5.87899">
        <ele>1109.02</ele>
        <time>2020-07-06T13:21:17Z</time>
      </trkpt>
      <trkpt lat="44.91602" lon="5.87898">
        <ele>1106.61</ele>
        <time>2020-07-06T13:21:38Z</time>
      </trkpt>
      <trkpt lat="44.916" lon="5.87905">
        <ele>1104.21</ele>
        <time>2020-07-06T13:21:51Z</time>
      </trkpt>
      <trkpt lat="44.916" lon="5.87902">
        <ele>1105.65</ele>
        <time>2020-07-06T13:21:56Z</time>
      </trkpt>
      <trkpt lat="44.916" lon="5.87901">
        <ele>1106.61</ele>
        <time>2020-07-06T13:21:57Z</time>
      </trkpt>
      <trkpt lat="44.916" lon="5.87899">
        <ele>1107.1</ele>
        <time>2020-07-06T13:21:58Z</time>
      </trkpt>
      <trkpt lat="44.91601" lon="5.87888">
        <ele>1106.13</ele>
        <time>2020-07-06T13:22:06Z</time>
      </trkpt>
      <trkpt lat="44.91588" lon="5.8788">
        <ele>1104.69</ele>
        <time>2020-07-06T13:22:25Z</time>
      </trkpt>
      <trkpt lat="44.91581" lon="5.87873">
        <ele>1108.06</ele>
        <time>2020-07-06T13:22:34Z</time>
      </trkpt>
      <trkpt lat="44.91568" lon="5.87862">
        <ele>1109.02</ele>
        <time>2020-07-06T13:22:49Z</time>
      </trkpt>
      <trkpt lat="44.91566" lon="5.87858">
        <ele>1109.98</ele>
        <time>2020-07-06T13:22:52Z</time>
      </trkpt>
      <trkpt lat="44.91565" lon="5.87857">
        <ele>1109.98</ele>
        <time>2020-07-06T13:22:53Z</time>
      </trkpt>
      <trkpt lat="44.91565" lon="5.87856">
        <ele>1109.5</ele>
        <time>2020-07-06T13:22:54Z</time>
      </trkpt>
      <trkpt lat="44.91564" lon="5.87854">
        <ele>1109.5</ele>
        <time>2020-07-06T13:22:55Z</time>
      </trkpt>
      <trkpt lat="44.91563" lon="5.87853">
        <ele>1109.02</ele>
        <time>2020-07-06T13:22:56Z</time>
      </trkpt>
      <trkpt lat="44.91562" lon="5.87852">
        <ele>1109.02</ele>
        <time>2020-07-06T13:22:57Z</time>
      </trkpt>
      <trkpt lat="44.91562" lon="5.87851">
        <ele>1109.02</ele>
        <time>2020-07-06T13:22:58Z</time>
      </trkpt>
      <trkpt lat="44.91561" lon="5.8785">
        <ele>1109.02</ele>
        <time>2020-07-06T13:22:59Z</time>
      </trkpt>
      <trkpt lat="44.91549" lon="5.87832">
        <ele>1107.58</ele>
        <time>2020-07-06T13:23:15Z</time>
      </trkpt>
      <trkpt lat="44.91541" lon="5.87815">
        <ele>1104.69</ele>
        <time>2020-07-06T13:23:28Z</time>
      </trkpt>
      <trkpt lat="44.91534" lon="5.87804">
        <ele>1105.65</ele>
        <time>2020-07-06T13:23:37Z</time>
      </trkpt>
      <trkpt lat="44.91531" lon="5.87799">
        <ele>1106.13</ele>
        <time>2020-07-06T13:23:41Z</time>
      </trkpt>
      <trkpt lat="44.91528" lon="5.87784">
        <ele>1106.61</ele>
        <time>2020-07-06T13:23:54Z</time>
      </trkpt>
      <trkpt lat="44.9153" lon="5.8778">
        <ele>1106.13</ele>
        <time>2020-07-06T13:23:57Z</time>
      </trkpt>
      <trkpt lat="44.9154" lon="5.87772">
        <ele>1103.25</ele>
        <time>2020-07-06T13:24:12Z</time>
      </trkpt>
      <trkpt lat="44.91555" lon="5.87764">
        <ele>1100.37</ele>
        <time>2020-07-06T13:24:28Z</time>
      </trkpt>
      <trkpt lat="44.91558" lon="5.87762">
        <ele>1098.92</ele>
        <time>2020-07-06T13:24:31Z</time>
      </trkpt>
      <trkpt lat="44.91562" lon="5.87748">
        <ele>1096.04</ele>
        <time>2020-07-06T13:24:41Z</time>
      </trkpt>
      <trkpt lat="44.91552" lon="5.87713">
        <ele>1093.16</ele>
        <time>2020-07-06T13:25:03Z</time>
      </trkpt>
      <trkpt lat="44.91547" lon="5.877">
        <ele>1092.68</ele>
        <time>2020-07-06T13:25:12Z</time>
      </trkpt>
      <trkpt lat="44.91535" lon="5.87676">
        <ele>1089.79</ele>
        <time>2020-07-06T13:25:30Z</time>
      </trkpt>
      <trkpt lat="44.91531" lon="5.87658">
        <ele>1086.43</ele>
        <time>2020-07-06T13:25:40Z</time>
      </trkpt>
      <trkpt lat="44.91531" lon="5.87627">
        <ele>1086.43</ele>
        <time>2020-07-06T13:25:57Z</time>
      </trkpt>
      <trkpt lat="44.9153" lon="5.87624">
        <ele>1085.47</ele>
        <time>2020-07-06T13:25:59Z</time>
      </trkpt>
      <trkpt lat="44.91525" lon="5.87597">
        <ele>1083.54</ele>
        <time>2020-07-06T13:26:17Z</time>
      </trkpt>
      <trkpt lat="44.91524" lon="5.87566">
        <ele>1080.66</ele>
        <time>2020-07-06T13:26:36Z</time>
      </trkpt>
      <trkpt lat="44.91524" lon="5.87539">
        <ele>1078.74</ele>
        <time>2020-07-06T13:26:52Z</time>
      </trkpt>
      <trkpt lat="44.91524" lon="5.87516">
        <ele>1076.81</ele>
        <time>2020-07-06T13:27:04Z</time>
      </trkpt>
      <trkpt lat="44.91524" lon="5.87513">
        <ele>1076.33</ele>
        <time>2020-07-06T13:27:06Z</time>
      </trkpt>
      <trkpt lat="44.91532" lon="5.8749">
        <ele>1072.97</ele>
        <time>2020-07-06T13:27:20Z</time>
      </trkpt>
      <trkpt lat="44.91533" lon="5.87465">
        <ele>1070.08</ele>
        <time>2020-07-06T13:27:36Z</time>
      </trkpt>
      <trkpt lat="44.91533" lon="5.87445">
        <ele>1067.2</ele>
        <time>2020-07-06T13:27:49Z</time>
      </trkpt>
      <trkpt lat="44.91535" lon="5.87431">
        <ele>1063.84</ele>
        <time>2020-07-06T13:27:56Z</time>
      </trkpt>
      <trkpt lat="44.91535" lon="5.87402">
        <ele>1061.91</ele>
        <time>2020-07-06T13:28:13Z</time>
      </trkpt>
      <trkpt lat="44.91535" lon="5.87394">
        <ele>1061.43</ele>
        <time>2020-07-06T13:28:18Z</time>
      </trkpt>
      <trkpt lat="44.91531" lon="5.87391">
        <ele>1059.03</ele>
        <time>2020-07-06T13:28:34Z</time>
      </trkpt>
      <trkpt lat="44.91533" lon="5.87391">
        <ele>1059.03</ele>
        <time>2020-07-06T13:28:54Z</time>
      </trkpt>
      <trkpt lat="44.91534" lon="5.8739">
        <ele>1057.59</ele>
        <time>2020-07-06T13:29:30Z</time>
      </trkpt>
      <trkpt lat="44.91534" lon="5.8739">
        <ele>1054.7</ele>
        <time>2020-07-06T13:29:34Z</time>
      </trkpt>
      <trkpt lat="44.91534" lon="5.8739">
        <ele>1058.07</ele>
        <time>2020-07-06T13:29:38Z</time>
      </trkpt>
      <trkpt lat="44.91533" lon="5.8739">
        <ele>1059.03</ele>
        <time>2020-07-06T13:29:40Z</time>
      </trkpt>
      <trkpt lat="44.91534" lon="5.87391">
        <ele>1057.59</ele>
        <time>2020-07-06T13:30:01Z</time>
      </trkpt>
      <trkpt lat="44.91535" lon="5.87387">
        <ele>1058.55</ele>
        <time>2020-07-06T13:30:20Z</time>
      </trkpt>
      <trkpt lat="44.91532" lon="5.87352">
        <ele>1056.15</ele>
        <time>2020-07-06T13:30:42Z</time>
      </trkpt>
      <trkpt lat="44.91531" lon="5.87328">
        <ele>1053.26</ele>
        <time>2020-07-06T13:30:56Z</time>
      </trkpt>
      <trkpt lat="44.91532" lon="5.87306">
        <ele>1049.9</ele>
        <time>2020-07-06T13:31:10Z</time>
      </trkpt>
      <trkpt lat="44.91536" lon="5.8729">
        <ele>1048.45</ele>
        <time>2020-07-06T13:31:19Z</time>
      </trkpt>
      <trkpt lat="44.91536" lon="5.87288">
        <ele>1047.97</ele>
        <time>2020-07-06T13:31:20Z</time>
      </trkpt>
      <trkpt lat="44.9154" lon="5.87266">
        <ele>1045.57</ele>
        <time>2020-07-06T13:31:34Z</time>
      </trkpt>
      <trkpt lat="44.9154" lon="5.87264">
        <ele>1045.57</ele>
        <time>2020-07-06T13:31:35Z</time>
      </trkpt>
      <trkpt lat="44.91541" lon="5.87262">
        <ele>1045.57</ele>
        <time>2020-07-06T13:31:36Z</time>
      </trkpt>
      <trkpt lat="44.91541" lon="5.87261">
        <ele>1045.09</ele>
        <time>2020-07-06T13:31:37Z</time>
      </trkpt>
      <trkpt lat="44.91541" lon="5.87259">
        <ele>1045.09</ele>
        <time>2020-07-06T13:31:38Z</time>
      </trkpt>
      <trkpt lat="44.91542" lon="5.87257">
        <ele>1044.61</ele>
        <time>2020-07-06T13:31:39Z</time>
      </trkpt>
      <trkpt lat="44.91548" lon="5.8723">
        <ele>1043.17</ele>
        <time>2020-07-06T13:31:55Z</time>
      </trkpt>
      <trkpt lat="44.91551" lon="5.87205">
        <ele>1039.8</ele>
        <time>2020-07-06T13:32:10Z</time>
      </trkpt>
      <trkpt lat="44.91551" lon="5.87199">
        <ele>1039.32</ele>
        <time>2020-07-06T13:32:14Z</time>
      </trkpt>
      <trkpt lat="44.91552" lon="5.87197">
        <ele>1039.32</ele>
        <time>2020-07-06T13:32:15Z</time>
      </trkpt>
      <trkpt lat="44.91553" lon="5.87196">
        <ele>1039.32</ele>
        <time>2020-07-06T13:32:16Z</time>
      </trkpt>
      <trkpt lat="44.91553" lon="5.87194">
        <ele>1038.84</ele>
        <time>2020-07-06T13:32:17Z</time>
      </trkpt>
      <trkpt lat="44.91553" lon="5.87192">
        <ele>1038.84</ele>
        <time>2020-07-06T13:32:18Z</time>
      </trkpt>
      <trkpt lat="44.91554" lon="5.87162">
        <ele>1037.4</ele>
        <time>2020-07-06T13:32:34Z</time>
      </trkpt>
      <trkpt lat="44.91549" lon="5.87138">
        <ele>1034.04</ele>
        <time>2020-07-06T13:32:49Z</time>
      </trkpt>
      <trkpt lat="44.91553" lon="5.87127">
        <ele>1033.07</ele>
        <time>2020-07-06T13:33:05Z</time>
      </trkpt>
      <trkpt lat="44.91553" lon="5.87112">
        <ele>1033.07</ele>
        <time>2020-07-06T13:33:25Z</time>
      </trkpt>
      <trkpt lat="44.91552" lon="5.87084">
        <ele>1031.63</ele>
        <time>2020-07-06T13:33:44Z</time>
      </trkpt>
      <trkpt lat="44.91551" lon="5.87054">
        <ele>1028.75</ele>
        <time>2020-07-06T13:33:59Z</time>
      </trkpt>
      <trkpt lat="44.91552" lon="5.87048">
        <ele>1028.27</ele>
        <time>2020-07-06T13:34:02Z</time>
      </trkpt>
      <trkpt lat="44.91552" lon="5.87046">
        <ele>1028.27</ele>
        <time>2020-07-06T13:34:03Z</time>
      </trkpt>
      <trkpt lat="44.91552" lon="5.87044">
        <ele>1027.79</ele>
        <time>2020-07-06T13:34:04Z</time>
      </trkpt>
      <trkpt lat="44.91555" lon="5.87042">
        <ele>1027.79</ele>
        <time>2020-07-06T13:34:07Z</time>
      </trkpt>
      <trkpt lat="44.91556" lon="5.87044">
        <ele>1027.31</ele>
        <time>2020-07-06T13:34:08Z</time>
      </trkpt>
      <trkpt lat="44.91557" lon="5.87045">
        <ele>1027.31</ele>
        <time>2020-07-06T13:34:09Z</time>
      </trkpt>
      <trkpt lat="44.91558" lon="5.87047">
        <ele>1026.83</ele>
        <time>2020-07-06T13:34:10Z</time>
      </trkpt>
      <trkpt lat="44.91558" lon="5.87049">
        <ele>1026.83</ele>
        <time>2020-07-06T13:34:11Z</time>
      </trkpt>
      <trkpt lat="44.91559" lon="5.87051">
        <ele>1026.83</ele>
        <time>2020-07-06T13:34:12Z</time>
      </trkpt>
      <trkpt lat="44.91561" lon="5.87063">
        <ele>1025.38</ele>
        <time>2020-07-06T13:34:19Z</time>
      </trkpt>
      <trkpt lat="44.91562" lon="5.87065">
        <ele>1025.38</ele>
        <time>2020-07-06T13:34:20Z</time>
      </trkpt>
      <trkpt lat="44.91563" lon="5.87067">
        <ele>1025.38</ele>
        <time>2020-07-06T13:34:21Z</time>
      </trkpt>
      <trkpt lat="44.91563" lon="5.87068">
        <ele>1025.38</ele>
        <time>2020-07-06T13:34:22Z</time>
      </trkpt>
      <trkpt lat="44.91563" lon="5.8707">
        <ele>1024.9</ele>
        <time>2020-07-06T13:34:23Z</time>
      </trkpt>
      <trkpt lat="44.91564" lon="5.87072">
        <ele>1024.9</ele>
        <time>2020-07-06T13:34:24Z</time>
      </trkpt>
      <trkpt lat="44.91579" lon="5.8709">
        <ele>1023.94</ele>
        <time>2020-07-06T13:34:39Z</time>
      </trkpt>
      <trkpt lat="44.91579" lon="5.87091">
        <ele>1023.46</ele>
        <time>2020-07-06T13:34:40Z</time>
      </trkpt>
      <trkpt lat="44.9158" lon="5.87093">
        <ele>1023.46</ele>
        <time>2020-07-06T13:34:41Z</time>
      </trkpt>
      <trkpt lat="44.91601" lon="5.87122">
        <ele>1022.98</ele>
        <time>2020-07-06T13:35:03Z</time>
      </trkpt>
      <trkpt lat="44.91627" lon="5.87139">
        <ele>1022.98</ele>
        <time>2020-07-06T13:35:25Z</time>
      </trkpt>
      <trkpt lat="44.91653" lon="5.87157">
        <ele>1023.46</ele>
        <time>2020-07-06T13:35:48Z</time>
      </trkpt>
      <trkpt lat="44.91659" lon="5.87191">
        <ele>1023.94</ele>
        <time>2020-07-06T13:36:07Z</time>
      </trkpt>
      <trkpt lat="44.91663" lon="5.87222">
        <ele>1024.42</ele>
        <time>2020-07-06T13:36:26Z</time>
      </trkpt>
      <trkpt lat="44.91664" lon="5.87223">
        <ele>1024.42</ele>
        <time>2020-07-06T13:36:27Z</time>
      </trkpt>
      <trkpt lat="44.91675" lon="5.87223">
        <ele>1024.42</ele>
        <time>2020-07-06T13:36:36Z</time>
      </trkpt>
      <trkpt lat="44.91695" lon="5.87215">
        <ele>1025.38</ele>
        <time>2020-07-06T13:36:53Z</time>
      </trkpt>
      <trkpt lat="44.91713" lon="5.87186">
        <ele>1024.42</ele>
        <time>2020-07-06T13:37:13Z</time>
      </trkpt>
      <trkpt lat="44.91724" lon="5.87152">
        <ele>1022.02</ele>
        <time>2020-07-06T13:37:33Z</time>
      </trkpt>
      <trkpt lat="44.91746" lon="5.87141">
        <ele>1022.5</ele>
        <time>2020-07-06T13:37:51Z</time>
      </trkpt>
      <trkpt lat="44.91774" lon="5.87153">
        <ele>1022.98</ele>
        <time>2020-07-06T13:38:12Z</time>
      </trkpt>
      <trkpt lat="44.91791" lon="5.87186">
        <ele>1023.94</ele>
        <time>2020-07-06T13:38:33Z</time>
      </trkpt>
      <trkpt lat="44.918" lon="5.8719">
        <ele>1024.9</ele>
        <time>2020-07-06T13:38:45Z</time>
      </trkpt>
      <trkpt lat="44.91799" lon="5.87189">
        <ele>1021.54</ele>
        <time>2020-07-06T13:38:52Z</time>
      </trkpt>
      <trkpt lat="44.91799" lon="5.87189">
        <ele>1021.54</ele>
        <time>2020-07-06T13:38:53Z</time>
      </trkpt>
      <trkpt lat="44.91799" lon="5.87188">
        <ele>1022.02</ele>
        <time>2020-07-06T13:38:56Z</time>
      </trkpt>
    </trkseg>
  </trk>
</gpx>